<?xml version='1.0' encoding='UTF-8'?><gpx version="1.1" creator="JPX - https://github.com/jenetics/jpx" xmlns="http://www.topografix.com/GPX/1/1"><trk><trkseg><trkpt lat="45.73515127445231" lon="9.129024657118816"><ele>353.33333333333337</ele><time>2026-04-03T09:29:30.999Z</time></trkpt><trkpt lat="45.735195554909126" lon="9.129104345778096"><ele>353.6666666666667</ele><time>2026-04-03T09:29:33.999Z</time></trkpt><trkpt lat="45.73525957453506" lon="9.129102295869922"><ele>354.0</ele><time>2026-04-03T09:30:18.998Z</time></trkpt><trkpt lat="45.735329312382575" lon="9.12902591519631"><ele>354.3333333333333</ele><time>2026-04-03T09:30:20.998Z</time></trkpt><trkpt lat="45.73540248623054" lon="9.128938211383995"><ele>354.66666666666663</ele><time>2026-04-03T09:30:22.998Z</time></trkpt><trkpt lat="45.73546908999486" lon="9.128868830144206"><ele>355.0</ele><time>2026-04-03T09:30:24.998Z</time></trkpt><trkpt lat="45.735543605375504" lon="9.128791062024941"><ele>355.4</ele><time>2026-04-03T09:30:26.998Z</time></trkpt><trkpt lat="45.735635881777384" lon="9.128700034070583"><ele>355.8</ele><time>2026-04-03T09:30:28.998Z</time></trkpt><trkpt lat="45.7356933359892" lon="9.128612761953052"><ele>356.20000000000005</ele><time>2026-04-03T09:30:30.998Z</time></trkpt><trkpt lat="45.73576395922913" lon="9.128520847772986"><ele>356.6</ele><time>2026-04-03T09:30:32.998Z</time></trkpt><trkpt lat="45.73586140382421" lon="9.128421614921928"><ele>357.0</ele><time>2026-04-03T09:30:34.998Z</time></trkpt><trkpt lat="45.73593875237099" lon="9.128424638171207"><ele>357.0</ele><time>2026-04-03T09:30:35.998Z</time></trkpt><trkpt lat="45.735989434452094" lon="9.128370666661159"><ele>357.0</ele><time>2026-04-03T09:30:36.998Z</time></trkpt><trkpt lat="45.73604171456323" lon="9.128319118498379"><ele>357.0</ele><time>2026-04-03T09:30:37.998Z</time></trkpt><trkpt lat="45.7361399682362" lon="9.128224596722623"><ele>357.0</ele><time>2026-04-03T09:30:39.998Z</time></trkpt><trkpt lat="45.736208775511535" lon="9.12812950673317"><ele>357.0</ele><time>2026-04-03T09:30:41.998Z</time></trkpt><trkpt lat="45.736260133556456" lon="9.128074294583405"><ele>357.0</ele><time>2026-04-03T09:30:44.998Z</time></trkpt><trkpt lat="45.73631894850287" lon="9.12798452511095"><ele>356.8</ele><time>2026-04-03T09:31:15Z</time></trkpt><trkpt lat="45.73637038099361" lon="9.127905194540189"><ele>356.6</ele><time>2026-04-03T09:31:16Z</time></trkpt><trkpt lat="45.7364217591299" lon="9.127808246152087"><ele>356.40000000000003</ele><time>2026-04-03T09:31:17Z</time></trkpt><trkpt lat="45.7364689844355" lon="9.127691321029948"><ele>356.20000000000005</ele><time>2026-04-03T09:31:18Z</time></trkpt><trkpt lat="45.736514115765665" lon="9.127547863612065"><ele>356.0</ele><time>2026-04-03T09:31:19Z</time></trkpt><trkpt lat="45.73658693391641" lon="9.127429742294893"><ele>355.25</ele><time>2026-04-03T09:31:20Z</time></trkpt><trkpt lat="45.736685168742326" lon="9.127304431497304"><ele>354.5</ele><time>2026-04-03T09:31:21Z</time></trkpt><trkpt lat="45.73679080612967" lon="9.127173460615504"><ele>353.75</ele><time>2026-04-03T09:31:22Z</time></trkpt><trkpt lat="45.73688206484498" lon="9.127053462020505"><ele>353.0</ele><time>2026-04-03T09:31:23Z</time></trkpt><trkpt lat="45.73695101114804" lon="9.126958627036286"><ele>352.33333333333337</ele><time>2026-04-03T09:31:24Z</time></trkpt><trkpt lat="45.73700897089119" lon="9.126878903829885"><ele>351.6666666666667</ele><time>2026-04-03T09:31:25Z</time></trkpt><trkpt lat="45.73705932373412" lon="9.126809643931065"><ele>351.0</ele><time>2026-04-03T09:31:26Z</time></trkpt><trkpt lat="45.737118331006535" lon="9.126728479897647"><ele>350.3333333333333</ele><time>2026-04-03T09:31:27.999Z</time></trkpt><trkpt lat="45.73710002893129" lon="9.126570832281502"><ele>349.66666666666663</ele><time>2026-04-03T09:31:31.999Z</time></trkpt><trkpt lat="45.73706976736353" lon="9.126479468191988"><ele>349.0</ele><time>2026-04-03T09:31:32.999Z</time></trkpt><trkpt lat="45.736996930058105" lon="9.126362911022435"><ele>349.2</ele><time>2026-04-03T09:31:33.999Z</time></trkpt><trkpt lat="45.73692172273929" lon="9.126262555054396"><ele>349.4</ele><time>2026-04-03T09:31:34.999Z</time></trkpt><trkpt lat="45.73685772269882" lon="9.126148322912048"><ele>349.6</ele><time>2026-04-03T09:31:35.999Z</time></trkpt><trkpt lat="45.73679948144979" lon="9.126031853596798"><ele>349.8</ele><time>2026-04-03T09:31:36.999Z</time></trkpt><trkpt lat="45.73674268558736" lon="9.125939126617073"><ele>350.0</ele><time>2026-04-03T09:31:37.999Z</time></trkpt><trkpt lat="45.736694454167186" lon="9.125872244054719"><ele>350.0</ele><time>2026-04-03T09:31:38.999Z</time></trkpt><trkpt lat="45.73660501252793" lon="9.125783028309877"><ele>350.0</ele><time>2026-04-03T09:31:40.999Z</time></trkpt><trkpt lat="45.73651935656468" lon="9.125893164171666"><ele>350.0</ele><time>2026-04-03T09:31:42.999Z</time></trkpt><trkpt lat="45.73644132341354" lon="9.125972135796127"><ele>350.0</ele><time>2026-04-03T09:31:43.999Z</time></trkpt><trkpt lat="45.73636401444615" lon="9.126095269196679"><ele>350.0</ele><time>2026-04-03T09:31:44.999Z</time></trkpt><trkpt lat="45.736283053978795" lon="9.1262034089421"><ele>350.0</ele><time>2026-04-03T09:31:45.999Z</time></trkpt><trkpt lat="45.736224825748046" lon="9.126290980855469"><ele>350.0</ele><time>2026-04-03T09:31:46.999Z</time></trkpt><trkpt lat="45.73617843966879" lon="9.126366529259847"><ele>350.0</ele><time>2026-04-03T09:31:47.999Z</time></trkpt><trkpt lat="45.736095725309795" lon="9.126496618863376"><ele>350.0</ele><time>2026-04-03T09:31:49.999Z</time></trkpt><trkpt lat="45.736055822979075" lon="9.126572868886173"><ele>350.0</ele><time>2026-04-03T09:31:50.999Z</time></trkpt><trkpt lat="45.73602047508758" lon="9.12670893831098"><ele>350.0</ele><time>2026-04-03T09:31:52.999Z</time></trkpt><trkpt lat="45.73606172002942" lon="9.126940185151492"><ele>350.5</ele><time>2026-04-03T09:31:54.999Z</time></trkpt><trkpt lat="45.7361044304256" lon="9.127061628514062"><ele>351.0</ele><time>2026-04-03T09:31:55.999Z</time></trkpt><trkpt lat="45.736129112985594" lon="9.127167095817066"><ele>351.5</ele><time>2026-04-03T09:31:56.999Z</time></trkpt><trkpt lat="45.73615577713311" lon="9.127270406688858"><ele>352.0</ele><time>2026-04-03T09:31:57.999Z</time></trkpt><trkpt lat="45.73618270018808" lon="9.127358670501772"><ele>352.5</ele><time>2026-04-03T09:31:58.999Z</time></trkpt><trkpt lat="45.73623278529094" lon="9.127454461353928"><ele>353.0</ele><time>2026-04-03T09:32:00.999Z</time></trkpt><trkpt lat="45.73626441924754" lon="9.127538563136374"><ele>353.59999999999997</ele><time>2026-04-03T09:32:03.999Z</time></trkpt><trkpt lat="45.73630561212727" lon="9.127678292584188"><ele>354.2</ele><time>2026-04-03T09:32:26.998Z</time></trkpt><trkpt lat="45.736353905654326" lon="9.1278031672783"><ele>354.8</ele><time>2026-04-03T09:32:28.998Z</time></trkpt><trkpt lat="45.73635435926222" lon="9.127960984263199"><ele>355.4</ele><time>2026-04-03T09:32:30.998Z</time></trkpt><trkpt lat="45.73631262513928" lon="9.1280492228905"><ele>356.0</ele><time>2026-04-03T09:32:31.998Z</time></trkpt><trkpt lat="45.7362630226453" lon="9.128117837369613"><ele>356.0</ele><time>2026-04-03T09:32:32.998Z</time></trkpt><trkpt lat="45.73620080184509" lon="9.128185215750134"><ele>356.0</ele><time>2026-04-03T09:32:33.998Z</time></trkpt><trkpt lat="45.73610612854438" lon="9.128200057571577"><ele>356.0</ele><time>2026-04-03T09:32:34.998Z</time></trkpt><trkpt lat="45.73603601640845" lon="9.128267444837748"><ele>356.0</ele><time>2026-04-03T09:32:35.998Z</time></trkpt><trkpt lat="45.735964869441794" lon="9.128337527882232"><ele>356.0</ele><time>2026-04-03T09:32:36.998Z</time></trkpt><trkpt lat="45.735906789364684" lon="9.128399377565923"><ele>356.0</ele><time>2026-04-03T09:32:37.998Z</time></trkpt><trkpt lat="45.73584802413481" lon="9.12846195679073"><ele>356.20000000000005</ele><time>2026-04-03T09:32:38.998Z</time></trkpt><trkpt lat="45.73578688232274" lon="9.128527066918853"><ele>356.40000000000003</ele><time>2026-04-03T09:32:39.998Z</time></trkpt><trkpt lat="45.73571884028103" lon="9.128599564338204"><ele>356.6</ele><time>2026-04-03T09:32:40.998Z</time></trkpt><trkpt lat="45.735639919155986" lon="9.128683653596015"><ele>356.8</ele><time>2026-04-03T09:32:41.998Z</time></trkpt><trkpt lat="45.73554776297406" lon="9.12877943552578"><ele>357.0</ele><time>2026-04-03T09:32:42.998Z</time></trkpt><trkpt lat="45.73545426105404" lon="9.128874611621049"><ele>357.0</ele><time>2026-04-03T09:32:43.998Z</time></trkpt><trkpt lat="45.73537225366981" lon="9.128956479225076"><ele>357.0</ele><time>2026-04-03T09:32:44.998Z</time></trkpt><trkpt lat="45.73529862196082" lon="9.12902998544778"><ele>357.0</ele><time>2026-04-03T09:32:45.998Z</time></trkpt><trkpt lat="45.735234690154435" lon="9.129091657899764"><ele>357.0</ele><time>2026-04-03T09:32:46.998Z</time></trkpt><trkpt lat="45.73517583778522" lon="9.129145164699851"><ele>357.0</ele><time>2026-04-03T09:32:47.998Z</time></trkpt><trkpt lat="45.7350926299044" lon="9.129206117843582"><ele>357.0</ele><time>2026-04-03T09:32:49.998Z</time></trkpt><trkpt lat="45.73502599219691" lon="9.129245498255974"><ele>355.5</ele><time>2026-04-03T09:32:54.998Z</time></trkpt><trkpt lat="45.73495316267886" lon="9.129283708611261"><ele>354.0</ele><time>2026-04-03T09:32:57.997Z</time></trkpt><trkpt lat="45.73487849310763" lon="9.12931854419669"><ele>352.5</ele><time>2026-04-03T09:32:59.997Z</time></trkpt><trkpt lat="45.734801331083716" lon="9.129364293798169"><ele>351.0</ele><time>2026-04-03T09:33:01.997Z</time></trkpt><trkpt lat="45.734733300621826" lon="9.129425645917102"><ele>349.5</ele><time>2026-04-03T09:33:03.997Z</time></trkpt><trkpt lat="45.73467674143978" lon="9.129489726884874"><ele>348.0</ele><time>2026-04-03T09:33:05.997Z</time></trkpt><trkpt lat="45.734629527580466" lon="9.129556181980432"><ele>348.0</ele><time>2026-04-03T09:33:13.997Z</time></trkpt><trkpt lat="45.73457210252723" lon="9.129642066111403"><ele>348.0</ele><time>2026-04-03T09:33:16.997Z</time></trkpt><trkpt lat="45.734745454107035" lon="9.129862076344404"><ele>348.0</ele><time>2026-04-03T09:33:19.999Z</time></trkpt><trkpt lat="45.73480066745063" lon="9.129939789001824"><ele>348.0</ele><time>2026-04-03T09:33:20.999Z</time></trkpt><trkpt lat="45.73486538818171" lon="9.130003105065517"><ele>348.2</ele><time>2026-04-03T09:33:21.999Z</time></trkpt><trkpt lat="45.73493952918298" lon="9.130069379153705"><ele>348.4</ele><time>2026-04-03T09:33:22.999Z</time></trkpt><trkpt lat="45.73501916508078" lon="9.130149736716438"><ele>348.59999999999997</ele><time>2026-04-03T09:33:23.999Z</time></trkpt><trkpt lat="45.735103979392434" lon="9.130240407994437"><ele>348.79999999999995</ele><time>2026-04-03T09:33:24.999Z</time></trkpt><trkpt lat="45.735181662111856" lon="9.130332943141687"><ele>349.0</ele><time>2026-04-03T09:33:25.999Z</time></trkpt><trkpt lat="45.73525987097869" lon="9.13041866314664"><ele>349.0</ele><time>2026-04-03T09:33:26.999Z</time></trkpt><trkpt lat="45.73533848357649" lon="9.130499059851697"><ele>349.0</ele><time>2026-04-03T09:33:27.999Z</time></trkpt><trkpt lat="45.73542167977447" lon="9.130589071007618"><ele>349.0</ele><time>2026-04-03T09:33:28.999Z</time></trkpt><trkpt lat="45.73550751911783" lon="9.130678410537865"><ele>349.0</ele><time>2026-04-03T09:33:29.999Z</time></trkpt><trkpt lat="45.73559268854731" lon="9.130765014422732"><ele>349.0</ele><time>2026-04-03T09:33:30.999Z</time></trkpt><trkpt lat="45.735673031437734" lon="9.13084681671735"><ele>349.0</ele><time>2026-04-03T09:33:31.999Z</time></trkpt><trkpt lat="45.73575077852214" lon="9.130924327099109"><ele>349.0</ele><time>2026-04-03T09:33:32.999Z</time></trkpt><trkpt lat="45.73582655550176" lon="9.130998199120583"><ele>349.0</ele><time>2026-04-03T09:33:33.999Z</time></trkpt><trkpt lat="45.73589421487431" lon="9.131060710204103"><ele>349.0</ele><time>2026-04-03T09:33:34.999Z</time></trkpt><trkpt lat="45.73596140358525" lon="9.131129001750033"><ele>349.0</ele><time>2026-04-03T09:33:35.999Z</time></trkpt><trkpt lat="45.73603810057052" lon="9.13120786249801"><ele>349.0</ele><time>2026-04-03T09:33:36.999Z</time></trkpt><trkpt lat="45.736119364797844" lon="9.131287240607849"><ele>349.0</ele><time>2026-04-03T09:33:37.999Z</time></trkpt><trkpt lat="45.73620010111066" lon="9.131371259820773"><ele>349.0</ele><time>2026-04-03T09:33:38.999Z</time></trkpt><trkpt lat="45.736283217904294" lon="9.131456548688881"><ele>349.0</ele><time>2026-04-03T09:33:39.999Z</time></trkpt><trkpt lat="45.73636755374951" lon="9.13154382630882"><ele>349.0</ele><time>2026-04-03T09:33:40.999Z</time></trkpt><trkpt lat="45.73645378730286" lon="9.13163019708096"><ele>349.0</ele><time>2026-04-03T09:33:41.999Z</time></trkpt><trkpt lat="45.73653686697396" lon="9.131711306969871"><ele>348.79999999999995</ele><time>2026-04-03T09:33:42.999Z</time></trkpt><trkpt lat="45.73661737033886" lon="9.131789927024725"><ele>348.59999999999997</ele><time>2026-04-03T09:33:43.999Z</time></trkpt><trkpt lat="45.736693517250515" lon="9.131873425065837"><ele>348.4</ele><time>2026-04-03T09:33:44.999Z</time></trkpt><trkpt lat="45.73677013333909" lon="9.131958069551969"><ele>348.2</ele><time>2026-04-03T09:33:45.999Z</time></trkpt><trkpt lat="45.73684952407014" lon="9.132034288746775"><ele>348.0</ele><time>2026-04-03T09:33:46.999Z</time></trkpt><trkpt lat="45.73692474827432" lon="9.13210711729224"><ele>348.0</ele><time>2026-04-03T09:33:47.999Z</time></trkpt><trkpt lat="45.73699344388166" lon="9.132174078705553"><ele>348.0</ele><time>2026-04-03T09:33:48.999Z</time></trkpt><trkpt lat="45.737051566820384" lon="9.132230606506914"><ele>348.0</ele><time>2026-04-03T09:33:49.999Z</time></trkpt><trkpt lat="45.737105948392454" lon="9.13227968286196"><ele>348.0</ele><time>2026-04-03T09:33:50.999Z</time></trkpt><trkpt lat="45.73719954762302" lon="9.13235220972683"><ele>348.0</ele><time>2026-04-03T09:33:52.999Z</time></trkpt><trkpt lat="45.73726321953142" lon="9.13241798921202"><ele>348.0</ele><time>2026-04-03T09:33:54.999Z</time></trkpt><trkpt lat="45.73739757752962" lon="9.132382562863418"><ele>348.0</ele><time>2026-04-03T09:33:57.999Z</time></trkpt><trkpt lat="45.73747184054239" lon="9.132293423464999"><ele>348.0</ele><time>2026-04-03T09:33:58.999Z</time></trkpt><trkpt lat="45.7375618911378" lon="9.132175427332273"><ele>348.0</ele><time>2026-04-03T09:33:59.999Z</time></trkpt><trkpt lat="45.73766296199229" lon="9.132068184579573"><ele>348.0</ele><time>2026-04-03T09:34:00.999Z</time></trkpt><trkpt lat="45.737720671158016" lon="9.131947126148024"><ele>348.0</ele><time>2026-04-03T09:34:01.999Z</time></trkpt><trkpt lat="45.73782673673242" lon="9.131818510291092"><ele>348.6666666666667</ele><time>2026-04-03T09:34:02.999Z</time></trkpt><trkpt lat="45.73790166524853" lon="9.13172885579664"><ele>349.3333333333333</ele><time>2026-04-03T09:34:03.999Z</time></trkpt><trkpt lat="45.73795850186255" lon="9.131660294803833"><ele>350.0</ele><time>2026-04-03T09:34:04.999Z</time></trkpt><trkpt lat="45.738020907256484" lon="9.131557371034198"><ele>350.66666666666663</ele><time>2026-04-03T09:34:06.999Z</time></trkpt><trkpt lat="45.73807961996497" lon="9.131506991369983"><ele>351.3333333333333</ele><time>2026-04-03T09:34:08.999Z</time></trkpt><trkpt lat="45.73813712105134" lon="9.131444803400653"><ele>352.0</ele><time>2026-04-03T09:34:10.999Z</time></trkpt><trkpt lat="45.73818901271847" lon="9.131371240775177"><ele>352.5</ele><time>2026-04-03T09:34:16.998Z</time></trkpt><trkpt lat="45.738239670033515" lon="9.131299397045963"><ele>353.0</ele><time>2026-04-03T09:34:18.998Z</time></trkpt><trkpt lat="45.73828839841862" lon="9.131215478907283"><ele>353.5</ele><time>2026-04-03T09:34:20.998Z</time></trkpt><trkpt lat="45.738352479979774" lon="9.131196985818718"><ele>354.0</ele><time>2026-04-03T09:34:44.998Z</time></trkpt><trkpt lat="45.738449671605686" lon="9.131193867477242"><ele>354.5</ele><time>2026-04-03T09:34:48.998Z</time></trkpt><trkpt lat="45.73851773544159" lon="9.13118163273538"><ele>355.0</ele><time>2026-04-03T09:34:50.998Z</time></trkpt><trkpt lat="45.738595133131604" lon="9.1311487592457"><ele>354.8</ele><time>2026-04-03T09:34:52.998Z</time></trkpt><trkpt lat="45.738708700327535" lon="9.13122973546805"><ele>354.6</ele><time>2026-04-03T09:34:54.998Z</time></trkpt><trkpt lat="45.73870383871611" lon="9.131378196668287"><ele>354.4</ele><time>2026-04-03T09:34:56.998Z</time></trkpt><trkpt lat="45.73869894670061" lon="9.131551144153665"><ele>354.2</ele><time>2026-04-03T09:34:58.997Z</time></trkpt><trkpt lat="45.73869523854538" lon="9.131644742015606"><ele>354.0</ele><time>2026-04-03T09:34:59.997Z</time></trkpt><trkpt lat="45.738688418569" lon="9.131740062872659"><ele>354.0</ele><time>2026-04-03T09:35:00.997Z</time></trkpt><trkpt lat="45.73867711432764" lon="9.131837342838882"><ele>354.0</ele><time>2026-04-03T09:35:01.997Z</time></trkpt><trkpt lat="45.73866853948941" lon="9.131952169542705"><ele>354.0</ele><time>2026-04-03T09:35:02.997Z</time></trkpt><trkpt lat="45.73864679751045" lon="9.132068035104894"><ele>354.0</ele><time>2026-04-03T09:35:03.997Z</time></trkpt><trkpt lat="45.73864789351715" lon="9.132184160306958"><ele>354.0</ele><time>2026-04-03T09:35:04.997Z</time></trkpt><trkpt lat="45.73864358626476" lon="9.132296392766609"><ele>354.0</ele><time>2026-04-03T09:35:05.997Z</time></trkpt><trkpt lat="45.73864181597076" lon="9.132411865022476"><ele>353.1666666666667</ele><time>2026-04-03T09:35:06.997Z</time></trkpt><trkpt lat="45.738643879975" lon="9.132515398888987"><ele>352.3333333333333</ele><time>2026-04-03T09:35:07.997Z</time></trkpt><trkpt lat="45.73864515179005" lon="9.132612170211257"><ele>351.5</ele><time>2026-04-03T09:35:08.997Z</time></trkpt><trkpt lat="45.73864630723248" lon="9.132787977010672"><ele>350.66666666666663</ele><time>2026-04-03T09:35:10.997Z</time></trkpt><trkpt lat="45.7386505874585" lon="9.132880530245833"><ele>349.8333333333333</ele><time>2026-04-03T09:35:11.997Z</time></trkpt><trkpt lat="45.738663723106846" lon="9.133048786864487"><ele>349.0</ele><time>2026-04-03T09:35:13.997Z</time></trkpt><trkpt lat="45.7387166284927" lon="9.1331149058655"><ele>348.0</ele><time>2026-04-03T09:35:14.997Z</time></trkpt><trkpt lat="45.73880086080563" lon="9.13325361371025"><ele>347.0</ele><time>2026-04-03T09:35:16.997Z</time></trkpt><trkpt lat="45.73885376093822" lon="9.1333233305659"><ele>346.0</ele><time>2026-04-03T09:35:17.997Z</time></trkpt><trkpt lat="45.73890484566885" lon="9.133391090232214"><ele>345.0</ele><time>2026-04-03T09:35:18.997Z</time></trkpt><trkpt lat="45.73895408269535" lon="9.133459886798905"><ele>344.0</ele><time>2026-04-03T09:35:19.997Z</time></trkpt><trkpt lat="45.739043109241415" lon="9.133587125825674"><ele>344.0</ele><time>2026-04-03T09:35:21.997Z</time></trkpt><trkpt lat="45.7390958356432" lon="9.133664330061567"><ele>344.0</ele><time>2026-04-03T09:35:22.997Z</time></trkpt><trkpt lat="45.73915858923931" lon="9.133763684372925"><ele>344.0</ele><time>2026-04-03T09:35:23.999Z</time></trkpt><trkpt lat="45.73923358449788" lon="9.133866561468855"><ele>344.0</ele><time>2026-04-03T09:35:24.999Z</time></trkpt><trkpt lat="45.739319329456265" lon="9.13397449548018"><ele>344.0</ele><time>2026-04-03T09:35:25.999Z</time></trkpt><trkpt lat="45.739408629551434" lon="9.134063408043755"><ele>344.79999999999995</ele><time>2026-04-03T09:35:26.999Z</time></trkpt><trkpt lat="45.73949502181077" lon="9.13412995370867"><ele>345.59999999999997</ele><time>2026-04-03T09:35:27.999Z</time></trkpt><trkpt lat="45.73958442875379" lon="9.134173554990848"><ele>346.4</ele><time>2026-04-03T09:35:28.999Z</time></trkpt><trkpt lat="45.73967546761502" lon="9.134191104002017"><ele>347.2</ele><time>2026-04-03T09:35:29.999Z</time></trkpt><trkpt lat="45.739778535331666" lon="9.134182665030307"><ele>348.0</ele><time>2026-04-03T09:35:30.999Z</time></trkpt><trkpt lat="45.739883181822016" lon="9.13415148713194"><ele>348.0</ele><time>2026-04-03T09:35:31.999Z</time></trkpt><trkpt lat="45.739974263300795" lon="9.134147622184248"><ele>348.0</ele><time>2026-04-03T09:35:32.999Z</time></trkpt><trkpt lat="45.74005050284576" lon="9.134127809402484"><ele>348.0</ele><time>2026-04-03T09:35:33.999Z</time></trkpt><trkpt lat="45.740126235204144" lon="9.13410756630699"><ele>348.0</ele><time>2026-04-03T09:35:34.999Z</time></trkpt><trkpt lat="45.740206177399806" lon="9.134090579597906"><ele>348.0</ele><time>2026-04-03T09:35:35.999Z</time></trkpt><trkpt lat="45.74028627787713" lon="9.134091347735218"><ele>348.0</ele><time>2026-04-03T09:35:36.999Z</time></trkpt><trkpt lat="45.74036081232586" lon="9.134122114783144"><ele>348.6666666666667</ele><time>2026-04-03T09:35:37.999Z</time></trkpt><trkpt lat="45.74042075260168" lon="9.134170142560198"><ele>349.3333333333333</ele><time>2026-04-03T09:35:38.999Z</time></trkpt><trkpt lat="45.74050140372513" lon="9.13424659593878"><ele>350.0</ele><time>2026-04-03T09:35:40.999Z</time></trkpt><trkpt lat="45.74059877799695" lon="9.134342015874811"><ele>350.66666666666663</ele><time>2026-04-03T09:35:42.999Z</time></trkpt><trkpt lat="45.74065794536031" lon="9.134391561129474"><ele>351.3333333333333</ele><time>2026-04-03T09:35:43.999Z</time></trkpt><trkpt lat="45.74070924547765" lon="9.134445981592874"><ele>352.0</ele><time>2026-04-03T09:35:44.999Z</time></trkpt><trkpt lat="45.740763775606425" lon="9.134503346107085"><ele>352.0</ele><time>2026-04-03T09:35:45.999Z</time></trkpt><trkpt lat="45.740834347697756" lon="9.134569858919207"><ele>352.0</ele><time>2026-04-03T09:35:46.999Z</time></trkpt><trkpt lat="45.7409083699226" lon="9.13464032793658"><ele>352.0</ele><time>2026-04-03T09:35:47.999Z</time></trkpt><trkpt lat="45.740986828254655" lon="9.134714646651066"><ele>352.0</ele><time>2026-04-03T09:35:48.999Z</time></trkpt><trkpt lat="45.741062444582376" lon="9.134798554649883"><ele>352.0</ele><time>2026-04-03T09:35:49.999Z</time></trkpt><trkpt lat="45.74113658972795" lon="9.134870450585824"><ele>352.8333333333333</ele><time>2026-04-03T09:35:50.999Z</time></trkpt><trkpt lat="45.74123352726237" lon="9.134953123818246"><ele>353.66666666666663</ele><time>2026-04-03T09:35:52.999Z</time></trkpt><trkpt lat="45.74129277546509" lon="9.135003588005391"><ele>354.5</ele><time>2026-04-03T09:35:53.999Z</time></trkpt><trkpt lat="45.74135774501119" lon="9.135078894868238"><ele>355.3333333333333</ele><time>2026-04-03T09:35:54.999Z</time></trkpt><trkpt lat="45.74142834170689" lon="9.135151863530304"><ele>356.1666666666667</ele><time>2026-04-03T09:35:55.999Z</time></trkpt><trkpt lat="45.741502391580084" lon="9.135215119134308"><ele>357.0</ele><time>2026-04-03T09:35:56.999Z</time></trkpt><trkpt lat="45.74157747856131" lon="9.135276088753185"><ele>357.0</ele><time>2026-04-03T09:35:57.999Z</time></trkpt><trkpt lat="45.74165591380187" lon="9.135339236298003"><ele>357.0</ele><time>2026-04-03T09:35:58.999Z</time></trkpt><trkpt lat="45.74174031368482" lon="9.135396065139512"><ele>357.0</ele><time>2026-04-03T09:35:59.999Z</time></trkpt><trkpt lat="45.74182156109323" lon="9.135447695890258"><ele>357.0</ele><time>2026-04-03T09:36:00.999Z</time></trkpt><trkpt lat="45.741899920083185" lon="9.135500568718495"><ele>357.0</ele><time>2026-04-03T09:36:01.999Z</time></trkpt><trkpt lat="45.741972331435406" lon="9.135544950355278"><ele>357.0</ele><time>2026-04-03T09:36:02.999Z</time></trkpt><trkpt lat="45.742035474023695" lon="9.135579547665936"><ele>356.8333333333333</ele><time>2026-04-03T09:36:03.999Z</time></trkpt><trkpt lat="45.74210330451766" lon="9.135630219770805"><ele>356.6666666666667</ele><time>2026-04-03T09:36:05.999Z</time></trkpt><trkpt lat="45.74217248230847" lon="9.13569322036551"><ele>356.5</ele><time>2026-04-03T09:36:08.999Z</time></trkpt><trkpt lat="45.742202103854716" lon="9.135817866682087"><ele>356.33333333333337</ele><time>2026-04-03T09:36:10.998Z</time></trkpt><trkpt lat="45.74224755924015" lon="9.1358989139251"><ele>356.1666666666667</ele><time>2026-04-03T09:36:11.998Z</time></trkpt><trkpt lat="45.74231143373901" lon="9.135968862798252"><ele>356.0</ele><time>2026-04-03T09:36:12.998Z</time></trkpt><trkpt lat="45.742381582507164" lon="9.136059296481472"><ele>356.0</ele><time>2026-04-03T09:36:13.998Z</time></trkpt><trkpt lat="45.742434318208566" lon="9.136178477090802"><ele>356.0</ele><time>2026-04-03T09:36:14.998Z</time></trkpt><trkpt lat="45.74249327636736" lon="9.136314654293662"><ele>356.0</ele><time>2026-04-03T09:36:15.998Z</time></trkpt><trkpt lat="45.74255858109477" lon="9.136440308706627"><ele>356.0</ele><time>2026-04-03T09:36:16.998Z</time></trkpt><trkpt lat="45.74261916697994" lon="9.136568321682596"><ele>356.0</ele><time>2026-04-03T09:36:17.998Z</time></trkpt><trkpt lat="45.742682048270545" lon="9.136710108983888"><ele>355.5</ele><time>2026-04-03T09:36:18.998Z</time></trkpt><trkpt lat="45.742753632136036" lon="9.136864106632386"><ele>355.0</ele><time>2026-04-03T09:36:19.998Z</time></trkpt><trkpt lat="45.74282878894809" lon="9.137016979478782"><ele>354.5</ele><time>2026-04-03T09:36:20.998Z</time></trkpt><trkpt lat="45.74290297310978" lon="9.137172589903107"><ele>354.0</ele><time>2026-04-03T09:36:21.998Z</time></trkpt><trkpt lat="45.74298091714892" lon="9.137337117281593"><ele>352.6666666666667</ele><time>2026-04-03T09:36:22.998Z</time></trkpt><trkpt lat="45.74306838893569" lon="9.137506743053045"><ele>351.33333333333337</ele><time>2026-04-03T09:36:23.998Z</time></trkpt><trkpt lat="45.743158441393525" lon="9.137690789478127"><ele>350.0</ele><time>2026-04-03T09:36:24.998Z</time></trkpt><trkpt lat="45.74324579980095" lon="9.137875134830571"><ele>350.0</ele><time>2026-04-03T09:36:25.998Z</time></trkpt><trkpt lat="45.743330895779586" lon="9.1380545543746"><ele>350.0</ele><time>2026-04-03T09:36:26.998Z</time></trkpt><trkpt lat="45.74341116819534" lon="9.138227298717634"><ele>350.0</ele><time>2026-04-03T09:36:27.998Z</time></trkpt><trkpt lat="45.74349165091146" lon="9.138393726836412"><ele>350.0</ele><time>2026-04-03T09:36:28.998Z</time></trkpt><trkpt lat="45.743576386344216" lon="9.138561924517028"><ele>349.25</ele><time>2026-04-03T09:36:29.998Z</time></trkpt><trkpt lat="45.743657879268945" lon="9.138728554322379"><ele>348.5</ele><time>2026-04-03T09:36:30.998Z</time></trkpt><trkpt lat="45.74373861838188" lon="9.13889913625592"><ele>347.75</ele><time>2026-04-03T09:36:31.998Z</time></trkpt><trkpt lat="45.74381378318471" lon="9.139062832430863"><ele>347.0</ele><time>2026-04-03T09:36:32.998Z</time></trkpt><trkpt lat="45.743881431490415" lon="9.139208503453167"><ele>346.83333333333337</ele><time>2026-04-03T09:36:33.998Z</time></trkpt><trkpt lat="45.743942203793324" lon="9.139338166441304"><ele>346.6666666666667</ele><time>2026-04-03T09:36:34.998Z</time></trkpt><trkpt lat="45.74399865814025" lon="9.139462094484738"><ele>346.5</ele><time>2026-04-03T09:36:35.998Z</time></trkpt><trkpt lat="45.74405304784361" lon="9.139577694328521"><ele>346.3333333333333</ele><time>2026-04-03T09:36:36.998Z</time></trkpt><trkpt lat="45.74408803068708" lon="9.139672263468356"><ele>346.16666666666663</ele><time>2026-04-03T09:36:37.998Z</time></trkpt><trkpt lat="45.7441086319933" lon="9.139757592113712"><ele>346.0</ele><time>2026-04-03T09:36:38.998Z</time></trkpt><trkpt lat="45.74411538714091" lon="9.139874776852967"><ele>345.6</ele><time>2026-04-03T09:36:40.998Z</time></trkpt><trkpt lat="45.74412113781864" lon="9.140020562015145"><ele>345.20000000000005</ele><time>2026-04-03T09:36:42.998Z</time></trkpt><trkpt lat="45.74415330595965" lon="9.140118769430636"><ele>344.79999999999995</ele><time>2026-04-03T09:36:43.998Z</time></trkpt><trkpt lat="45.74420740407661" lon="9.140208180292213"><ele>344.4</ele><time>2026-04-03T09:36:44.998Z</time></trkpt><trkpt lat="45.74427972382126" lon="9.140278889254233"><ele>344.0</ele><time>2026-04-03T09:36:45.998Z</time></trkpt><trkpt lat="45.74436562374122" lon="9.140358801178811"><ele>344.0</ele><time>2026-04-03T09:36:46.998Z</time></trkpt><trkpt lat="45.74444306212496" lon="9.140446160342199"><ele>344.0</ele><time>2026-04-03T09:36:47.998Z</time></trkpt><trkpt lat="45.74451685685483" lon="9.140564805907248"><ele>344.0</ele><time>2026-04-03T09:36:48.998Z</time></trkpt><trkpt lat="45.74458318112056" lon="9.140706454182562"><ele>344.0</ele><time>2026-04-03T09:36:49.998Z</time></trkpt><trkpt lat="45.744655226186715" lon="9.140854365543948"><ele>344.0</ele><time>2026-04-03T09:36:50.998Z</time></trkpt><trkpt lat="45.74473468690008" lon="9.141010509792087"><ele>344.0</ele><time>2026-04-03T09:36:51.998Z</time></trkpt><trkpt lat="45.7448266116983" lon="9.141168076387784"><ele>344.0</ele><time>2026-04-03T09:36:52.998Z</time></trkpt><trkpt lat="45.74493120989255" lon="9.141314725791354"><ele>344.0</ele><time>2026-04-03T09:36:53.998Z</time></trkpt><trkpt lat="45.74504715775177" lon="9.141450300006145"><ele>345.0</ele><time>2026-04-03T09:36:54.998Z</time></trkpt><trkpt lat="45.745159059945614" lon="9.141576192858725"><ele>346.0</ele><time>2026-04-03T09:36:55.998Z</time></trkpt><trkpt lat="45.745267500618745" lon="9.141696900474852"><ele>347.0</ele><time>2026-04-03T09:36:56.998Z</time></trkpt><trkpt lat="45.74537194806382" lon="9.141820929371372"><ele>348.0</ele><time>2026-04-03T09:36:57.998Z</time></trkpt><trkpt lat="45.74547958063388" lon="9.141954198786257"><ele>348.0</ele><time>2026-04-03T09:36:58.998Z</time></trkpt><trkpt lat="45.74559517663692" lon="9.14209240548266"><ele>348.0</ele><time>2026-04-03T09:36:59.998Z</time></trkpt><trkpt lat="45.7457141113477" lon="9.14223097704545"><ele>348.0</ele><time>2026-04-03T09:37:00.998Z</time></trkpt><trkpt lat="45.74582444343828" lon="9.142360075067714"><ele>348.0</ele><time>2026-04-03T09:37:01.998Z</time></trkpt><trkpt lat="45.745929328827835" lon="9.142482276236086"><ele>349.0</ele><time>2026-04-03T09:37:02.997Z</time></trkpt><trkpt lat="45.746036523683244" lon="9.142605796982465"><ele>350.0</ele><time>2026-04-03T09:37:03.997Z</time></trkpt><trkpt lat="45.74614087836754" lon="9.142731859654766"><ele>351.0</ele><time>2026-04-03T09:37:04.997Z</time></trkpt><trkpt lat="45.746249608805144" lon="9.142859837520886"><ele>352.0</ele><time>2026-04-03T09:37:05.997Z</time></trkpt><trkpt lat="45.746360811146964" lon="9.142985151521255"><ele>352.0</ele><time>2026-04-03T09:37:06.997Z</time></trkpt><trkpt lat="45.74648668906269" lon="9.14309655251804"><ele>352.0</ele><time>2026-04-03T09:37:07.997Z</time></trkpt><trkpt lat="45.74662661218349" lon="9.143186180697734"><ele>352.0</ele><time>2026-04-03T09:37:08.997Z</time></trkpt><trkpt lat="45.74678616730333" lon="9.14325800369778"><ele>353.0</ele><time>2026-04-03T09:37:09.997Z</time></trkpt><trkpt lat="45.74694793560198" lon="9.143318617240205"><ele>354.0</ele><time>2026-04-03T09:37:10.997Z</time></trkpt><trkpt lat="45.747101511536215" lon="9.143379048601803"><ele>355.0</ele><time>2026-04-03T09:37:11.997Z</time></trkpt><trkpt lat="45.74724314323975" lon="9.143434311122569"><ele>355.0</ele><time>2026-04-03T09:37:12.997Z</time></trkpt><trkpt lat="45.7473691955936" lon="9.143479524329317"><ele>355.0</ele><time>2026-04-03T09:37:13.997Z</time></trkpt><trkpt lat="45.747495699369196" lon="9.143523865248616"><ele>355.0</ele><time>2026-04-03T09:37:14.997Z</time></trkpt><trkpt lat="45.74763153490077" lon="9.143571268854782"><ele>355.0</ele><time>2026-04-03T09:37:15.997Z</time></trkpt><trkpt lat="45.74777159390802" lon="9.143622874034374"><ele>355.25</ele><time>2026-04-03T09:37:16.997Z</time></trkpt><trkpt lat="45.74790660070674" lon="9.14367292661811"><ele>355.5</ele><time>2026-04-03T09:37:17.997Z</time></trkpt><trkpt lat="45.74803737034103" lon="9.143718770209283"><ele>355.75</ele><time>2026-04-03T09:37:18.997Z</time></trkpt><trkpt lat="45.748156862982775" lon="9.143755924434275"><ele>356.0</ele><time>2026-04-03T09:37:19.997Z</time></trkpt><trkpt lat="45.74826718713449" lon="9.143801254594521"><ele>356.0</ele><time>2026-04-03T09:37:20.997Z</time></trkpt><trkpt lat="45.7483747884926" lon="9.143848947997999"><ele>356.0</ele><time>2026-04-03T09:37:21.997Z</time></trkpt><trkpt lat="45.74847948359609" lon="9.143911663911174"><ele>356.0</ele><time>2026-04-03T09:37:22.997Z</time></trkpt><trkpt lat="45.74858328549545" lon="9.143981686349841"><ele>356.0</ele><time>2026-04-03T09:37:23.997Z</time></trkpt><trkpt lat="45.74868706268957" lon="9.144056148938597"><ele>356.75</ele><time>2026-04-03T09:37:24.997Z</time></trkpt><trkpt lat="45.748794642560824" lon="9.144130520140559"><ele>357.5</ele><time>2026-04-03T09:37:25.997Z</time></trkpt><trkpt lat="45.74890279647108" lon="9.144199609222493"><ele>358.25</ele><time>2026-04-03T09:37:26.997Z</time></trkpt><trkpt lat="45.74900201023341" lon="9.144257998435886"><ele>359.0</ele><time>2026-04-03T09:37:27.997Z</time></trkpt><trkpt lat="45.74910171121128" lon="9.144329705418995"><ele>359.0</ele><time>2026-04-03T09:37:28.997Z</time></trkpt><trkpt lat="45.74919412527417" lon="9.144385009054602"><ele>359.0</ele><time>2026-04-03T09:37:29.999Z</time></trkpt><trkpt lat="45.749288250617816" lon="9.14443885154965"><ele>359.0</ele><time>2026-04-03T09:37:30.999Z</time></trkpt><trkpt lat="45.74938460243244" lon="9.144503493044214"><ele>359.0</ele><time>2026-04-03T09:37:31.999Z</time></trkpt><trkpt lat="45.749482636985405" lon="9.14457119076207"><ele>359.0</ele><time>2026-04-03T09:37:32.999Z</time></trkpt><trkpt lat="45.74958122540958" lon="9.144637451321156"><ele>359.6</ele><time>2026-04-03T09:37:33.999Z</time></trkpt><trkpt lat="45.749681091946265" lon="9.14469835914652"><ele>360.2</ele><time>2026-04-03T09:37:34.999Z</time></trkpt><trkpt lat="45.74977582951358" lon="9.144758659370233"><ele>360.8</ele><time>2026-04-03T09:37:35.999Z</time></trkpt><trkpt lat="45.749863663223834" lon="9.144815986058326"><ele>361.40000000000003</ele><time>2026-04-03T09:37:36.999Z</time></trkpt><trkpt lat="45.749950624629726" lon="9.144873046441372"><ele>362.0</ele><time>2026-04-03T09:37:37.999Z</time></trkpt><trkpt lat="45.750038968771456" lon="9.144930850542263"><ele>363.0</ele><time>2026-04-03T09:37:38.999Z</time></trkpt><trkpt lat="45.75012884480766" lon="9.144989403627944"><ele>364.0</ele><time>2026-04-03T09:37:39.999Z</time></trkpt><trkpt lat="45.750223025418364" lon="9.145047035455246"><ele>365.0</ele><time>2026-04-03T09:37:40.999Z</time></trkpt><trkpt lat="45.750316080810435" lon="9.145104622083807"><ele>366.0</ele><time>2026-04-03T09:37:41.999Z</time></trkpt><trkpt lat="45.750412329171354" lon="9.145160862472204"><ele>367.0</ele><time>2026-04-03T09:37:42.999Z</time></trkpt><trkpt lat="45.75051917508637" lon="9.145216013643033"><ele>367.0</ele><time>2026-04-03T09:37:43.999Z</time></trkpt><trkpt lat="45.75063434007" lon="9.145262652464721"><ele>367.0</ele><time>2026-04-03T09:37:44.999Z</time></trkpt><trkpt lat="45.75075333069666" lon="9.145293718066531"><ele>367.0</ele><time>2026-04-03T09:37:45.999Z</time></trkpt><trkpt lat="45.75087289639243" lon="9.145304500635453"><ele>367.0</ele><time>2026-04-03T09:37:46.999Z</time></trkpt><trkpt lat="45.75099301849331" lon="9.14530694891339"><ele>367.25</ele><time>2026-04-03T09:37:47.999Z</time></trkpt><trkpt lat="45.751115000801036" lon="9.145310276090203"><ele>367.5</ele><time>2026-04-03T09:37:48.999Z</time></trkpt><trkpt lat="45.75123974713195" lon="9.145319506256524"><ele>367.75</ele><time>2026-04-03T09:37:49.999Z</time></trkpt><trkpt lat="45.751366116140154" lon="9.14534327125957"><ele>368.0</ele><time>2026-04-03T09:37:50.999Z</time></trkpt><trkpt lat="45.751489787213664" lon="9.145388394829329"><ele>368.0</ele><time>2026-04-03T09:37:51.999Z</time></trkpt><trkpt lat="45.75161140541167" lon="9.145457036507043"><ele>368.0</ele><time>2026-04-03T09:37:52.999Z</time></trkpt><trkpt lat="45.751731377865035" lon="9.145544176157788"><ele>368.0</ele><time>2026-04-03T09:37:53.999Z</time></trkpt><trkpt lat="45.75184973923548" lon="9.145637753487206"><ele>368.0</ele><time>2026-04-03T09:37:54.999Z</time></trkpt><trkpt lat="45.75196696324209" lon="9.14572921743636"><ele>368.5</ele><time>2026-04-03T09:37:55.999Z</time></trkpt><trkpt lat="45.752084297695475" lon="9.14581665870617"><ele>369.0</ele><time>2026-04-03T09:37:56.999Z</time></trkpt><trkpt lat="45.752186474147784" lon="9.145896273565308"><ele>369.5</ele><time>2026-04-03T09:37:57.999Z</time></trkpt><trkpt lat="45.75227484388206" lon="9.145971715773687"><ele>370.0</ele><time>2026-04-03T09:37:58.999Z</time></trkpt><trkpt lat="45.75236682799815" lon="9.146046631056139"><ele>370.0</ele><time>2026-04-03T09:37:59.999Z</time></trkpt><trkpt lat="45.75246242300357" lon="9.14613435294943"><ele>370.0</ele><time>2026-04-03T09:38:00.999Z</time></trkpt><trkpt lat="45.75255198021194" lon="9.14624365433995"><ele>370.0</ele><time>2026-04-03T09:38:01.999Z</time></trkpt><trkpt lat="45.75263837303196" lon="9.14637168319837"><ele>370.0</ele><time>2026-04-03T09:38:02.999Z</time></trkpt><trkpt lat="45.75272383348163" lon="9.146518227497934"><ele>369.0</ele><time>2026-04-03T09:38:03.999Z</time></trkpt><trkpt lat="45.752812952103405" lon="9.146675703588684"><ele>368.0</ele><time>2026-04-03T09:38:04.999Z</time></trkpt><trkpt lat="45.752909979221684" lon="9.146840266593323"><ele>367.0</ele><time>2026-04-03T09:38:05.999Z</time></trkpt><trkpt lat="45.75301495057156" lon="9.147009203422812"><ele>367.0</ele><time>2026-04-03T09:38:06.999Z</time></trkpt><trkpt lat="45.753115847967074" lon="9.147184174806265"><ele>367.0</ele><time>2026-04-03T09:38:07.999Z</time></trkpt><trkpt lat="45.75321643181223" lon="9.14735438706719"><ele>367.0</ele><time>2026-04-03T09:38:08.999Z</time></trkpt><trkpt lat="45.753316617315875" lon="9.147519408899317"><ele>366.66666666666663</ele><time>2026-04-03T09:38:09.999Z</time></trkpt><trkpt lat="45.75341716099728" lon="9.147680655570811"><ele>366.3333333333333</ele><time>2026-04-03T09:38:10.999Z</time></trkpt><trkpt lat="45.75351530278836" lon="9.147839894254405"><ele>366.0</ele><time>2026-04-03T09:38:11.999Z</time></trkpt><trkpt lat="45.7536127378393" lon="9.148009018190455"><ele>365.75</ele><time>2026-04-03T09:38:12.999Z</time></trkpt><trkpt lat="45.7537086930172" lon="9.1481761394773"><ele>365.5</ele><time>2026-04-03T09:38:13.999Z</time></trkpt><trkpt lat="45.753798952906216" lon="9.148344904507496"><ele>365.25</ele><time>2026-04-03T09:38:14.999Z</time></trkpt><trkpt lat="45.75388013488447" lon="9.148522797692504"><ele>365.0</ele><time>2026-04-03T09:38:15.999Z</time></trkpt><trkpt lat="45.75394676749595" lon="9.148712836848825"><ele>365.0</ele><time>2026-04-03T09:38:16.999Z</time></trkpt><trkpt lat="45.75399397441108" lon="9.14892073142369"><ele>365.0</ele><time>2026-04-03T09:38:17.999Z</time></trkpt><trkpt lat="45.754029392647155" lon="9.149137207045268"><ele>365.0</ele><time>2026-04-03T09:38:18.999Z</time></trkpt><trkpt lat="45.75405511224266" lon="9.1493551021846"><ele>366.0</ele><time>2026-04-03T09:38:19.998Z</time></trkpt><trkpt lat="45.75407746551577" lon="9.14957596376917"><ele>367.0</ele><time>2026-04-03T09:38:20.998Z</time></trkpt><trkpt lat="45.75410828752883" lon="9.149796605706339"><ele>368.0</ele><time>2026-04-03T09:38:21.998Z</time></trkpt><trkpt lat="45.75415051723241" lon="9.150028482432507"><ele>368.33333333333337</ele><time>2026-04-03T09:38:22.998Z</time></trkpt><trkpt lat="45.754207739088784" lon="9.15026152045072"><ele>368.6666666666667</ele><time>2026-04-03T09:38:23.998Z</time></trkpt><trkpt lat="45.754283215361504" lon="9.150490572127373"><ele>369.0</ele><time>2026-04-03T09:38:24.998Z</time></trkpt><trkpt lat="45.75434785287928" lon="9.150696562588662"><ele>369.75</ele><time>2026-04-03T09:38:25.998Z</time></trkpt><trkpt lat="45.75444758752325" lon="9.15085364993086"><ele>370.5</ele><time>2026-04-03T09:38:26.998Z</time></trkpt><trkpt lat="45.75453411102729" lon="9.151008303416187"><ele>371.25</ele><time>2026-04-03T09:38:27.998Z</time></trkpt><trkpt lat="45.75462715347473" lon="9.151158288589944"><ele>372.0</ele><time>2026-04-03T09:38:28.998Z</time></trkpt><trkpt lat="45.75472511252114" lon="9.151306571628117"><ele>372.0</ele><time>2026-04-03T09:38:29.998Z</time></trkpt><trkpt lat="45.75482310858617" lon="9.151454662805111"><ele>372.0</ele><time>2026-04-03T09:38:30.998Z</time></trkpt><trkpt lat="45.75491990879669" lon="9.151599485662864"><ele>372.0</ele><time>2026-04-03T09:38:31.998Z</time></trkpt><trkpt lat="45.75501499449026" lon="9.151746680553535"><ele>372.0</ele><time>2026-04-03T09:38:32.998Z</time></trkpt><trkpt lat="45.755112330648586" lon="9.151897684135417"><ele>372.6666666666667</ele><time>2026-04-03T09:38:33.998Z</time></trkpt><trkpt lat="45.75521254766596" lon="9.152055245788667"><ele>373.33333333333337</ele><time>2026-04-03T09:38:34.998Z</time></trkpt><trkpt lat="45.75531379860028" lon="9.152220925947256"><ele>374.0</ele><time>2026-04-03T09:38:35.998Z</time></trkpt><trkpt lat="45.75541500017557" lon="9.152399441488937"><ele>374.0</ele><time>2026-04-03T09:38:36.998Z</time></trkpt><trkpt lat="45.755510849620386" lon="9.152590440210961"><ele>374.0</ele><time>2026-04-03T09:38:37.998Z</time></trkpt><trkpt lat="45.75559710267221" lon="9.152789018750372"><ele>374.0</ele><time>2026-04-03T09:38:38.998Z</time></trkpt><trkpt lat="45.755672327997154" lon="9.152976657611758"><ele>374.0</ele><time>2026-04-03T09:38:39.998Z</time></trkpt><trkpt lat="45.75574032109898" lon="9.153139334558166"><ele>374.0</ele><time>2026-04-03T09:38:40.998Z</time></trkpt><trkpt lat="45.75580212078062" lon="9.153283248971542"><ele>374.0</ele><time>2026-04-03T09:38:41.998Z</time></trkpt><trkpt lat="45.755856231729354" lon="9.153416722630555"><ele>374.0</ele><time>2026-04-03T09:38:42.998Z</time></trkpt><trkpt lat="45.75590660534235" lon="9.153544346765036"><ele>375.0</ele><time>2026-04-03T09:38:43.998Z</time></trkpt><trkpt lat="45.75595693449622" lon="9.153667450669115"><ele>376.0</ele><time>2026-04-03T09:38:44.998Z</time></trkpt><trkpt lat="45.75600615490628" lon="9.153788109287444"><ele>377.0</ele><time>2026-04-03T09:38:45.998Z</time></trkpt><trkpt lat="45.75605275276822" lon="9.15390593474583"><ele>378.0</ele><time>2026-04-03T09:38:46.998Z</time></trkpt><trkpt lat="45.75609718950742" lon="9.154018974968183"><ele>379.0</ele><time>2026-04-03T09:38:47.998Z</time></trkpt><trkpt lat="45.75613939121898" lon="9.1541231142471"><ele>379.66666666666663</ele><time>2026-04-03T09:38:48.998Z</time></trkpt><trkpt lat="45.75618113268249" lon="9.154223955462507"><ele>380.3333333333333</ele><time>2026-04-03T09:38:49.998Z</time></trkpt><trkpt lat="45.756220405089365" lon="9.154319544630631"><ele>381.0</ele><time>2026-04-03T09:38:50.998Z</time></trkpt><trkpt lat="45.75625863517084" lon="9.154415437531283"><ele>381.6666666666667</ele><time>2026-04-03T09:38:51.998Z</time></trkpt><trkpt lat="45.756299871328" lon="9.154521116091088"><ele>382.33333333333337</ele><time>2026-04-03T09:38:52.998Z</time></trkpt><trkpt lat="45.756344441635115" lon="9.154632887376962"><ele>383.0</ele><time>2026-04-03T09:38:53.998Z</time></trkpt><trkpt lat="45.75639840031494" lon="9.154761200536866"><ele>383.5</ele><time>2026-04-03T09:38:54.998Z</time></trkpt><trkpt lat="45.756458678602066" lon="9.154904474190213"><ele>384.0</ele><time>2026-04-03T09:38:55.998Z</time></trkpt><trkpt lat="45.756525530078534" lon="9.1550673263811"><ele>384.5</ele><time>2026-04-03T09:38:56.998Z</time></trkpt><trkpt lat="45.75660065665701" lon="9.155254217794301"><ele>385.0</ele><time>2026-04-03T09:38:57.998Z</time></trkpt><trkpt lat="45.75668737058532" lon="9.155464451313003"><ele>385.0</ele><time>2026-04-03T09:38:58.998Z</time></trkpt><trkpt lat="45.756772358430965" lon="9.15566490167517"><ele>385.0</ele><time>2026-04-03T09:38:59.998Z</time></trkpt><trkpt lat="45.756855447635616" lon="9.155864205016867"><ele>385.0</ele><time>2026-04-03T09:39:00.998Z</time></trkpt><trkpt lat="45.75694658478857" lon="9.156066936863915"><ele>387.6666666666667</ele><time>2026-04-03T09:39:01.998Z</time></trkpt><trkpt lat="45.75703569012386" lon="9.156280416733777"><ele>390.33333333333337</ele><time>2026-04-03T09:39:02.998Z</time></trkpt><trkpt lat="45.757126952202725" lon="9.15651040775628"><ele>393.0</ele><time>2026-04-03T09:39:03.998Z</time></trkpt><trkpt lat="45.75722584285299" lon="9.156744568385673"><ele>393.0</ele><time>2026-04-03T09:39:04.998Z</time></trkpt><trkpt lat="45.757322831656104" lon="9.156971455116143"><ele>393.0</ele><time>2026-04-03T09:39:05.998Z</time></trkpt><trkpt lat="45.75741057741789" lon="9.157181265595717"><ele>393.0</ele><time>2026-04-03T09:39:06.998Z</time></trkpt><trkpt lat="45.757504933238295" lon="9.157389564541946"><ele>394.33333333333337</ele><time>2026-04-03T09:39:07.998Z</time></trkpt><trkpt lat="45.75760134619589" lon="9.157609304483552"><ele>395.6666666666667</ele><time>2026-04-03T09:39:08.998Z</time></trkpt><trkpt lat="45.75769258532549" lon="9.157821783416987"><ele>397.0</ele><time>2026-04-03T09:39:09.998Z</time></trkpt><trkpt lat="45.757777829028875" lon="9.158015817695981"><ele>397.0</ele><time>2026-04-03T09:39:10.998Z</time></trkpt><trkpt lat="45.75786854417221" lon="9.158213027008472"><ele>397.0</ele><time>2026-04-03T09:39:11.998Z</time></trkpt><trkpt lat="45.75795854821522" lon="9.158414341669749"><ele>397.0</ele><time>2026-04-03T09:39:12.998Z</time></trkpt><trkpt lat="45.75804698798242" lon="9.158614989504178"><ele>397.0</ele><time>2026-04-03T09:39:13.998Z</time></trkpt><trkpt lat="45.758136765964466" lon="9.158816719232547"><ele>397.0</ele><time>2026-04-03T09:39:14.998Z</time></trkpt><trkpt lat="45.75822189558305" lon="9.159011024782378"><ele>397.0</ele><time>2026-04-03T09:39:15.997Z</time></trkpt><trkpt lat="45.75829779789471" lon="9.159190838127188"><ele>397.0</ele><time>2026-04-03T09:39:16.997Z</time></trkpt><trkpt lat="45.75837131503646" lon="9.159368374518545"><ele>397.0</ele><time>2026-04-03T09:39:17.997Z</time></trkpt><trkpt lat="45.758447876266196" lon="9.15954284634178"><ele>397.0</ele><time>2026-04-03T09:39:18.997Z</time></trkpt><trkpt lat="45.75852730206281" lon="9.159718210901215"><ele>397.0</ele><time>2026-04-03T09:39:19.997Z</time></trkpt><trkpt lat="45.75860564871787" lon="9.159897806195174"><ele>394.33333333333337</ele><time>2026-04-03T09:39:20.997Z</time></trkpt><trkpt lat="45.75869055116903" lon="9.160074905404723"><ele>391.66666666666663</ele><time>2026-04-03T09:39:21.997Z</time></trkpt><trkpt lat="45.75879173811312" lon="9.160238877821106"><ele>389.0</ele><time>2026-04-03T09:39:22.997Z</time></trkpt><trkpt lat="45.758922208522" lon="9.160393691024584"><ele>389.0</ele><time>2026-04-03T09:39:23.997Z</time></trkpt><trkpt lat="45.75906773997073" lon="9.16053689417831"><ele>389.0</ele><time>2026-04-03T09:39:24.997Z</time></trkpt><trkpt lat="45.759206293343084" lon="9.1606619042129"><ele>389.0</ele><time>2026-04-03T09:39:25.997Z</time></trkpt><trkpt lat="45.759337437287584" lon="9.160786730205567"><ele>385.0</ele><time>2026-04-03T09:39:26.997Z</time></trkpt><trkpt lat="45.75946396735424" lon="9.160911402940517"><ele>381.0</ele><time>2026-04-03T09:39:27.997Z</time></trkpt><trkpt lat="45.759589498413234" lon="9.161038315612231"><ele>377.0</ele><time>2026-04-03T09:39:28.997Z</time></trkpt><trkpt lat="45.75971660016015" lon="9.161167881819994"><ele>377.0</ele><time>2026-04-03T09:39:29.997Z</time></trkpt><trkpt lat="45.759852035244236" lon="9.16129974673465"><ele>377.0</ele><time>2026-04-03T09:39:30.997Z</time></trkpt><trkpt lat="45.759991848842525" lon="9.161433962862828"><ele>377.0</ele><time>2026-04-03T09:39:31.997Z</time></trkpt><trkpt lat="45.76012706555636" lon="9.161560939675093"><ele>374.75</ele><time>2026-04-03T09:39:32.997Z</time></trkpt><trkpt lat="45.760248928911274" lon="9.161682845181232"><ele>372.5</ele><time>2026-04-03T09:39:33.997Z</time></trkpt><trkpt lat="45.760367610569865" lon="9.16180640003864"><ele>370.25</ele><time>2026-04-03T09:39:34.997Z</time></trkpt><trkpt lat="45.76048333295697" lon="9.161939837527663"><ele>368.0</ele><time>2026-04-03T09:39:35.999Z</time></trkpt><trkpt lat="45.76058279114592" lon="9.16208246458144"><ele>368.0</ele><time>2026-04-03T09:39:36.999Z</time></trkpt><trkpt lat="45.76065325847178" lon="9.162215116247154"><ele>368.0</ele><time>2026-04-03T09:39:37.999Z</time></trkpt><trkpt lat="45.760690872464394" lon="9.162345035492562"><ele>368.0</ele><time>2026-04-03T09:39:38.999Z</time></trkpt><trkpt lat="45.76069841545902" lon="9.162490599564476"><ele>368.0</ele><time>2026-04-03T09:39:39.999Z</time></trkpt><trkpt lat="45.760672695341356" lon="9.162649734302533"><ele>368.0</ele><time>2026-04-03T09:39:40.999Z</time></trkpt><trkpt lat="45.760627274229826" lon="9.162813779232984"><ele>368.5</ele><time>2026-04-03T09:39:41.999Z</time></trkpt><trkpt lat="45.76056636070247" lon="9.162984793083082"><ele>369.0</ele><time>2026-04-03T09:39:42.999Z</time></trkpt><trkpt lat="45.7604882839925" lon="9.163155560272681"><ele>369.5</ele><time>2026-04-03T09:39:43.999Z</time></trkpt><trkpt lat="45.760414819000474" lon="9.163309877693289"><ele>370.0</ele><time>2026-04-03T09:39:44.999Z</time></trkpt><trkpt lat="45.76034865362976" lon="9.163464457026981"><ele>369.25</ele><time>2026-04-03T09:39:45.999Z</time></trkpt><trkpt lat="45.76028284472322" lon="9.16362433244314"><ele>368.5</ele><time>2026-04-03T09:39:46.999Z</time></trkpt><trkpt lat="45.76021393672027" lon="9.163779990142185"><ele>367.75</ele><time>2026-04-03T09:39:47.999Z</time></trkpt><trkpt lat="45.76014233766441" lon="9.163929058256395"><ele>367.0</ele><time>2026-04-03T09:39:48.999Z</time></trkpt><trkpt lat="45.760070838159116" lon="9.164079881846531"><ele>369.25</ele><time>2026-04-03T09:39:49.999Z</time></trkpt><trkpt lat="45.76000841648544" lon="9.164233595685307"><ele>371.5</ele><time>2026-04-03T09:39:50.999Z</time></trkpt><trkpt lat="45.75996521013834" lon="9.164395511482343"><ele>373.75</ele><time>2026-04-03T09:39:51.999Z</time></trkpt><trkpt lat="45.75997096277328" lon="9.164578295013408"><ele>376.0</ele><time>2026-04-03T09:39:52.999Z</time></trkpt><trkpt lat="45.760022187662905" lon="9.164736623208164"><ele>376.0</ele><time>2026-04-03T09:39:53.999Z</time></trkpt><trkpt lat="45.76010266367678" lon="9.164858072915585"><ele>376.0</ele><time>2026-04-03T09:39:54.999Z</time></trkpt><trkpt lat="45.76021161240891" lon="9.164935911854466"><ele>376.0</ele><time>2026-04-03T09:39:55.999Z</time></trkpt><trkpt lat="45.76032294693579" lon="9.16498350946176"><ele>376.0</ele><time>2026-04-03T09:39:56.999Z</time></trkpt><trkpt lat="45.76043999687894" lon="9.165021564212552"><ele>379.0</ele><time>2026-04-03T09:39:57.999Z</time></trkpt><trkpt lat="45.760573850016954" lon="9.165045511287472"><ele>382.0</ele><time>2026-04-03T09:39:58.999Z</time></trkpt><trkpt lat="45.760716396102985" lon="9.165078606921012"><ele>385.0</ele><time>2026-04-03T09:39:59.999Z</time></trkpt><trkpt lat="45.76084964742376" lon="9.165125183479619"><ele>388.0</ele><time>2026-04-03T09:40:00.999Z</time></trkpt><trkpt lat="45.76095384256653" lon="9.16518488142557"><ele>389.0</ele><time>2026-04-03T09:40:01.999Z</time></trkpt><trkpt lat="45.76105078645271" lon="9.1652791141124"><ele>390.0</ele><time>2026-04-03T09:40:02.999Z</time></trkpt><trkpt lat="45.76113294492148" lon="9.165422653211335"><ele>391.0</ele><time>2026-04-03T09:40:03.999Z</time></trkpt><trkpt lat="45.76119247055318" lon="9.165613349389396"><ele>392.0</ele><time>2026-04-03T09:40:04.999Z</time></trkpt><trkpt lat="45.76121966718223" lon="9.165833436224938"><ele>392.66666666666663</ele><time>2026-04-03T09:40:05.999Z</time></trkpt><trkpt lat="45.76122953027106" lon="9.16605946893061"><ele>393.33333333333337</ele><time>2026-04-03T09:40:06.999Z</time></trkpt><trkpt lat="45.76125133169343" lon="9.16627978803293"><ele>394.0</ele><time>2026-04-03T09:40:07.999Z</time></trkpt><trkpt lat="45.76127923126589" lon="9.166510577902208"><ele>392.33333333333337</ele><time>2026-04-03T09:40:08.999Z</time></trkpt><trkpt lat="45.76129912006048" lon="9.166746245401315"><ele>390.66666666666663</ele><time>2026-04-03T09:40:09.999Z</time></trkpt><trkpt lat="45.76131683676655" lon="9.166980085927124"><ele>389.0</ele><time>2026-04-03T09:40:10.999Z</time></trkpt><trkpt lat="45.761337179735214" lon="9.167205707813913"><ele>387.5</ele><time>2026-04-03T09:40:11.999Z</time></trkpt><trkpt lat="45.76135588644005" lon="9.16741141133226"><ele>386.0</ele><time>2026-04-03T09:40:12.999Z</time></trkpt><trkpt lat="45.76137322615448" lon="9.16760616643833"><ele>384.5</ele><time>2026-04-03T09:40:13.999Z</time></trkpt><trkpt lat="45.761388528749926" lon="9.167814365664515"><ele>383.0</ele><time>2026-04-03T09:40:14.999Z</time></trkpt><trkpt lat="45.76140257965602" lon="9.168030971384319"><ele>383.6666666666667</ele><time>2026-04-03T09:40:15.999Z</time></trkpt><trkpt lat="45.76142247302911" lon="9.168247830077043"><ele>384.33333333333337</ele><time>2026-04-03T09:40:16.999Z</time></trkpt><trkpt lat="45.761443655848886" lon="9.168462037822815"><ele>385.0</ele><time>2026-04-03T09:40:17.999Z</time></trkpt><trkpt lat="45.761461588865515" lon="9.168669945935687"><ele>385.0</ele><time>2026-04-03T09:40:18.999Z</time></trkpt><trkpt lat="45.76147530756642" lon="9.168868403903687"><ele>385.0</ele><time>2026-04-03T09:40:19.999Z</time></trkpt><trkpt lat="45.761489542775685" lon="9.169067743484753"><ele>385.0</ele><time>2026-04-03T09:40:20.999Z</time></trkpt><trkpt lat="45.76150675021795" lon="9.16927603506841"><ele>385.0</ele><time>2026-04-03T09:40:21.999Z</time></trkpt><trkpt lat="45.7615240392472" lon="9.169482882155197"><ele>385.25</ele><time>2026-04-03T09:40:22.999Z</time></trkpt><trkpt lat="45.7615401801159" lon="9.16968756252138"><ele>385.5</ele><time>2026-04-03T09:40:23.999Z</time></trkpt><trkpt lat="45.76155662897152" lon="9.169890712794892"><ele>385.75</ele><time>2026-04-03T09:40:24.999Z</time></trkpt><trkpt lat="45.76157222405487" lon="9.170093148178145"><ele>386.0</ele><time>2026-04-03T09:40:25.999Z</time></trkpt><trkpt lat="45.7615872731679" lon="9.170290158535023"><ele>386.5</ele><time>2026-04-03T09:40:26.999Z</time></trkpt><trkpt lat="45.76160179145018" lon="9.170483960044175"><ele>387.0</ele><time>2026-04-03T09:40:27.999Z</time></trkpt><trkpt lat="45.761615320749826" lon="9.170673159128116"><ele>387.5</ele><time>2026-04-03T09:40:28.999Z</time></trkpt><trkpt lat="45.76162921525418" lon="9.170859731300196"><ele>388.0</ele><time>2026-04-03T09:40:29.999Z</time></trkpt><trkpt lat="45.76164399335802" lon="9.171045660758358"><ele>389.25</ele><time>2026-04-03T09:40:30.999Z</time></trkpt><trkpt lat="45.761660856880056" lon="9.171225221044516"><ele>390.5</ele><time>2026-04-03T09:40:31.999Z</time></trkpt><trkpt lat="45.761678253783515" lon="9.17140714453354"><ele>391.75</ele><time>2026-04-03T09:40:32.999Z</time></trkpt><trkpt lat="45.761694050411144" lon="9.171591308147201"><ele>393.0</ele><time>2026-04-03T09:40:33.999Z</time></trkpt><trkpt lat="45.761709151021286" lon="9.171780927241329"><ele>392.5</ele><time>2026-04-03T09:40:34.999Z</time></trkpt><trkpt lat="45.761729166179286" lon="9.171968236574099"><ele>392.0</ele><time>2026-04-03T09:40:35.999Z</time></trkpt><trkpt lat="45.76175952835438" lon="9.172135396607354"><ele>391.5</ele><time>2026-04-03T09:40:36.999Z</time></trkpt><trkpt lat="45.76180896535998" lon="9.172311631427883"><ele>391.0</ele><time>2026-04-03T09:40:37.999Z</time></trkpt><trkpt lat="45.761882692222976" lon="9.172490350045052"><ele>391.0</ele><time>2026-04-03T09:40:38.999Z</time></trkpt><trkpt lat="45.76197038374657" lon="9.172659285797922"><ele>391.0</ele><time>2026-04-03T09:40:39.999Z</time></trkpt><trkpt lat="45.762075752274754" lon="9.172811277451649"><ele>391.0</ele><time>2026-04-03T09:40:40.999Z</time></trkpt><trkpt lat="45.76219238560659" lon="9.17294241079224"><ele>391.0</ele><time>2026-04-03T09:40:41.999Z</time></trkpt><trkpt lat="45.762312626641325" lon="9.173043685471214"><ele>391.0</ele><time>2026-04-03T09:40:42.998Z</time></trkpt><trkpt lat="45.76243438814935" lon="9.173118784867064"><ele>391.0</ele><time>2026-04-03T09:40:43.998Z</time></trkpt><trkpt lat="45.76256131619816" lon="9.173182382125036"><ele>391.0</ele><time>2026-04-03T09:40:44.998Z</time></trkpt><trkpt lat="45.76268989055996" lon="9.173238632372465"><ele>391.0</ele><time>2026-04-03T09:40:45.998Z</time></trkpt><trkpt lat="45.76279569597154" lon="9.173283630594225"><ele>387.8</ele><time>2026-04-03T09:40:46.998Z</time></trkpt><trkpt lat="45.76289148038958" lon="9.173326400022669"><ele>384.6</ele><time>2026-04-03T09:40:47.998Z</time></trkpt><trkpt lat="45.762992277982306" lon="9.17337350215498"><ele>381.4</ele><time>2026-04-03T09:40:48.998Z</time></trkpt><trkpt lat="45.76310179692693" lon="9.173426726131796"><ele>378.2</ele><time>2026-04-03T09:40:49.998Z</time></trkpt><trkpt lat="45.76320784998485" lon="9.173480198688486"><ele>375.0</ele><time>2026-04-03T09:40:50.998Z</time></trkpt><trkpt lat="45.763318603889694" lon="9.173549189451341"><ele>375.0</ele><time>2026-04-03T09:40:51.998Z</time></trkpt><trkpt lat="45.763424632203034" lon="9.17364647772624"><ele>375.0</ele><time>2026-04-03T09:40:52.998Z</time></trkpt><trkpt lat="45.763525314337876" lon="9.173767529465893"><ele>375.0</ele><time>2026-04-03T09:40:53.998Z</time></trkpt><trkpt lat="45.763618652155856" lon="9.17390840923817"><ele>375.0</ele><time>2026-04-03T09:40:54.998Z</time></trkpt><trkpt lat="45.76370779061616" lon="9.174064039062227"><ele>372.3333333333333</ele><time>2026-04-03T09:40:55.998Z</time></trkpt><trkpt lat="45.76380397215449" lon="9.174224293982807"><ele>369.66666666666663</ele><time>2026-04-03T09:40:56.998Z</time></trkpt><trkpt lat="45.763903500631336" lon="9.174386673729922"><ele>367.0</ele><time>2026-04-03T09:40:57.998Z</time></trkpt><trkpt lat="45.76400684606134" lon="9.174546469673636"><ele>367.0</ele><time>2026-04-03T09:40:58.998Z</time></trkpt><trkpt lat="45.764108477463935" lon="9.174708683659384"><ele>367.0</ele><time>2026-04-03T09:40:59.998Z</time></trkpt><trkpt lat="45.764210362448516" lon="9.174870150876016"><ele>367.0</ele><time>2026-04-03T09:41:00.998Z</time></trkpt><trkpt lat="45.76432119256224" lon="9.175019479174116"><ele>365.66666666666663</ele><time>2026-04-03T09:41:01.998Z</time></trkpt><trkpt lat="45.76445619053339" lon="9.175145499404731"><ele>364.3333333333333</ele><time>2026-04-03T09:41:02.998Z</time></trkpt><trkpt lat="45.76460696238383" lon="9.175237753190677"><ele>363.0</ele><time>2026-04-03T09:41:03.998Z</time></trkpt><trkpt lat="45.764771101364076" lon="9.175284388073345"><ele>363.0</ele><time>2026-04-03T09:41:04.998Z</time></trkpt><trkpt lat="45.76495168466661" lon="9.175287024226117"><ele>363.0</ele><time>2026-04-03T09:41:05.998Z</time></trkpt><trkpt lat="45.76514005585695" lon="9.1752689097542"><ele>363.0</ele><time>2026-04-03T09:41:06.998Z</time></trkpt><trkpt lat="45.76531502667642" lon="9.175253564493698"><ele>361.6666666666667</ele><time>2026-04-03T09:41:07.998Z</time></trkpt><trkpt lat="45.76547543151815" lon="9.175241038661776"><ele>360.33333333333337</ele><time>2026-04-03T09:41:08.998Z</time></trkpt><trkpt lat="45.76562780050483" lon="9.175242892540766"><ele>359.0</ele><time>2026-04-03T09:41:09.998Z</time></trkpt><trkpt lat="45.76578640993212" lon="9.175260042470708"><ele>359.0</ele><time>2026-04-03T09:41:10.998Z</time></trkpt><trkpt lat="45.76594290398521" lon="9.175290486852363"><ele>359.0</ele><time>2026-04-03T09:41:11.998Z</time></trkpt><trkpt lat="45.76609518180507" lon="9.175371253975145"><ele>359.0</ele><time>2026-04-03T09:41:12.998Z</time></trkpt><trkpt lat="45.766241421660354" lon="9.175494929392514"><ele>356.0</ele><time>2026-04-03T09:41:13.998Z</time></trkpt><trkpt lat="45.76637519584316" lon="9.175642828010714"><ele>353.0</ele><time>2026-04-03T09:41:14.998Z</time></trkpt><trkpt lat="45.76649365348806" lon="9.175842000990835"><ele>350.0</ele><time>2026-04-03T09:41:15.998Z</time></trkpt><trkpt lat="45.76657233251145" lon="9.176106175097388"><ele>348.6666666666667</ele><time>2026-04-03T09:41:16.998Z</time></trkpt><trkpt lat="45.76664823964875" lon="9.176384300186376"><ele>347.3333333333333</ele><time>2026-04-03T09:41:17.998Z</time></trkpt><trkpt lat="45.76673779226375" lon="9.176672240229871"><ele>346.0</ele><time>2026-04-03T09:41:18.998Z</time></trkpt><trkpt lat="45.76680573039352" lon="9.176919870047294"><ele>346.0</ele><time>2026-04-03T09:41:19.998Z</time></trkpt><trkpt lat="45.76686062657584" lon="9.17714525793531"><ele>346.0</ele><time>2026-04-03T09:41:20.998Z</time></trkpt><trkpt lat="45.766921837020995" lon="9.17736965855808"><ele>346.0</ele><time>2026-04-03T09:41:21.998Z</time></trkpt><trkpt lat="45.7669833276566" lon="9.17758345311779"><ele>347.0</ele><time>2026-04-03T09:41:22.998Z</time></trkpt><trkpt lat="45.76703982138658" lon="9.17778325434164"><ele>348.0</ele><time>2026-04-03T09:41:23.998Z</time></trkpt><trkpt lat="45.76709232176003" lon="9.177983086244609"><ele>349.0</ele><time>2026-04-03T09:41:24.998Z</time></trkpt><trkpt lat="45.76714986945619" lon="9.178191625028202"><ele>349.0</ele><time>2026-04-03T09:41:25.998Z</time></trkpt><trkpt lat="45.76721068163877" lon="9.178399691569014"><ele>349.0</ele><time>2026-04-03T09:41:26.998Z</time></trkpt><trkpt lat="45.767265834647226" lon="9.178601601146354"><ele>349.0</ele><time>2026-04-03T09:41:27.998Z</time></trkpt><trkpt lat="45.76732587516065" lon="9.178807848453351"><ele>349.0</ele><time>2026-04-03T09:41:28.998Z</time></trkpt><trkpt lat="45.76737429406466" lon="9.178996246439073"><ele>349.0</ele><time>2026-04-03T09:41:29.998Z</time></trkpt><trkpt lat="45.76741302722209" lon="9.17917483153746"><ele>349.0</ele><time>2026-04-03T09:41:30.998Z</time></trkpt><trkpt lat="45.76744674233769" lon="9.17934636509864"><ele>349.0</ele><time>2026-04-03T09:41:31.998Z</time></trkpt><trkpt lat="45.767484655020546" lon="9.179535504099224"><ele>349.3333333333333</ele><time>2026-04-03T09:41:32.998Z</time></trkpt><trkpt lat="45.76754576077051" lon="9.179732004110154"><ele>349.6666666666667</ele><time>2026-04-03T09:41:33.998Z</time></trkpt><trkpt lat="45.767641356666566" lon="9.179901648003892"><ele>350.0</ele><time>2026-04-03T09:41:34.998Z</time></trkpt><trkpt lat="45.76775494384404" lon="9.180067480772317"><ele>350.75</ele><time>2026-04-03T09:41:35.998Z</time></trkpt><trkpt lat="45.76786783021798" lon="9.180210892684304"><ele>351.5</ele><time>2026-04-03T09:41:36.998Z</time></trkpt><trkpt lat="45.76796691397462" lon="9.180332510886034"><ele>352.25</ele><time>2026-04-03T09:41:37.998Z</time></trkpt><trkpt lat="45.768060747237186" lon="9.18045105842403"><ele>353.0</ele><time>2026-04-03T09:41:38.998Z</time></trkpt><trkpt lat="45.768149833630865" lon="9.180569588267586"><ele>352.75</ele><time>2026-04-03T09:41:39.998Z</time></trkpt><trkpt lat="45.768238180986536" lon="9.180689579485476"><ele>352.5</ele><time>2026-04-03T09:41:40.997Z</time></trkpt><trkpt lat="45.76832945050091" lon="9.180809139130881"><ele>352.25</ele><time>2026-04-03T09:41:41.999Z</time></trkpt><trkpt lat="45.7684208725298" lon="9.180926254530638"><ele>352.0</ele><time>2026-04-03T09:41:42.999Z</time></trkpt><trkpt lat="45.76850867072557" lon="9.181043867754545"><ele>352.0</ele><time>2026-04-03T09:41:43.999Z</time></trkpt><trkpt lat="45.76858753741915" lon="9.181148221092942"><ele>352.0</ele><time>2026-04-03T09:41:44.999Z</time></trkpt><trkpt lat="45.76866055902567" lon="9.181245668244967"><ele>352.0</ele><time>2026-04-03T09:41:45.999Z</time></trkpt><trkpt lat="45.768732897074095" lon="9.181339251900118"><ele>352.0</ele><time>2026-04-03T09:41:46.999Z</time></trkpt><trkpt lat="45.76880906591199" lon="9.181439645318793"><ele>352.0</ele><time>2026-04-03T09:41:47.999Z</time></trkpt><trkpt lat="45.768886962588994" lon="9.181539111738147"><ele>352.20000000000005</ele><time>2026-04-03T09:41:48.999Z</time></trkpt><trkpt lat="45.7689632326173" lon="9.181636957114387"><ele>352.4</ele><time>2026-04-03T09:41:49.999Z</time></trkpt><trkpt lat="45.76903883934283" lon="9.181737360557044"><ele>352.6</ele><time>2026-04-03T09:41:50.999Z</time></trkpt><trkpt lat="45.76911197170666" lon="9.181836158654576"><ele>352.79999999999995</ele><time>2026-04-03T09:41:51.999Z</time></trkpt><trkpt lat="45.769181832366094" lon="9.181937128548617"><ele>353.0</ele><time>2026-04-03T09:41:52.999Z</time></trkpt><trkpt lat="45.76924456404158" lon="9.18203034843461"><ele>353.0</ele><time>2026-04-03T09:41:53.999Z</time></trkpt><trkpt lat="45.76929682821177" lon="9.182111759030706"><ele>353.0</ele><time>2026-04-03T09:41:54.999Z</time></trkpt><trkpt lat="45.769345459121034" lon="9.182185905773723"><ele>353.0</ele><time>2026-04-03T09:41:55.999Z</time></trkpt><trkpt lat="45.76939563474588" lon="9.182269396436576"><ele>353.0</ele><time>2026-04-03T09:41:56.999Z</time></trkpt><trkpt lat="45.76944225548051" lon="9.182364813082312"><ele>353.0</ele><time>2026-04-03T09:41:57.999Z</time></trkpt><trkpt lat="45.76947094795354" lon="9.18248103890199"><ele>353.0</ele><time>2026-04-03T09:41:58.999Z</time></trkpt><trkpt lat="45.7694786855725" lon="9.182585281034486"><ele>353.59999999999997</ele><time>2026-04-03T09:41:59.999Z</time></trkpt><trkpt lat="45.76949071418697" lon="9.182733982215257"><ele>354.2</ele><time>2026-04-03T09:42:01.999Z</time></trkpt><trkpt lat="45.7696000068618" lon="9.182825924941868"><ele>354.8</ele><time>2026-04-03T09:42:03.999Z</time></trkpt><trkpt lat="45.76969788666421" lon="9.182830329072296"><ele>355.4</ele><time>2026-04-03T09:42:04.999Z</time></trkpt><trkpt lat="45.769792779217106" lon="9.182849110256479"><ele>356.0</ele><time>2026-04-03T09:42:05.999Z</time></trkpt><trkpt lat="45.76988311440916" lon="9.182901875966799"><ele>356.0</ele><time>2026-04-03T09:42:06.999Z</time></trkpt><trkpt lat="45.769966724978374" lon="9.182958978318991"><ele>356.0</ele><time>2026-04-03T09:42:07.999Z</time></trkpt><trkpt lat="45.770050669228446" lon="9.183006878432845"><ele>356.0</ele><time>2026-04-03T09:42:08.999Z</time></trkpt><trkpt lat="45.77011579582655" lon="9.183055861247208"><ele>356.0</ele><time>2026-04-03T09:42:10.999Z</time></trkpt><trkpt lat="45.770177010307386" lon="9.183100498020666"><ele>356.0</ele><time>2026-04-03T09:42:12.999Z</time></trkpt><trkpt lat="45.77029245460725" lon="9.183194938195605"><ele>356.4</ele><time>2026-04-03T09:42:14.999Z</time></trkpt><trkpt lat="45.77036104646261" lon="9.183252637610487"><ele>356.8</ele><time>2026-04-03T09:42:15.999Z</time></trkpt><trkpt lat="45.77042574224284" lon="9.183301293785938"><ele>357.2</ele><time>2026-04-03T09:42:16.999Z</time></trkpt><trkpt lat="45.77057091781452" lon="9.183408370723706"><ele>357.59999999999997</ele><time>2026-04-03T09:42:18.999Z</time></trkpt><trkpt lat="45.77064629065111" lon="9.18346586216109"><ele>358.0</ele><time>2026-04-03T09:42:19.999Z</time></trkpt><trkpt lat="45.77073453814172" lon="9.18353010144263"><ele>358.0</ele><time>2026-04-03T09:42:20.999Z</time></trkpt><trkpt lat="45.77083618812321" lon="9.183598255702226"><ele>358.0</ele><time>2026-04-03T09:42:21.999Z</time></trkpt><trkpt lat="45.77094176985292" lon="9.1836718564448"><ele>358.0</ele><time>2026-04-03T09:42:22.999Z</time></trkpt><trkpt lat="45.771152980461835" lon="9.183830454064553"><ele>359.0</ele><time>2026-04-03T09:42:24.999Z</time></trkpt><trkpt lat="45.77125329055352" lon="9.183903120390235"><ele>360.0</ele><time>2026-04-03T09:42:25.999Z</time></trkpt><trkpt lat="45.77135002084238" lon="9.183971468497468"><ele>361.0</ele><time>2026-04-03T09:42:26.999Z</time></trkpt><trkpt lat="45.7714509826512" lon="9.184045703845367"><ele>362.0</ele><time>2026-04-03T09:42:27.999Z</time></trkpt><trkpt lat="45.77156214416557" lon="9.184122280698473"><ele>362.75</ele><time>2026-04-03T09:42:28.999Z</time></trkpt><trkpt lat="45.77168314821921" lon="9.184205388122493"><ele>363.5</ele><time>2026-04-03T09:42:29.999Z</time></trkpt><trkpt lat="45.77180305026442" lon="9.184284033528742"><ele>364.25</ele><time>2026-04-03T09:42:30.999Z</time></trkpt><trkpt lat="45.77192147261644" lon="9.184375974667624"><ele>365.0</ele><time>2026-04-03T09:42:31.999Z</time></trkpt><trkpt lat="45.772048247465285" lon="9.184471011460444"><ele>365.0</ele><time>2026-04-03T09:42:32.999Z</time></trkpt><trkpt lat="45.772197067845504" lon="9.184558063201107"><ele>365.0</ele><time>2026-04-03T09:42:33.999Z</time></trkpt><trkpt lat="45.772376477405366" lon="9.184624302310912"><ele>365.0</ele><time>2026-04-03T09:42:34.999Z</time></trkpt><trkpt lat="45.77259662957861" lon="9.184635245250794"><ele>365.6666666666667</ele><time>2026-04-03T09:42:35.999Z</time></trkpt><trkpt lat="45.77281199529457" lon="9.184667440761658"><ele>366.3333333333333</ele><time>2026-04-03T09:42:36.999Z</time></trkpt><trkpt lat="45.773020728029216" lon="9.184678616183287"><ele>367.0</ele><time>2026-04-03T09:42:37.999Z</time></trkpt><trkpt lat="45.773192614478795" lon="9.184686944716768"><ele>367.0</ele><time>2026-04-03T09:42:38.999Z</time></trkpt><trkpt lat="45.77335129413684" lon="9.184673947381192"><ele>367.0</ele><time>2026-04-03T09:42:39.999Z</time></trkpt><trkpt lat="45.77350708763426" lon="9.184682160145165"><ele>367.0</ele><time>2026-04-03T09:42:40.999Z</time></trkpt><trkpt lat="45.77364214880869" lon="9.184696546747125"><ele>369.0</ele><time>2026-04-03T09:42:41.999Z</time></trkpt><trkpt lat="45.77378009122415" lon="9.184706263890286"><ele>371.0</ele><time>2026-04-03T09:42:42.999Z</time></trkpt><trkpt lat="45.773917476659406" lon="9.184749020014202"><ele>373.0</ele><time>2026-04-03T09:42:43.999Z</time></trkpt><trkpt lat="45.774054694234245" lon="9.184818279100751"><ele>375.0</ele><time>2026-04-03T09:42:44.999Z</time></trkpt><trkpt lat="45.77418708414538" lon="9.184913713071824"><ele>375.0</ele><time>2026-04-03T09:42:45.999Z</time></trkpt><trkpt lat="45.77430927764459" lon="9.18503689379194"><ele>375.0</ele><time>2026-04-03T09:42:46.999Z</time></trkpt><trkpt lat="45.77441471042035" lon="9.185185910292471"><ele>375.0</ele><time>2026-04-03T09:42:47.999Z</time></trkpt><trkpt lat="45.77451018624653" lon="9.185356372219179"><ele>377.75</ele><time>2026-04-03T09:42:48.999Z</time></trkpt><trkpt lat="45.77459756741086" lon="9.185534238940333"><ele>380.5</ele><time>2026-04-03T09:42:49.999Z</time></trkpt><trkpt lat="45.774682430430325" lon="9.185706374814378"><ele>383.25</ele><time>2026-04-03T09:42:50.999Z</time></trkpt><trkpt lat="45.774762074497104" lon="9.185857064630275"><ele>386.0</ele><time>2026-04-03T09:42:51.999Z</time></trkpt><trkpt lat="45.77483969812068" lon="9.185997975594606"><ele>386.0</ele><time>2026-04-03T09:42:52.998Z</time></trkpt><trkpt lat="45.774919134673965" lon="9.186115432508522"><ele>386.0</ele><time>2026-04-03T09:42:53.998Z</time></trkpt><trkpt lat="45.775015722843385" lon="9.186219005993976"><ele>386.0</ele><time>2026-04-03T09:42:54.998Z</time></trkpt><trkpt lat="45.77512754830698" lon="9.186306504124055"><ele>386.0</ele><time>2026-04-03T09:42:55.998Z</time></trkpt><trkpt lat="45.77524738422205" lon="9.186372661731705"><ele>385.5</ele><time>2026-04-03T09:42:56.998Z</time></trkpt><trkpt lat="45.77534086206543" lon="9.186385315912004"><ele>385.0</ele><time>2026-04-03T09:42:57.998Z</time></trkpt><trkpt lat="45.77544149125582" lon="9.186382503547884"><ele>384.5</ele><time>2026-04-03T09:42:58.998Z</time></trkpt><trkpt lat="45.77553995367154" lon="9.18640253977636"><ele>384.0</ele><time>2026-04-03T09:42:59.998Z</time></trkpt><trkpt lat="45.77571265046729" lon="9.186342084131253"><ele>384.0</ele><time>2026-04-03T09:43:00.998Z</time></trkpt><trkpt lat="45.77589755565609" lon="9.186263802500859"><ele>384.0</ele><time>2026-04-03T09:43:01.998Z</time></trkpt><trkpt lat="45.77612069629013" lon="9.186144674722065"><ele>384.0</ele><time>2026-04-03T09:43:02.998Z</time></trkpt><trkpt lat="45.776332978899575" lon="9.186032170552917"><ele>380.0</ele><time>2026-04-03T09:43:03.998Z</time></trkpt><trkpt lat="45.77653606702851" lon="9.185899790540208"><ele>376.0</ele><time>2026-04-03T09:43:04.998Z</time></trkpt><trkpt lat="45.77673946316587" lon="9.185817156449229"><ele>372.0</ele><time>2026-04-03T09:43:05.998Z</time></trkpt><trkpt lat="45.776909430971784" lon="9.185728112877777"><ele>372.3333333333333</ele><time>2026-04-03T09:43:06.998Z</time></trkpt><trkpt lat="45.77706734425217" lon="9.185649180696721"><ele>372.66666666666663</ele><time>2026-04-03T09:43:07.998Z</time></trkpt><trkpt lat="45.777231007138184" lon="9.185586749520668"><ele>373.0</ele><time>2026-04-03T09:43:08.998Z</time></trkpt><trkpt lat="45.777395388519864" lon="9.185549633127481"><ele>373.0</ele><time>2026-04-03T09:43:09.998Z</time></trkpt><trkpt lat="45.777540224364856" lon="9.185526562546423"><ele>373.0</ele><time>2026-04-03T09:43:10.998Z</time></trkpt><trkpt lat="45.77766315588224" lon="9.185544124582455"><ele>373.0</ele><time>2026-04-03T09:43:11.998Z</time></trkpt><trkpt lat="45.7777650534413" lon="9.185566574033336"><ele>373.0</ele><time>2026-04-03T09:43:12.998Z</time></trkpt><trkpt lat="45.77785438225234" lon="9.185594272342412"><ele>373.0</ele><time>2026-04-03T09:43:13.998Z</time></trkpt><trkpt lat="45.777926924333634" lon="9.18564426790579"><ele>373.0</ele><time>2026-04-03T09:43:14.998Z</time></trkpt><trkpt lat="45.77800074149997" lon="9.185702124172686"><ele>373.0</ele><time>2026-04-03T09:43:15.998Z</time></trkpt><trkpt lat="45.778023629921584" lon="9.185887414540467"><ele>373.0</ele><time>2026-04-03T09:43:16.998Z</time></trkpt><trkpt lat="45.77803466613575" lon="9.186083446003224"><ele>373.0</ele><time>2026-04-03T09:43:17.998Z</time></trkpt><trkpt lat="45.778026819606836" lon="9.186294601042379"><ele>372.0</ele><time>2026-04-03T09:43:18.998Z</time></trkpt><trkpt lat="45.7780190410355" lon="9.18645874408985"><ele>371.0</ele><time>2026-04-03T09:43:19.998Z</time></trkpt><trkpt lat="45.778024291051665" lon="9.186608237834742"><ele>370.0</ele><time>2026-04-03T09:43:20.998Z</time></trkpt><trkpt lat="45.77801960203115" lon="9.186775911336317"><ele>369.0</ele><time>2026-04-03T09:43:21.998Z</time></trkpt><trkpt lat="45.778002946445156" lon="9.18695573529146"><ele>368.0</ele><time>2026-04-03T09:43:22.998Z</time></trkpt><trkpt lat="45.7779759832649" lon="9.18713927712116"><ele>367.0</ele><time>2026-04-03T09:43:23.998Z</time></trkpt><trkpt lat="45.777935822926516" lon="9.187314923836121"><ele>366.0</ele><time>2026-04-03T09:43:24.998Z</time></trkpt><trkpt lat="45.777882178233256" lon="9.187490219976059"><ele>365.0</ele><time>2026-04-03T09:43:25.998Z</time></trkpt><trkpt lat="45.77781648619468" lon="9.187663877094018"><ele>363.33333333333337</ele><time>2026-04-03T09:43:26.998Z</time></trkpt><trkpt lat="45.77773589106994" lon="9.187836003045172"><ele>361.6666666666667</ele><time>2026-04-03T09:43:27.998Z</time></trkpt><trkpt lat="45.77764067122124" lon="9.188006114355893"><ele>360.0</ele><time>2026-04-03T09:43:28.998Z</time></trkpt><trkpt lat="45.77753814623253" lon="9.18818848216873"><ele>358.3333333333333</ele><time>2026-04-03T09:43:29.998Z</time></trkpt><trkpt lat="45.777433457417764" lon="9.188391438326251"><ele>356.66666666666663</ele><time>2026-04-03T09:43:30.998Z</time></trkpt><trkpt lat="45.777337403868565" lon="9.188589344110447"><ele>355.0</ele><time>2026-04-03T09:43:31.998Z</time></trkpt><trkpt lat="45.77724955427988" lon="9.18877723722317"><ele>355.0</ele><time>2026-04-03T09:43:32.998Z</time></trkpt><trkpt lat="45.777175636891315" lon="9.188985492966712"><ele>355.0</ele><time>2026-04-03T09:43:33.998Z</time></trkpt><trkpt lat="45.77711561990695" lon="9.18921599949066"><ele>355.0</ele><time>2026-04-03T09:43:34.998Z</time></trkpt><trkpt lat="45.77706513349982" lon="9.189442537239394"><ele>352.66666666666663</ele><time>2026-04-03T09:43:35.998Z</time></trkpt><trkpt lat="45.77701967264681" lon="9.189684436135739"><ele>350.3333333333333</ele><time>2026-04-03T09:43:36.998Z</time></trkpt><trkpt lat="45.7769729870669" lon="9.189952329055043"><ele>348.0</ele><time>2026-04-03T09:43:37.998Z</time></trkpt><trkpt lat="45.776934946118516" lon="9.190240640411941"><ele>347.0</ele><time>2026-04-03T09:43:38.998Z</time></trkpt><trkpt lat="45.77689808916938" lon="9.190517415790781"><ele>346.0</ele><time>2026-04-03T09:43:39.998Z</time></trkpt><trkpt lat="45.77685569768899" lon="9.19076621391651"><ele>345.0</ele><time>2026-04-03T09:43:40.998Z</time></trkpt><trkpt lat="45.77681197921393" lon="9.190995863551775"><ele>345.0</ele><time>2026-04-03T09:43:41.998Z</time></trkpt><trkpt lat="45.77676814261909" lon="9.191212213262968"><ele>345.0</ele><time>2026-04-03T09:43:42.998Z</time></trkpt><trkpt lat="45.77670841817985" lon="9.191411157761031"><ele>345.0</ele><time>2026-04-03T09:43:43.998Z</time></trkpt><trkpt lat="45.776623201865085" lon="9.191601280445123"><ele>343.6666666666667</ele><time>2026-04-03T09:43:44.998Z</time></trkpt><trkpt lat="45.7765228843943" lon="9.191789492936874"><ele>342.33333333333337</ele><time>2026-04-03T09:43:45.998Z</time></trkpt><trkpt lat="45.776405837831724" lon="9.191967410556115"><ele>341.0</ele><time>2026-04-03T09:43:46.999Z</time></trkpt><trkpt lat="45.776270603906966" lon="9.192126360842822"><ele>341.0</ele><time>2026-04-03T09:43:47.999Z</time></trkpt><trkpt lat="45.77611673090357" lon="9.192265654135422"><ele>341.0</ele><time>2026-04-03T09:43:48.999Z</time></trkpt><trkpt lat="45.77596162682607" lon="9.192391169685841"><ele>341.0</ele><time>2026-04-03T09:43:49.999Z</time></trkpt><trkpt lat="45.775818315620945" lon="9.192509451002241"><ele>340.0</ele><time>2026-04-03T09:43:50.999Z</time></trkpt><trkpt lat="45.77568370054627" lon="9.192620763245621"><ele>339.0</ele><time>2026-04-03T09:43:51.999Z</time></trkpt><trkpt lat="45.77556038071397" lon="9.192719942138753"><ele>338.0</ele><time>2026-04-03T09:43:52.999Z</time></trkpt><trkpt lat="45.77544743674797" lon="9.192811887047794"><ele>337.0</ele><time>2026-04-03T09:43:53.999Z</time></trkpt><trkpt lat="45.7753400604307" lon="9.192897632511484"><ele>337.0</ele><time>2026-04-03T09:43:54.999Z</time></trkpt><trkpt lat="45.77523284574334" lon="9.192976358978436"><ele>337.0</ele><time>2026-04-03T09:43:55.999Z</time></trkpt><trkpt lat="45.77512604783457" lon="9.193060286938488"><ele>337.0</ele><time>2026-04-03T09:43:56.999Z</time></trkpt><trkpt lat="45.77504675646711" lon="9.193136852028244"><ele>337.0</ele><time>2026-04-03T09:43:57.999Z</time></trkpt><trkpt lat="45.77498954652413" lon="9.193217936875728"><ele>337.0</ele><time>2026-04-03T09:43:58.999Z</time></trkpt><trkpt lat="45.77494637991713" lon="9.193300114260209"><ele>335.8</ele><time>2026-04-03T09:43:59.999Z</time></trkpt><trkpt lat="45.77492692710173" lon="9.193394662113306"><ele>334.6</ele><time>2026-04-03T09:44:00.999Z</time></trkpt><trkpt lat="45.774921299617624" lon="9.193523630423748"><ele>333.40000000000003</ele><time>2026-04-03T09:44:02.999Z</time></trkpt><trkpt lat="45.77491094489336" lon="9.193613558339647"><ele>332.20000000000005</ele><time>2026-04-03T09:44:05.999Z</time></trkpt><trkpt lat="45.7748874775726" lon="9.193725782113036"><ele>331.0</ele><time>2026-04-03T09:44:46.999Z</time></trkpt><trkpt lat="45.77507283254487" lon="9.193886509903793"><ele>331.0</ele><time>2026-04-03T09:44:49.999Z</time></trkpt><trkpt lat="45.77518195908538" lon="9.193884185439275"><ele>331.0</ele><time>2026-04-03T09:44:50.999Z</time></trkpt><trkpt lat="45.775328512089565" lon="9.193880823754185"><ele>331.0</ele><time>2026-04-03T09:44:51.999Z</time></trkpt><trkpt lat="45.77550159549947" lon="9.19390820093361"><ele>331.0</ele><time>2026-04-03T09:44:52.999Z</time></trkpt><trkpt lat="45.77569186501833" lon="9.193942628320775"><ele>330.66666666666663</ele><time>2026-04-03T09:44:53.999Z</time></trkpt><trkpt lat="45.77587891258256" lon="9.19396071830294"><ele>330.3333333333333</ele><time>2026-04-03T09:44:54.999Z</time></trkpt><trkpt lat="45.77603918787494" lon="9.193965546204728"><ele>330.0</ele><time>2026-04-03T09:44:55.999Z</time></trkpt><trkpt lat="45.77618050249181" lon="9.19398180760584"><ele>330.0</ele><time>2026-04-03T09:44:56.999Z</time></trkpt><trkpt lat="45.77635510574498" lon="9.193980116346427"><ele>330.0</ele><time>2026-04-03T09:44:57.999Z</time></trkpt><trkpt lat="45.7765526054424" lon="9.193940430698673"><ele>330.0</ele><time>2026-04-03T09:44:58.999Z</time></trkpt><trkpt lat="45.77676573951007" lon="9.193878377482534"><ele>330.0</ele><time>2026-04-03T09:44:59.999Z</time></trkpt><trkpt lat="45.77697856345801" lon="9.193818485776317"><ele>330.0</ele><time>2026-04-03T09:45:00.999Z</time></trkpt><trkpt lat="45.77719927370946" lon="9.193758995788416"><ele>330.0</ele><time>2026-04-03T09:45:01.999Z</time></trkpt><trkpt lat="45.77740951020652" lon="9.193703187588019"><ele>330.0</ele><time>2026-04-03T09:45:02.999Z</time></trkpt><trkpt lat="45.7776082120149" lon="9.193643563911309"><ele>330.0</ele><time>2026-04-03T09:45:03.999Z</time></trkpt><trkpt lat="45.77780862910778" lon="9.19359297461276"><ele>330.0</ele><time>2026-04-03T09:45:04.999Z</time></trkpt><trkpt lat="45.778013796186734" lon="9.193542804137367"><ele>330.0</ele><time>2026-04-03T09:45:05.999Z</time></trkpt><trkpt lat="45.778215294017706" lon="9.193490210369356"><ele>330.0</ele><time>2026-04-03T09:45:06.999Z</time></trkpt><trkpt lat="45.778412477399634" lon="9.193435619525617"><ele>330.0</ele><time>2026-04-03T09:45:07.998Z</time></trkpt><trkpt lat="45.77861584764471" lon="9.19337990376462"><ele>330.0</ele><time>2026-04-03T09:45:08.998Z</time></trkpt><trkpt lat="45.77882183320451" lon="9.193287942168757"><ele>330.0</ele><time>2026-04-03T09:45:09.998Z</time></trkpt><trkpt lat="45.77903009973643" lon="9.19318001277563"><ele>330.0</ele><time>2026-04-03T09:45:10.998Z</time></trkpt><trkpt lat="45.77921296796315" lon="9.193082192104402"><ele>330.3333333333333</ele><time>2026-04-03T09:45:11.998Z</time></trkpt><trkpt lat="45.77939395634519" lon="9.192998033740931"><ele>330.66666666666663</ele><time>2026-04-03T09:45:12.998Z</time></trkpt><trkpt lat="45.779582746568416" lon="9.192930698379557"><ele>331.0</ele><time>2026-04-03T09:45:13.998Z</time></trkpt><trkpt lat="45.77978251611847" lon="9.192880329816266"><ele>331.0</ele><time>2026-04-03T09:45:14.998Z</time></trkpt><trkpt lat="45.77999575486607" lon="9.192863007617916"><ele>331.0</ele><time>2026-04-03T09:45:15.998Z</time></trkpt><trkpt lat="45.78021671683459" lon="9.192899299192268"><ele>331.0</ele><time>2026-04-03T09:45:16.998Z</time></trkpt><trkpt lat="45.78044041421922" lon="9.19290631442828"><ele>332.0</ele><time>2026-04-03T09:45:17.998Z</time></trkpt><trkpt lat="45.78065204812017" lon="9.192985146189097"><ele>333.0</ele><time>2026-04-03T09:45:18.998Z</time></trkpt><trkpt lat="45.78086832588294" lon="9.193076857820612"><ele>334.0</ele><time>2026-04-03T09:45:19.998Z</time></trkpt><trkpt lat="45.781089848977025" lon="9.193204200106099"><ele>334.0</ele><time>2026-04-03T09:45:20.998Z</time></trkpt><trkpt lat="45.78130623587509" lon="9.19335736386262"><ele>334.0</ele><time>2026-04-03T09:45:21.998Z</time></trkpt><trkpt lat="45.78153155484386" lon="9.193482611553595"><ele>334.0</ele><time>2026-04-03T09:45:22.998Z</time></trkpt><trkpt lat="45.78175712564571" lon="9.193606418740202"><ele>334.0</ele><time>2026-04-03T09:45:23.998Z</time></trkpt><trkpt lat="45.7819795873002" lon="9.193750346437161"><ele>333.0</ele><time>2026-04-03T09:45:24.998Z</time></trkpt><trkpt lat="45.782200185762" lon="9.193924760844745"><ele>332.0</ele><time>2026-04-03T09:45:25.998Z</time></trkpt><trkpt lat="45.78240394815962" lon="9.194109569208088"><ele>332.0</ele><time>2026-04-03T09:45:26.998Z</time></trkpt><trkpt lat="45.78257877221157" lon="9.194278073427471"><ele>332.0</ele><time>2026-04-03T09:45:27.998Z</time></trkpt><trkpt lat="45.782752826603804" lon="9.194437577910719"><ele>332.0</ele><time>2026-04-03T09:45:28.998Z</time></trkpt><trkpt lat="45.782927122283226" lon="9.194599330663154"><ele>331.6666666666667</ele><time>2026-04-03T09:45:29.998Z</time></trkpt><trkpt lat="45.783108343844304" lon="9.194740045020167"><ele>331.3333333333333</ele><time>2026-04-03T09:45:30.998Z</time></trkpt><trkpt lat="45.78330826854299" lon="9.194853330552165"><ele>331.0</ele><time>2026-04-03T09:45:31.998Z</time></trkpt><trkpt lat="45.78351792071046" lon="9.19494722839676"><ele>331.66666666666663</ele><time>2026-04-03T09:45:32.998Z</time></trkpt><trkpt lat="45.783700690720366" lon="9.19502111281078"><ele>332.3333333333333</ele><time>2026-04-03T09:45:33.998Z</time></trkpt><trkpt lat="45.78385871628115" lon="9.195105782325118"><ele>333.0</ele><time>2026-04-03T09:45:34.998Z</time></trkpt><trkpt lat="45.78400925486015" lon="9.195186290650623"><ele>333.0</ele><time>2026-04-03T09:45:35.998Z</time></trkpt><trkpt lat="45.78417353923245" lon="9.195263373571926"><ele>333.0</ele><time>2026-04-03T09:45:36.998Z</time></trkpt><trkpt lat="45.78434141523302" lon="9.195345345309368"><ele>333.0</ele><time>2026-04-03T09:45:37.998Z</time></trkpt><trkpt lat="45.78449302499151" lon="9.195426493778005"><ele>333.25</ele><time>2026-04-03T09:45:38.998Z</time></trkpt><trkpt lat="45.78463817323355" lon="9.195501066737897"><ele>333.5</ele><time>2026-04-03T09:45:39.998Z</time></trkpt><trkpt lat="45.78477025682236" lon="9.195563295234752"><ele>333.75</ele><time>2026-04-03T09:45:40.998Z</time></trkpt><trkpt lat="45.78489636684116" lon="9.195628180512003"><ele>334.0</ele><time>2026-04-03T09:45:41.998Z</time></trkpt><trkpt lat="45.78502913479932" lon="9.195698027903207"><ele>332.75</ele><time>2026-04-03T09:45:42.998Z</time></trkpt><trkpt lat="45.78516578644995" lon="9.195766279878342"><ele>331.5</ele><time>2026-04-03T09:45:43.998Z</time></trkpt><trkpt lat="45.78530430036422" lon="9.195835635428901"><ele>330.25</ele><time>2026-04-03T09:45:44.998Z</time></trkpt><trkpt lat="45.7854478058576" lon="9.195902865095693"><ele>329.0</ele><time>2026-04-03T09:45:45.998Z</time></trkpt><trkpt lat="45.785596618610214" lon="9.195958256451792"><ele>329.0</ele><time>2026-04-03T09:45:46.998Z</time></trkpt><trkpt lat="45.78574518108251" lon="9.195995673863498"><ele>329.0</ele><time>2026-04-03T09:45:47.998Z</time></trkpt><trkpt lat="45.785864935830105" lon="9.196014243577375"><ele>329.0</ele><time>2026-04-03T09:45:48.998Z</time></trkpt><trkpt lat="45.78594993343125" lon="9.1960267805513"><ele>329.0</ele><time>2026-04-03T09:45:49.998Z</time></trkpt><trkpt lat="45.78601960993291" lon="9.196038491278053"><ele>329.0</ele><time>2026-04-03T09:45:50.998Z</time></trkpt><trkpt lat="45.78609087277565" lon="9.196048599240822"><ele>330.25</ele><time>2026-04-03T09:45:51.998Z</time></trkpt><trkpt lat="45.78618467273635" lon="9.196061584910073"><ele>331.5</ele><time>2026-04-03T09:45:53Z</time></trkpt><trkpt lat="45.786300772662585" lon="9.196084625828485"><ele>332.75</ele><time>2026-04-03T09:45:54Z</time></trkpt><trkpt lat="45.78642328300186" lon="9.196116584592705"><ele>334.0</ele><time>2026-04-03T09:45:55Z</time></trkpt><trkpt lat="45.78655610370736" lon="9.196138570871518"><ele>334.0</ele><time>2026-04-03T09:45:56Z</time></trkpt><trkpt lat="45.78670574690448" lon="9.196155818885503"><ele>334.0</ele><time>2026-04-03T09:45:57Z</time></trkpt><trkpt lat="45.78685640229032" lon="9.19618274455623"><ele>334.0</ele><time>2026-04-03T09:45:58Z</time></trkpt><trkpt lat="45.78698221527424" lon="9.196206865427504"><ele>334.0</ele><time>2026-04-03T09:45:59Z</time></trkpt><trkpt lat="45.78708853262495" lon="9.196240858053665"><ele>333.75</ele><time>2026-04-03T09:46:00Z</time></trkpt><trkpt lat="45.787205323757725" lon="9.19629925876223"><ele>333.5</ele><time>2026-04-03T09:46:01Z</time></trkpt><trkpt lat="45.787320627829004" lon="9.196368401061621"><ele>333.25</ele><time>2026-04-03T09:46:02Z</time></trkpt><trkpt lat="45.787425555106516" lon="9.196440882912233"><ele>333.0</ele><time>2026-04-03T09:46:03Z</time></trkpt><trkpt lat="45.78752901593836" lon="9.19650815407358"><ele>333.0</ele><time>2026-04-03T09:46:04Z</time></trkpt><trkpt lat="45.78763501145141" lon="9.196577492290515"><ele>333.0</ele><time>2026-04-03T09:46:05Z</time></trkpt><trkpt lat="45.78774451096618" lon="9.196653502728738"><ele>333.0</ele><time>2026-04-03T09:46:06Z</time></trkpt><trkpt lat="45.78785808466027" lon="9.19673666099524"><ele>333.0</ele><time>2026-04-03T09:46:07Z</time></trkpt><trkpt lat="45.7879768414523" lon="9.196825678922588"><ele>333.0</ele><time>2026-04-03T09:46:08Z</time></trkpt><trkpt lat="45.78812099661752" lon="9.19691051462423"><ele>333.0</ele><time>2026-04-03T09:46:09Z</time></trkpt><trkpt lat="45.78829731063773" lon="9.197032902911607"><ele>333.0</ele><time>2026-04-03T09:46:10Z</time></trkpt><trkpt lat="45.78849718856121" lon="9.197115981389151"><ele>334.6666666666667</ele><time>2026-04-03T09:46:11Z</time></trkpt><trkpt lat="45.78866807650962" lon="9.19719373387859"><ele>336.33333333333337</ele><time>2026-04-03T09:46:12Z</time></trkpt><trkpt lat="45.788820934239276" lon="9.197243584470476"><ele>338.0</ele><time>2026-04-03T09:46:13Z</time></trkpt><trkpt lat="45.78897120751429" lon="9.197288132015288"><ele>338.33333333333337</ele><time>2026-04-03T09:46:14Z</time></trkpt><trkpt lat="45.78913853449801" lon="9.197336570198415"><ele>338.6666666666667</ele><time>2026-04-03T09:46:14.999Z</time></trkpt><trkpt lat="45.78930282409636" lon="9.197383327865184"><ele>339.0</ele><time>2026-04-03T09:46:15.999Z</time></trkpt><trkpt lat="45.78946372682794" lon="9.197435477176146"><ele>338.5</ele><time>2026-04-03T09:46:16.999Z</time></trkpt><trkpt lat="45.789606332183645" lon="9.197480842916674"><ele>338.0</ele><time>2026-04-03T09:46:17.999Z</time></trkpt><trkpt lat="45.7897375626118" lon="9.197520407150122"><ele>337.5</ele><time>2026-04-03T09:46:18.999Z</time></trkpt><trkpt lat="45.789857315457425" lon="9.197556932654843"><ele>337.0</ele><time>2026-04-03T09:46:19.999Z</time></trkpt><trkpt lat="45.78996191878755" lon="9.197586955547008"><ele>337.0</ele><time>2026-04-03T09:46:20.999Z</time></trkpt><trkpt lat="45.79005792015423" lon="9.197623067323574"><ele>337.0</ele><time>2026-04-03T09:46:21.999Z</time></trkpt><trkpt lat="45.79014850636416" lon="9.197648530829607"><ele>337.0</ele><time>2026-04-03T09:46:22.999Z</time></trkpt><trkpt lat="45.79023410637077" lon="9.197671934781813"><ele>337.0</ele><time>2026-04-03T09:46:23.999Z</time></trkpt><trkpt lat="45.790304151283074" lon="9.197695830828302"><ele>337.0</ele><time>2026-04-03T09:46:24.999Z</time></trkpt><trkpt lat="45.7904103782723" lon="9.197744712146008"><ele>336.66666666666663</ele><time>2026-04-03T09:46:26.999Z</time></trkpt><trkpt lat="45.79048686483664" lon="9.197768346198814"><ele>336.3333333333333</ele><time>2026-04-03T09:46:28.999Z</time></trkpt><trkpt lat="45.79055610950179" lon="9.197767911374218"><ele>336.0</ele><time>2026-04-03T09:46:30.999Z</time></trkpt><trkpt lat="45.7906152810488" lon="9.197801950319814"><ele>335.6666666666667</ele><time>2026-04-03T09:46:32.999Z</time></trkpt><trkpt lat="45.79070027723593" lon="9.197836675374155"><ele>335.33333333333337</ele><time>2026-04-03T09:46:38.999Z</time></trkpt><trkpt lat="45.79078465431359" lon="9.197853998686938"><ele>335.0</ele><time>2026-04-03T09:46:39.999Z</time></trkpt><trkpt lat="45.79088589271876" lon="9.197874202266489"><ele>335.0</ele><time>2026-04-03T09:46:40.999Z</time></trkpt><trkpt lat="45.79100434603514" lon="9.197904090674903"><ele>335.0</ele><time>2026-04-03T09:46:41.999Z</time></trkpt><trkpt lat="45.79114115713816" lon="9.19793505873019"><ele>335.0</ele><time>2026-04-03T09:46:42.999Z</time></trkpt><trkpt lat="45.79129192373281" lon="9.19796446547946"><ele>335.0</ele><time>2026-04-03T09:46:43.999Z</time></trkpt><trkpt lat="45.791455479080106" lon="9.197989084479563"><ele>336.0</ele><time>2026-04-03T09:46:44.999Z</time></trkpt><trkpt lat="45.79162850793738" lon="9.197997052829171"><ele>337.0</ele><time>2026-04-03T09:46:45.999Z</time></trkpt><trkpt lat="45.79180569703986" lon="9.198001565212316"><ele>338.0</ele><time>2026-04-03T09:46:46.999Z</time></trkpt><trkpt lat="45.791992227320286" lon="9.1980157072746"><ele>338.33333333333337</ele><time>2026-04-03T09:46:47.999Z</time></trkpt><trkpt lat="45.792178545984" lon="9.198032562015282"><ele>338.6666666666667</ele><time>2026-04-03T09:46:48.999Z</time></trkpt><trkpt lat="45.7923661107183" lon="9.198049250920597"><ele>339.0</ele><time>2026-04-03T09:46:49.999Z</time></trkpt><trkpt lat="45.79255261309638" lon="9.198073469511058"><ele>339.0</ele><time>2026-04-03T09:46:50.999Z</time></trkpt><trkpt lat="45.79274098358608" lon="9.198120801045961"><ele>339.0</ele><time>2026-04-03T09:46:51.999Z</time></trkpt><trkpt lat="45.79292351381429" lon="9.198176397100038"><ele>339.0</ele><time>2026-04-03T09:46:52.999Z</time></trkpt><trkpt lat="45.793085999647104" lon="9.198218883534091"><ele>338.3333333333333</ele><time>2026-04-03T09:46:53.999Z</time></trkpt><trkpt lat="45.793237965506144" lon="9.19826503676822"><ele>337.66666666666663</ele><time>2026-04-03T09:46:54.999Z</time></trkpt><trkpt lat="45.79338161735509" lon="9.198317946146403"><ele>337.0</ele><time>2026-04-03T09:46:55.999Z</time></trkpt><trkpt lat="45.79352490688892" lon="9.19836953736902"><ele>337.0</ele><time>2026-04-03T09:46:56.999Z</time></trkpt><trkpt lat="45.79366794296652" lon="9.198447727873058"><ele>337.0</ele><time>2026-04-03T09:46:57.999Z</time></trkpt><trkpt lat="45.793810784304455" lon="9.198574629743936"><ele>337.0</ele><time>2026-04-03T09:46:58.999Z</time></trkpt><trkpt lat="45.793939492926356" lon="9.198734016524266"><ele>337.0</ele><time>2026-04-03T09:46:59.999Z</time></trkpt><trkpt lat="45.79405771480434" lon="9.198926081069278"><ele>337.0</ele><time>2026-04-03T09:47:00.999Z</time></trkpt><trkpt lat="45.79416233000865" lon="9.199131772495349"><ele>337.0</ele><time>2026-04-03T09:47:01.999Z</time></trkpt><trkpt lat="45.7942756306681" lon="9.199348120330942"><ele>336.3333333333333</ele><time>2026-04-03T09:47:02.999Z</time></trkpt><trkpt lat="45.794399272051436" lon="9.199569087483363"><ele>335.6666666666667</ele><time>2026-04-03T09:47:03.999Z</time></trkpt><trkpt lat="45.7945147403967" lon="9.199834861958688"><ele>335.0</ele><time>2026-04-03T09:47:04.999Z</time></trkpt><trkpt lat="45.79464753268323" lon="9.200072077101598"><ele>334.75</ele><time>2026-04-03T09:47:05.999Z</time></trkpt><trkpt lat="45.794753488241675" lon="9.200302559482294"><ele>334.5</ele><time>2026-04-03T09:47:06.999Z</time></trkpt><trkpt lat="45.79484099525112" lon="9.20046936538903"><ele>334.25</ele><time>2026-04-03T09:47:07.999Z</time></trkpt><trkpt lat="45.79490137162282" lon="9.200582956158135"><ele>334.0</ele><time>2026-04-03T09:47:08.999Z</time></trkpt><trkpt lat="45.79496082379783" lon="9.200665432649053"><ele>334.66666666666663</ele><time>2026-04-03T09:47:09.999Z</time></trkpt><trkpt lat="45.79503912256216" lon="9.20073654744925"><ele>335.3333333333333</ele><time>2026-04-03T09:47:10.999Z</time></trkpt><trkpt lat="45.79511175616873" lon="9.20078489254607"><ele>336.0</ele><time>2026-04-03T09:47:11.999Z</time></trkpt><trkpt lat="45.79521642664275" lon="9.200824567024075"><ele>336.6666666666667</ele><time>2026-04-03T09:47:13.998Z</time></trkpt><trkpt lat="45.795273427356676" lon="9.200871460347722"><ele>337.33333333333337</ele><time>2026-04-03T09:47:14.998Z</time></trkpt><trkpt lat="45.79535046001135" lon="9.200894148255612"><ele>338.0</ele><time>2026-04-03T09:47:15.998Z</time></trkpt><trkpt lat="45.79543860188793" lon="9.200914690319777"><ele>338.33333333333337</ele><time>2026-04-03T09:47:16.998Z</time></trkpt><trkpt lat="45.79552277688258" lon="9.200938004187732"><ele>338.6666666666667</ele><time>2026-04-03T09:47:17.998Z</time></trkpt><trkpt lat="45.79559595773044" lon="9.20095997200382"><ele>339.0</ele><time>2026-04-03T09:47:18.998Z</time></trkpt><trkpt lat="45.79566132772147" lon="9.200957319308277"><ele>339.3333333333333</ele><time>2026-04-03T09:47:19.998Z</time></trkpt><trkpt lat="45.79576129114338" lon="9.201032321855429"><ele>339.66666666666663</ele><time>2026-04-03T09:47:21.998Z</time></trkpt><trkpt lat="45.795837361301686" lon="9.20107837418073"><ele>340.0</ele><time>2026-04-03T09:47:23.998Z</time></trkpt><trkpt lat="45.79589726746747" lon="9.20112993353408"><ele>340.0</ele><time>2026-04-03T09:47:25.998Z</time></trkpt><trkpt lat="45.79596570777172" lon="9.201185817946104"><ele>340.0</ele><time>2026-04-03T09:47:27.998Z</time></trkpt><trkpt lat="45.79607681738131" lon="9.201283259260677"><ele>340.0</ele><time>2026-04-03T09:47:29.998Z</time></trkpt><trkpt lat="45.79613332646685" lon="9.201330514404567"><ele>340.0</ele><time>2026-04-03T09:47:30.998Z</time></trkpt><trkpt lat="45.79623574389522" lon="9.20143382911664"><ele>340.0</ele><time>2026-04-03T09:47:32.998Z</time></trkpt><trkpt lat="45.796290222383625" lon="9.201510434570144"><ele>339.4</ele><time>2026-04-03T09:47:33.998Z</time></trkpt><trkpt lat="45.796357185703755" lon="9.201589409207815"><ele>338.8</ele><time>2026-04-03T09:47:34.998Z</time></trkpt><trkpt lat="45.79645523687446" lon="9.201655810515344"><ele>338.20000000000005</ele><time>2026-04-03T09:47:35.998Z</time></trkpt><trkpt lat="45.79657742022567" lon="9.201711457400275"><ele>337.6</ele><time>2026-04-03T09:47:36.998Z</time></trkpt><trkpt lat="45.796689751102775" lon="9.201792335121073"><ele>337.0</ele><time>2026-04-03T09:47:37.998Z</time></trkpt><trkpt lat="45.79678221598006" lon="9.2018719359581"><ele>336.8333333333333</ele><time>2026-04-03T09:47:38.998Z</time></trkpt><trkpt lat="45.796864289968674" lon="9.201945242984655"><ele>336.66666666666663</ele><time>2026-04-03T09:47:39.998Z</time></trkpt><trkpt lat="45.79693835970024" lon="9.202006442151546"><ele>336.5</ele><time>2026-04-03T09:47:40.998Z</time></trkpt><trkpt lat="45.79700130654643" lon="9.20205969042586"><ele>336.3333333333333</ele><time>2026-04-03T09:47:41.998Z</time></trkpt><trkpt lat="45.7970550919734" lon="9.202106992210648"><ele>336.1666666666667</ele><time>2026-04-03T09:47:42.998Z</time></trkpt><trkpt lat="45.79714466825534" lon="9.202181074585749"><ele>336.0</ele><time>2026-04-03T09:47:44.998Z</time></trkpt><trkpt lat="45.797239447352446" lon="9.202262027421552"><ele>336.6</ele><time>2026-04-03T09:47:46.998Z</time></trkpt><trkpt lat="45.797339755977944" lon="9.202340434265237"><ele>337.20000000000005</ele><time>2026-04-03T09:47:48.998Z</time></trkpt><trkpt lat="45.79742172998653" lon="9.202409016948412"><ele>337.79999999999995</ele><time>2026-04-03T09:47:50.998Z</time></trkpt><trkpt lat="45.79754236204004" lon="9.20251282039723"><ele>338.4</ele><time>2026-04-03T09:47:52.998Z</time></trkpt><trkpt lat="45.79762834298456" lon="9.202581899788552"><ele>339.0</ele><time>2026-04-03T09:47:53.998Z</time></trkpt><trkpt lat="45.79772088074403" lon="9.20265501522326"><ele>339.75</ele><time>2026-04-03T09:47:54.998Z</time></trkpt><trkpt lat="45.797822909661654" lon="9.202736932415458"><ele>340.5</ele><time>2026-04-03T09:47:55.998Z</time></trkpt><trkpt lat="45.79793180830687" lon="9.202824141849671"><ele>341.25</ele><time>2026-04-03T09:47:56.998Z</time></trkpt><trkpt lat="45.798041281935255" lon="9.202925412199644"><ele>342.0</ele><time>2026-04-03T09:47:57.998Z</time></trkpt><trkpt lat="45.79814938881193" lon="9.203020907832327"><ele>342.0</ele><time>2026-04-03T09:47:58.999Z</time></trkpt><trkpt lat="45.79824601095411" lon="9.203107757922616"><ele>342.0</ele><time>2026-04-03T09:47:59.999Z</time></trkpt><trkpt lat="45.79834908592733" lon="9.203192265118702"><ele>342.0</ele><time>2026-04-03T09:48:00.999Z</time></trkpt><trkpt lat="45.79844860194647" lon="9.203268636571119"><ele>342.0</ele><time>2026-04-03T09:48:01.999Z</time></trkpt><trkpt lat="45.798533531829115" lon="9.203340752330362"><ele>342.0</ele><time>2026-04-03T09:48:02.999Z</time></trkpt><trkpt lat="45.79861985470157" lon="9.203408908113447"><ele>341.8</ele><time>2026-04-03T09:48:03.999Z</time></trkpt><trkpt lat="45.79871297489055" lon="9.203477692198062"><ele>341.6</ele><time>2026-04-03T09:48:04.999Z</time></trkpt><trkpt lat="45.79880773111905" lon="9.203551095572108"><ele>341.40000000000003</ele><time>2026-04-03T09:48:05.999Z</time></trkpt><trkpt lat="45.798897393520484" lon="9.203628440670794"><ele>341.20000000000005</ele><time>2026-04-03T09:48:06.999Z</time></trkpt><trkpt lat="45.798978923827306" lon="9.203707730014594"><ele>341.0</ele><time>2026-04-03T09:48:07.999Z</time></trkpt><trkpt lat="45.799053865357585" lon="9.203779808246443"><ele>341.0</ele><time>2026-04-03T09:48:08.999Z</time></trkpt><trkpt lat="45.799115341242235" lon="9.203863018521048"><ele>341.0</ele><time>2026-04-03T09:48:09.999Z</time></trkpt><trkpt lat="45.79917491693126" lon="9.203956421962626"><ele>341.0</ele><time>2026-04-03T09:48:10.999Z</time></trkpt><trkpt lat="45.79933437393783" lon="9.204047585104359"><ele>341.0</ele><time>2026-04-03T09:48:12.999Z</time></trkpt><trkpt lat="45.79944308164663" lon="9.20404038256121"><ele>341.6</ele><time>2026-04-03T09:48:13.999Z</time></trkpt><trkpt lat="45.799571589391704" lon="9.20401286768343"><ele>342.20000000000005</ele><time>2026-04-03T09:48:14.999Z</time></trkpt><trkpt lat="45.79968916399053" lon="9.204008814013532"><ele>342.79999999999995</ele><time>2026-04-03T09:48:15.999Z</time></trkpt><trkpt lat="45.79979574591638" lon="9.204003856674756"><ele>343.4</ele><time>2026-04-03T09:48:16.999Z</time></trkpt><trkpt lat="45.79988991984003" lon="9.204004118028951"><ele>344.0</ele><time>2026-04-03T09:48:17.999Z</time></trkpt><trkpt lat="45.79998572337815" lon="9.204007140915769"><ele>344.0</ele><time>2026-04-03T09:48:18.999Z</time></trkpt><trkpt lat="45.8000839373074" lon="9.204005499440626"><ele>344.0</ele><time>2026-04-03T09:48:19.999Z</time></trkpt><trkpt lat="45.800193638204874" lon="9.204009075833643"><ele>344.0</ele><time>2026-04-03T09:48:20.999Z</time></trkpt><trkpt lat="45.80030687555318" lon="9.204004519270905"><ele>344.0</ele><time>2026-04-03T09:48:21.999Z</time></trkpt><trkpt lat="45.800411687401045" lon="9.203997470318697"><ele>344.0</ele><time>2026-04-03T09:48:22.999Z</time></trkpt><trkpt lat="45.80051138999779" lon="9.204032488046304"><ele>344.0</ele><time>2026-04-03T09:48:23.999Z</time></trkpt><trkpt lat="45.800612516557734" lon="9.204049702481672"><ele>344.0</ele><time>2026-04-03T09:48:24.999Z</time></trkpt><trkpt lat="45.800715774115304" lon="9.204161455648455"><ele>344.0</ele><time>2026-04-03T09:48:25.999Z</time></trkpt><trkpt lat="45.80084203034103" lon="9.204251758206729"><ele>344.0</ele><time>2026-04-03T09:48:26.999Z</time></trkpt><trkpt lat="45.80096783833505" lon="9.204351667978633"><ele>343.0</ele><time>2026-04-03T09:48:27.999Z</time></trkpt><trkpt lat="45.80109212525239" lon="9.204441173871588"><ele>342.0</ele><time>2026-04-03T09:48:28.999Z</time></trkpt><trkpt lat="45.801211490771216" lon="9.204532693291569"><ele>341.0</ele><time>2026-04-03T09:48:29.999Z</time></trkpt><trkpt lat="45.80132819962613" lon="9.204628591636698"><ele>340.0</ele><time>2026-04-03T09:48:30.999Z</time></trkpt><trkpt lat="45.80144364889162" lon="9.204715244951872"><ele>340.0</ele><time>2026-04-03T09:48:31.999Z</time></trkpt><trkpt lat="45.8015588816236" lon="9.204805640127292"><ele>340.0</ele><time>2026-04-03T09:48:32.999Z</time></trkpt><trkpt lat="45.80178188504178" lon="9.20497707219244"><ele>340.0</ele><time>2026-04-03T09:48:34.999Z</time></trkpt><trkpt lat="45.801891963120006" lon="9.205068568302517"><ele>340.5</ele><time>2026-04-03T09:48:35.999Z</time></trkpt><trkpt lat="45.8020012618231" lon="9.205161617389685"><ele>341.0</ele><time>2026-04-03T09:48:36.999Z</time></trkpt><trkpt lat="45.802115636017966" lon="9.205250017697292"><ele>341.5</ele><time>2026-04-03T09:48:37.999Z</time></trkpt><trkpt lat="45.80223732749086" lon="9.20534072165774"><ele>342.0</ele><time>2026-04-03T09:48:38.999Z</time></trkpt><trkpt lat="45.8023582654161" lon="9.205439292990546"><ele>342.0</ele><time>2026-04-03T09:48:39.999Z</time></trkpt><trkpt lat="45.80247840295028" lon="9.205536576206221"><ele>342.0</ele><time>2026-04-03T09:48:40.999Z</time></trkpt><trkpt lat="45.80260063984215" lon="9.205633210649205"><ele>342.0</ele><time>2026-04-03T09:48:41.999Z</time></trkpt><trkpt lat="45.80272133776911" lon="9.205731521269326"><ele>342.0</ele><time>2026-04-03T09:48:42.999Z</time></trkpt><trkpt lat="45.802839798505374" lon="9.205833771804627"><ele>342.0</ele><time>2026-04-03T09:48:43.999Z</time></trkpt><trkpt lat="45.802962879020065" lon="9.205938886717043"><ele>342.0</ele><time>2026-04-03T09:48:44.999Z</time></trkpt><trkpt lat="45.803074175361" lon="9.20603620636837"><ele>342.0</ele><time>2026-04-03T09:48:45.999Z</time></trkpt><trkpt lat="45.80317269252037" lon="9.206128822494476"><ele>342.0</ele><time>2026-04-03T09:48:46.999Z</time></trkpt><trkpt lat="45.80327337931283" lon="9.206233080534497"><ele>342.0</ele><time>2026-04-03T09:48:47.999Z</time></trkpt><trkpt lat="45.80336460330016" lon="9.206321797387268"><ele>342.0</ele><time>2026-04-03T09:48:48.999Z</time></trkpt><trkpt lat="45.803450899508405" lon="9.20641397248525"><ele>342.0</ele><time>2026-04-03T09:48:49.999Z</time></trkpt><trkpt lat="45.80353825618887" lon="9.206503091141764"><ele>342.0</ele><time>2026-04-03T09:48:50.999Z</time></trkpt><trkpt lat="45.80362273970045" lon="9.206585939014015"><ele>342.0</ele><time>2026-04-03T09:48:51.999Z</time></trkpt><trkpt lat="45.803705777690396" lon="9.206671302853664"><ele>342.1666666666667</ele><time>2026-04-03T09:48:52.999Z</time></trkpt><trkpt lat="45.803785323710585" lon="9.206757181946271"><ele>342.3333333333333</ele><time>2026-04-03T09:48:53.999Z</time></trkpt><trkpt lat="45.803859831633986" lon="9.206840237638762"><ele>342.5</ele><time>2026-04-03T09:48:54.999Z</time></trkpt><trkpt lat="45.8039279972016" lon="9.206917793265427"><ele>342.66666666666663</ele><time>2026-04-03T09:48:55.999Z</time></trkpt><trkpt lat="45.80398740616268" lon="9.206984526561854"><ele>342.8333333333333</ele><time>2026-04-03T09:48:56.999Z</time></trkpt><trkpt lat="45.804039316842726" lon="9.207043788327045"><ele>343.0</ele><time>2026-04-03T09:48:57.999Z</time></trkpt><trkpt lat="45.804126100106146" lon="9.207161330601563"><ele>343.0</ele><time>2026-04-03T09:48:59.999Z</time></trkpt><trkpt lat="45.80418336384255" lon="9.20728391470128"><ele>343.0</ele><time>2026-04-03T09:49:01.999Z</time></trkpt><trkpt lat="45.804257700475844" lon="9.20744451387489"><ele>343.0</ele><time>2026-04-03T09:49:03.999Z</time></trkpt><trkpt lat="45.80430189690845" lon="9.207542635951736"><ele>343.0</ele><time>2026-04-03T09:49:04.999Z</time></trkpt><trkpt lat="45.8043396996964" lon="9.207659454370772"><ele>343.0</ele><time>2026-04-03T09:49:05.999Z</time></trkpt><trkpt lat="45.80438429885682" lon="9.207749482691975"><ele>343.0</ele><time>2026-04-03T09:49:06.999Z</time></trkpt><trkpt lat="45.80444118471325" lon="9.207789700592555"><ele>343.0</ele><time>2026-04-03T09:49:07.999Z</time></trkpt><trkpt lat="45.804513181736205" lon="9.207794487515121"><ele>343.0</ele><time>2026-04-03T09:49:08.999Z</time></trkpt><trkpt lat="45.80458806478549" lon="9.207750086800926"><ele>343.0</ele><time>2026-04-03T09:49:09.999Z</time></trkpt><trkpt lat="45.80466947465909" lon="9.207699711626509"><ele>343.0</ele><time>2026-04-03T09:49:10.998Z</time></trkpt><trkpt lat="45.80478301109962" lon="9.20784870690264"><ele>343.0</ele><time>2026-04-03T09:49:12.998Z</time></trkpt><trkpt lat="45.80487469161022" lon="9.207944191598214"><ele>343.0</ele><time>2026-04-03T09:49:13.998Z</time></trkpt><trkpt lat="45.804984298450705" lon="9.208037928211365"><ele>343.0</ele><time>2026-04-03T09:49:14.998Z</time></trkpt><trkpt lat="45.80507184426792" lon="9.20816866494549"><ele>343.0</ele><time>2026-04-03T09:49:15.998Z</time></trkpt><trkpt lat="45.80517740902553" lon="9.208301670213968"><ele>343.5</ele><time>2026-04-03T09:49:16.998Z</time></trkpt><trkpt lat="45.80528423678618" lon="9.208410912554848"><ele>344.0</ele><time>2026-04-03T09:49:17.998Z</time></trkpt><trkpt lat="45.80537091227184" lon="9.208546247753953"><ele>344.5</ele><time>2026-04-03T09:49:18.998Z</time></trkpt><trkpt lat="45.80545202483878" lon="9.208677694892236"><ele>345.0</ele><time>2026-04-03T09:49:19.998Z</time></trkpt><trkpt lat="45.80553595202287" lon="9.208808894927033"><ele>345.0</ele><time>2026-04-03T09:49:20.998Z</time></trkpt><trkpt lat="45.80562161676741" lon="9.20894639924566"><ele>345.0</ele><time>2026-04-03T09:49:21.998Z</time></trkpt><trkpt lat="45.80570785770246" lon="9.209086191553887"><ele>345.0</ele><time>2026-04-03T09:49:22.998Z</time></trkpt><trkpt lat="45.8057929823439" lon="9.209219412890853"><ele>345.0</ele><time>2026-04-03T09:49:23.998Z</time></trkpt><trkpt lat="45.805869324058186" lon="9.20933778929752"><ele>344.5</ele><time>2026-04-03T09:49:24.998Z</time></trkpt><trkpt lat="45.805953374899964" lon="9.209453875440362"><ele>344.0</ele><time>2026-04-03T09:49:25.998Z</time></trkpt><trkpt lat="45.80604713886604" lon="9.209569479275983"><ele>343.5</ele><time>2026-04-03T09:49:26.998Z</time></trkpt><trkpt lat="45.806148059657794" lon="9.20967468424066"><ele>343.0</ele><time>2026-04-03T09:49:27.998Z</time></trkpt><trkpt lat="45.80625233201981" lon="9.209781280660966"><ele>346.0</ele><time>2026-04-03T09:49:28.998Z</time></trkpt><trkpt lat="45.80638032898584" lon="9.209883676500446"><ele>349.0</ele><time>2026-04-03T09:49:29.998Z</time></trkpt><trkpt lat="45.806527928363224" lon="9.209965855793822"><ele>352.0</ele><time>2026-04-03T09:49:30.998Z</time></trkpt><trkpt lat="45.80669473103494" lon="9.210034117593189"><ele>352.0</ele><time>2026-04-03T09:49:31.998Z</time></trkpt><trkpt lat="45.806878914514556" lon="9.210085115174808"><ele>352.0</ele><time>2026-04-03T09:49:32.998Z</time></trkpt><trkpt lat="45.80707740834493" lon="9.210095535994334"><ele>352.0</ele><time>2026-04-03T09:49:33.998Z</time></trkpt><trkpt lat="45.80724155616409" lon="9.210095723925312"><ele>352.0</ele><time>2026-04-03T09:49:34.998Z</time></trkpt><trkpt lat="45.80739405908866" lon="9.210068806952444"><ele>352.0</ele><time>2026-04-03T09:49:35.998Z</time></trkpt><trkpt lat="45.807533353678885" lon="9.210026853578926"><ele>352.0</ele><time>2026-04-03T09:49:36.998Z</time></trkpt><trkpt lat="45.807666608617076" lon="9.209972377711425"><ele>352.0</ele><time>2026-04-03T09:49:37.998Z</time></trkpt><trkpt lat="45.80778324014196" lon="9.20990879022263"><ele>352.6</ele><time>2026-04-03T09:49:38.998Z</time></trkpt><trkpt lat="45.80788604479481" lon="9.20985420080453"><ele>353.20000000000005</ele><time>2026-04-03T09:49:39.998Z</time></trkpt><trkpt lat="45.8079884202154" lon="9.209802862199147"><ele>353.8</ele><time>2026-04-03T09:49:40.998Z</time></trkpt><trkpt lat="45.808094659028725" lon="9.209748855611702"><ele>354.4</ele><time>2026-04-03T09:49:41.998Z</time></trkpt><trkpt lat="45.808204410388925" lon="9.20969653171132"><ele>355.0</ele><time>2026-04-03T09:49:42.998Z</time></trkpt><trkpt lat="45.80831456262257" lon="9.209645363045425"><ele>355.75</ele><time>2026-04-03T09:49:43.998Z</time></trkpt><trkpt lat="45.8084237488363" lon="9.209593502374805"><ele>356.5</ele><time>2026-04-03T09:49:44.998Z</time></trkpt><trkpt lat="45.80854219784901" lon="9.20953764887392"><ele>357.25</ele><time>2026-04-03T09:49:45.998Z</time></trkpt><trkpt lat="45.80867013334447" lon="9.209477265707363"><ele>358.0</ele><time>2026-04-03T09:49:46.998Z</time></trkpt><trkpt lat="45.80879490447858" lon="9.209416478786336"><ele>360.25</ele><time>2026-04-03T09:49:47.998Z</time></trkpt><trkpt lat="45.80891989596305" lon="9.209354848656732"><ele>362.5</ele><time>2026-04-03T09:49:48.998Z</time></trkpt><trkpt lat="45.809053017709246" lon="9.20930337698596"><ele>364.75</ele><time>2026-04-03T09:49:49.998Z</time></trkpt><trkpt lat="45.809193436069236" lon="9.209268637848949"><ele>367.0</ele><time>2026-04-03T09:49:50.998Z</time></trkpt><trkpt lat="45.80933917145647" lon="9.20927697962611"><ele>369.75</ele><time>2026-04-03T09:49:51.998Z</time></trkpt><trkpt lat="45.80948788338089" lon="9.209287454804894"><ele>372.5</ele><time>2026-04-03T09:49:52.998Z</time></trkpt><trkpt lat="45.80963500515454" lon="9.209298176079775"><ele>375.25</ele><time>2026-04-03T09:49:53.998Z</time></trkpt><trkpt lat="45.80977147191554" lon="9.209350343389097"><ele>378.0</ele><time>2026-04-03T09:49:54.998Z</time></trkpt><trkpt lat="45.809904007879524" lon="9.209425197368212"><ele>378.0</ele><time>2026-04-03T09:49:55.999Z</time></trkpt><trkpt lat="45.810035559600095" lon="9.209517357433175"><ele>378.0</ele><time>2026-04-03T09:49:56.999Z</time></trkpt><trkpt lat="45.81016567352458" lon="9.209632741168187"><ele>378.0</ele><time>2026-04-03T09:49:57.999Z</time></trkpt><trkpt lat="45.81028738281733" lon="9.209769880117163"><ele>378.5</ele><time>2026-04-03T09:49:58.999Z</time></trkpt><trkpt lat="45.81040425763413" lon="9.209908332552793"><ele>379.0</ele><time>2026-04-03T09:49:59.999Z</time></trkpt><trkpt lat="45.8105152168288" lon="9.210038829966873"><ele>379.5</ele><time>2026-04-03T09:50:00.999Z</time></trkpt><trkpt lat="45.81062100516761" lon="9.210167995412869"><ele>380.0</ele><time>2026-04-03T09:50:01.999Z</time></trkpt><trkpt lat="45.81072463396407" lon="9.210295702124236"><ele>380.0</ele><time>2026-04-03T09:50:02.999Z</time></trkpt><trkpt lat="45.81082636769875" lon="9.210423704611454"><ele>380.0</ele><time>2026-04-03T09:50:03.999Z</time></trkpt><trkpt lat="45.81092614286985" lon="9.210552591712386"><ele>380.0</ele><time>2026-04-03T09:50:05Z</time></trkpt><trkpt lat="45.81102908670465" lon="9.21067434242331"><ele>380.0</ele><time>2026-04-03T09:50:06Z</time></trkpt><trkpt lat="45.81114369776254" lon="9.210784583471346"><ele>380.25</ele><time>2026-04-03T09:50:07Z</time></trkpt><trkpt lat="45.81127371399244" lon="9.210862328684497"><ele>380.5</ele><time>2026-04-03T09:50:08Z</time></trkpt><trkpt lat="45.81141607296527" lon="9.210922419372174"><ele>380.75</ele><time>2026-04-03T09:50:09Z</time></trkpt><trkpt lat="45.811561376368374" lon="9.210975819513022"><ele>381.0</ele><time>2026-04-03T09:50:10Z</time></trkpt><trkpt lat="45.81169776156575" lon="9.211009543130439"><ele>382.75</ele><time>2026-04-03T09:50:11Z</time></trkpt><trkpt lat="45.81182858753277" lon="9.21103984682656"><ele>384.5</ele><time>2026-04-03T09:50:12Z</time></trkpt><trkpt lat="45.81195287095547" lon="9.211082497693814"><ele>386.25</ele><time>2026-04-03T09:50:13Z</time></trkpt><trkpt lat="45.81208686870639" lon="9.211117236551358"><ele>388.0</ele><time>2026-04-03T09:50:14Z</time></trkpt><trkpt lat="45.81223092886512" lon="9.211166426808354"><ele>388.0</ele><time>2026-04-03T09:50:15Z</time></trkpt><trkpt lat="45.81238104758875" lon="9.211213491527094"><ele>388.0</ele><time>2026-04-03T09:50:16Z</time></trkpt><trkpt lat="45.81251382155997" lon="9.21124374414936"><ele>388.0</ele><time>2026-04-03T09:50:17Z</time></trkpt><trkpt lat="45.812644017818094" lon="9.211287837438057"><ele>388.0</ele><time>2026-04-03T09:50:18Z</time></trkpt><trkpt lat="45.81277828904173" lon="9.21134244560919"><ele>387.75</ele><time>2026-04-03T09:50:19Z</time></trkpt><trkpt lat="45.81291198093394" lon="9.211404581349461"><ele>387.5</ele><time>2026-04-03T09:50:20Z</time></trkpt><trkpt lat="45.81303963464178" lon="9.21147577920861"><ele>387.25</ele><time>2026-04-03T09:50:21Z</time></trkpt><trkpt lat="45.81316169906671" lon="9.21155692178226"><ele>387.0</ele><time>2026-04-03T09:50:22Z</time></trkpt><trkpt lat="45.813276655204696" lon="9.211646351628264"><ele>387.0</ele><time>2026-04-03T09:50:23Z</time></trkpt><trkpt lat="45.81337306271956" lon="9.211739444988252"><ele>387.0</ele><time>2026-04-03T09:50:24Z</time></trkpt><trkpt lat="45.81346140874408" lon="9.211834519648061"><ele>387.0</ele><time>2026-04-03T09:50:25Z</time></trkpt><trkpt lat="45.81355312304788" lon="9.211932218651414"><ele>387.0</ele><time>2026-04-03T09:50:26Z</time></trkpt><trkpt lat="45.813648521817726" lon="9.212033474890314"><ele>387.25</ele><time>2026-04-03T09:50:27Z</time></trkpt><trkpt lat="45.81374499856724" lon="9.212133924159671"><ele>387.5</ele><time>2026-04-03T09:50:28Z</time></trkpt><trkpt lat="45.813842725474075" lon="9.212236184380004"><ele>387.75</ele><time>2026-04-03T09:50:29Z</time></trkpt><trkpt lat="45.81393824496934" lon="9.212331839980084"><ele>388.0</ele><time>2026-04-03T09:50:30Z</time></trkpt><trkpt lat="45.81403092966393" lon="9.212428496913056"><ele>388.0</ele><time>2026-04-03T09:50:31Z</time></trkpt><trkpt lat="45.81412434186664" lon="9.212529983065496"><ele>388.0</ele><time>2026-04-03T09:50:32Z</time></trkpt><trkpt lat="45.81421930328419" lon="9.212633030528277"><ele>388.0</ele><time>2026-04-03T09:50:33Z</time></trkpt><trkpt lat="45.814321253095386" lon="9.212737319973911"><ele>388.0</ele><time>2026-04-03T09:50:34Z</time></trkpt><trkpt lat="45.814427971484676" lon="9.212845102751706"><ele>387.0</ele><time>2026-04-03T09:50:35Z</time></trkpt><trkpt lat="45.814534423987645" lon="9.21295826504528"><ele>386.0</ele><time>2026-04-03T09:50:36Z</time></trkpt><trkpt lat="45.81464164073703" lon="9.213074711822847"><ele>385.0</ele><time>2026-04-03T09:50:37Z</time></trkpt><trkpt lat="45.81474790664999" lon="9.21319291799011"><ele>384.0</ele><time>2026-04-03T09:50:38Z</time></trkpt><trkpt lat="45.814856492047745" lon="9.213311255602616"><ele>384.0</ele><time>2026-04-03T09:50:39Z</time></trkpt><trkpt lat="45.81496953370957" lon="9.21343012295179"><ele>384.0</ele><time>2026-04-03T09:50:40Z</time></trkpt><trkpt lat="45.81509054486365" lon="9.213555842618877"><ele>384.0</ele><time>2026-04-03T09:50:41Z</time></trkpt><trkpt lat="45.81521626589484" lon="9.213684933383057"><ele>384.0</ele><time>2026-04-03T09:50:42Z</time></trkpt><trkpt lat="45.81534007012353" lon="9.213818939292787"><ele>382.75</ele><time>2026-04-03T09:50:43Z</time></trkpt><trkpt lat="45.815457994137326" lon="9.213947298794743"><ele>381.5</ele><time>2026-04-03T09:50:44Z</time></trkpt><trkpt lat="45.815573472343004" lon="9.214068179245592"><ele>380.25</ele><time>2026-04-03T09:50:45Z</time></trkpt><trkpt lat="45.81569274437106" lon="9.214186194442432"><ele>379.0</ele><time>2026-04-03T09:50:46Z</time></trkpt><trkpt lat="45.815815831065215" lon="9.214303838128629"><ele>379.0</ele><time>2026-04-03T09:50:47Z</time></trkpt><trkpt lat="45.815949125302765" lon="9.21440831429045"><ele>379.0</ele><time>2026-04-03T09:50:48Z</time></trkpt><trkpt lat="45.81608901684074" lon="9.214506401033528"><ele>379.0</ele><time>2026-04-03T09:50:49Z</time></trkpt><trkpt lat="45.816231135755" lon="9.214600104655037"><ele>379.0</ele><time>2026-04-03T09:50:50Z</time></trkpt><trkpt lat="45.8163730810494" lon="9.214692451864773"><ele>379.0</ele><time>2026-04-03T09:50:51Z</time></trkpt><trkpt lat="45.81651867372465" lon="9.214776188408202"><ele>379.0</ele><time>2026-04-03T09:50:52Z</time></trkpt><trkpt lat="45.81667229554102" lon="9.214852599919254"><ele>375.0</ele><time>2026-04-03T09:50:53Z</time></trkpt><trkpt lat="45.81682520767309" lon="9.214918703402287"><ele>371.0</ele><time>2026-04-03T09:50:54Z</time></trkpt><trkpt lat="45.81698075863151" lon="9.214978835151388"><ele>367.0</ele><time>2026-04-03T09:50:55Z</time></trkpt><trkpt lat="45.817129077097114" lon="9.215024927906553"><ele>367.0</ele><time>2026-04-03T09:50:56Z</time></trkpt><trkpt lat="45.81726928701264" lon="9.215075578046257"><ele>367.0</ele><time>2026-04-03T09:50:57Z</time></trkpt><trkpt lat="45.81740601848488" lon="9.215129827074833"><ele>367.0</ele><time>2026-04-03T09:50:58Z</time></trkpt><trkpt lat="45.81754038719451" lon="9.215177500190993"><ele>367.0</ele><time>2026-04-03T09:50:59Z</time></trkpt><trkpt lat="45.81767778005787" lon="9.215226345467338"><ele>368.0</ele><time>2026-04-03T09:51:00Z</time></trkpt><trkpt lat="45.8178191585418" lon="9.215277305022203"><ele>369.0</ele><time>2026-04-03T09:51:01Z</time></trkpt><trkpt lat="45.81795400469507" lon="9.215327570954182"><ele>370.0</ele><time>2026-04-03T09:51:02Z</time></trkpt><trkpt lat="45.81807823414578" lon="9.215365023811952"><ele>371.0</ele><time>2026-04-03T09:51:03Z</time></trkpt><trkpt lat="45.81819641708752" lon="9.215407182791878"><ele>371.0</ele><time>2026-04-03T09:51:04Z</time></trkpt><trkpt lat="45.818317930837686" lon="9.215452441106027"><ele>371.0</ele><time>2026-04-03T09:51:04.999Z</time></trkpt><trkpt lat="45.81845158273125" lon="9.215497962213414"><ele>371.0</ele><time>2026-04-03T09:51:05.999Z</time></trkpt><trkpt lat="45.81859220089281" lon="9.215549301160616"><ele>371.0</ele><time>2026-04-03T09:51:06.999Z</time></trkpt><trkpt lat="45.81873411745377" lon="9.21560215432284"><ele>373.25</ele><time>2026-04-03T09:51:07.999Z</time></trkpt><trkpt lat="45.81887853167838" lon="9.215651295985593"><ele>375.5</ele><time>2026-04-03T09:51:08.999Z</time></trkpt><trkpt lat="45.81901934251015" lon="9.21570233909197"><ele>377.75</ele><time>2026-04-03T09:51:09.999Z</time></trkpt><trkpt lat="45.81916311941376" lon="9.215752943605805"><ele>380.0</ele><time>2026-04-03T09:51:10.999Z</time></trkpt><trkpt lat="45.81931680467396" lon="9.215803321990494"><ele>376.33333333333337</ele><time>2026-04-03T09:51:11.999Z</time></trkpt><trkpt lat="45.819486120885806" lon="9.215857445197349"><ele>372.6666666666667</ele><time>2026-04-03T09:51:12.999Z</time></trkpt><trkpt lat="45.819663036238694" lon="9.21592500256191"><ele>369.0</ele><time>2026-04-03T09:51:13.999Z</time></trkpt><trkpt lat="45.81984385058808" lon="9.215992346537236"><ele>369.0</ele><time>2026-04-03T09:51:14.999Z</time></trkpt><trkpt lat="45.8200359828352" lon="9.216050311443725"><ele>369.0</ele><time>2026-04-03T09:51:15.999Z</time></trkpt><trkpt lat="45.82020469614043" lon="9.216103747078359"><ele>369.0</ele><time>2026-04-03T09:51:16.999Z</time></trkpt><trkpt lat="45.82035390396295" lon="9.21617002286217"><ele>371.3333333333333</ele><time>2026-04-03T09:51:17.999Z</time></trkpt><trkpt lat="45.82051552835084" lon="9.216233236701084"><ele>373.66666666666663</ele><time>2026-04-03T09:51:18.999Z</time></trkpt><trkpt lat="45.8206860363644" lon="9.216305528393082"><ele>376.0</ele><time>2026-04-03T09:51:19.999Z</time></trkpt><trkpt lat="45.82085544081686" lon="9.216407002765893"><ele>374.0</ele><time>2026-04-03T09:51:20.999Z</time></trkpt><trkpt lat="45.8210108299353" lon="9.216529497495962"><ele>372.0</ele><time>2026-04-03T09:51:21.999Z</time></trkpt><trkpt lat="45.821156902472765" lon="9.21666667271186"><ele>370.0</ele><time>2026-04-03T09:51:22.999Z</time></trkpt><trkpt lat="45.82128397026758" lon="9.216798388758072"><ele>370.0</ele><time>2026-04-03T09:51:23.999Z</time></trkpt><trkpt lat="45.821408420565525" lon="9.216927024875629"><ele>370.0</ele><time>2026-04-03T09:51:24.999Z</time></trkpt><trkpt lat="45.82153641753855" lon="9.217042584062979"><ele>370.0</ele><time>2026-04-03T09:51:25.999Z</time></trkpt><trkpt lat="45.821671470538114" lon="9.217149893884978"><ele>368.0</ele><time>2026-04-03T09:51:26.999Z</time></trkpt><trkpt lat="45.821819790563616" lon="9.217246919363642"><ele>366.0</ele><time>2026-04-03T09:51:27.999Z</time></trkpt><trkpt lat="45.82197803023866" lon="9.217348257975162"><ele>364.0</ele><time>2026-04-03T09:51:28.999Z</time></trkpt><trkpt lat="45.82213316705255" lon="9.217444749493602"><ele>364.0</ele><time>2026-04-03T09:51:29.999Z</time></trkpt><trkpt lat="45.82229541632757" lon="9.217523808806797"><ele>364.0</ele><time>2026-04-03T09:51:30.999Z</time></trkpt><trkpt lat="45.822472747782136" lon="9.217597766610545"><ele>364.0</ele><time>2026-04-03T09:51:31.999Z</time></trkpt><trkpt lat="45.82267972144901" lon="9.217683105517368"><ele>369.5</ele><time>2026-04-03T09:51:32.999Z</time></trkpt><trkpt lat="45.822899700443536" lon="9.217813782762507"><ele>375.0</ele><time>2026-04-03T09:51:33.999Z</time></trkpt><trkpt lat="45.82310624281476" lon="9.217915523910367"><ele>375.0</ele><time>2026-04-03T09:51:34.999Z</time></trkpt><trkpt lat="45.823283861056794" lon="9.218017287669776"><ele>375.0</ele><time>2026-04-03T09:51:35.999Z</time></trkpt><trkpt lat="45.823470080520174" lon="9.218101062742784"><ele>375.0</ele><time>2026-04-03T09:51:36.999Z</time></trkpt><trkpt lat="45.82364152759357" lon="9.218180831779094"><ele>369.6666666666667</ele><time>2026-04-03T09:51:37.999Z</time></trkpt><trkpt lat="45.823788425302894" lon="9.2182554530214"><ele>364.33333333333337</ele><time>2026-04-03T09:51:38.999Z</time></trkpt><trkpt lat="45.82393258078089" lon="9.218326157796593"><ele>359.0</ele><time>2026-04-03T09:51:39.999Z</time></trkpt><trkpt lat="45.82408376147727" lon="9.218403720393303"><ele>359.0</ele><time>2026-04-03T09:51:40.999Z</time></trkpt><trkpt lat="45.824238572042255" lon="9.21848089282597"><ele>359.0</ele><time>2026-04-03T09:51:41.999Z</time></trkpt><trkpt lat="45.824394103867924" lon="9.218557847581446"><ele>359.0</ele><time>2026-04-03T09:51:42.999Z</time></trkpt><trkpt lat="45.82454250465871" lon="9.218632192165805"><ele>367.0</ele><time>2026-04-03T09:51:43.999Z</time></trkpt><trkpt lat="45.82468906461202" lon="9.218700482381196"><ele>375.0</ele><time>2026-04-03T09:51:44.999Z</time></trkpt><trkpt lat="45.82483695797473" lon="9.2187786141744"><ele>383.0</ele><time>2026-04-03T09:51:45.999Z</time></trkpt><trkpt lat="45.82498397335704" lon="9.218863423993838"><ele>383.0</ele><time>2026-04-03T09:51:46.999Z</time></trkpt><trkpt lat="45.825126984855274" lon="9.218961095442397"><ele>383.0</ele><time>2026-04-03T09:51:47.999Z</time></trkpt><trkpt lat="45.825268918103944" lon="9.219064891787285"><ele>383.0</ele><time>2026-04-03T09:51:48.999Z</time></trkpt><trkpt lat="45.825406841681996" lon="9.219181138984538"><ele>378.33333333333337</ele><time>2026-04-03T09:51:49.999Z</time></trkpt><trkpt lat="45.82554636247013" lon="9.219298343848164"><ele>373.6666666666667</ele><time>2026-04-03T09:51:50.999Z</time></trkpt><trkpt lat="45.82569750960061" lon="9.219403453879638"><ele>369.0</ele><time>2026-04-03T09:51:51.999Z</time></trkpt><trkpt lat="45.82586097077836" lon="9.219499766860928"><ele>373.0</ele><time>2026-04-03T09:51:52.999Z</time></trkpt><trkpt lat="45.82602539230062" lon="9.219581731838565"><ele>377.0</ele><time>2026-04-03T09:51:53.999Z</time></trkpt><trkpt lat="45.82618781380924" lon="9.219660260779495"><ele>381.0</ele><time>2026-04-03T09:51:54.999Z</time></trkpt><trkpt lat="45.826345966978806" lon="9.21973205354884"><ele>381.0</ele><time>2026-04-03T09:51:55.999Z</time></trkpt><trkpt lat="45.82648382902274" lon="9.21979178815025"><ele>381.0</ele><time>2026-04-03T09:51:56.999Z</time></trkpt><trkpt lat="45.82661497727166" lon="9.219854452060014"><ele>381.0</ele><time>2026-04-03T09:51:57.999Z</time></trkpt><trkpt lat="45.8267516398016" lon="9.219923032488268"><ele>381.0</ele><time>2026-04-03T09:51:58.999Z</time></trkpt><trkpt lat="45.8268906413807" lon="9.219980979482898"><ele>375.3333333333333</ele><time>2026-04-03T09:51:59.999Z</time></trkpt><trkpt lat="45.82703890783572" lon="9.22002734489743"><ele>369.66666666666663</ele><time>2026-04-03T09:52:00.999Z</time></trkpt><trkpt lat="45.82719292677867" lon="9.220067218524022"><ele>364.0</ele><time>2026-04-03T09:52:01.999Z</time></trkpt><trkpt lat="45.82735986429756" lon="9.220085227094964"><ele>364.0</ele><time>2026-04-03T09:52:02.999Z</time></trkpt><trkpt lat="45.827561205821105" lon="9.220119244088043"><ele>364.0</ele><time>2026-04-03T09:52:03.999Z</time></trkpt><trkpt lat="45.82778306840709" lon="9.220143717944536"><ele>364.0</ele><time>2026-04-03T09:52:04.999Z</time></trkpt><trkpt lat="45.82800669521581" lon="9.22016758433786"><ele>366.0</ele><time>2026-04-03T09:52:05.999Z</time></trkpt><trkpt lat="45.828214729471846" lon="9.220188023157688"><ele>368.0</ele><time>2026-04-03T09:52:06.999Z</time></trkpt><trkpt lat="45.82841110560093" lon="9.2201965538652"><ele>370.0</ele><time>2026-04-03T09:52:07.999Z</time></trkpt><trkpt lat="45.82857841342658" lon="9.220216032994873"><ele>375.0</ele><time>2026-04-03T09:52:08.999Z</time></trkpt><trkpt lat="45.82872346344062" lon="9.220235692779895"><ele>380.0</ele><time>2026-04-03T09:52:09.998Z</time></trkpt><trkpt lat="45.82884905554193" lon="9.220248464359868"><ele>385.0</ele><time>2026-04-03T09:52:11Z</time></trkpt><trkpt lat="45.828966921794475" lon="9.220263071714706"><ele>390.0</ele><time>2026-04-03T09:52:12Z</time></trkpt><trkpt lat="45.82909108118389" lon="9.220290458426808"><ele>390.0</ele><time>2026-04-03T09:52:13Z</time></trkpt><trkpt lat="45.82922419048847" lon="9.220337909613598"><ele>390.0</ele><time>2026-04-03T09:52:14Z</time></trkpt><trkpt lat="45.82935982840303" lon="9.220406790830184"><ele>390.0</ele><time>2026-04-03T09:52:15Z</time></trkpt><trkpt lat="45.829488578445634" lon="9.220485190042504"><ele>390.0</ele><time>2026-04-03T09:52:16Z</time></trkpt><trkpt lat="45.829608062942924" lon="9.220587454096753"><ele>389.5</ele><time>2026-04-03T09:52:17Z</time></trkpt><trkpt lat="45.82971705049645" lon="9.220708850861477"><ele>389.0</ele><time>2026-04-03T09:52:18Z</time></trkpt><trkpt lat="45.82982098693366" lon="9.220840123776778"><ele>388.5</ele><time>2026-04-03T09:52:19Z</time></trkpt><trkpt lat="45.82991945954358" lon="9.220971494966083"><ele>388.0</ele><time>2026-04-03T09:52:20Z</time></trkpt><trkpt lat="45.830013641628625" lon="9.221098750736193"><ele>388.0</ele><time>2026-04-03T09:52:21Z</time></trkpt><trkpt lat="45.8301125770129" lon="9.221223918454966"><ele>388.0</ele><time>2026-04-03T09:52:22Z</time></trkpt><trkpt lat="45.83021138522247" lon="9.221342338218681"><ele>388.0</ele><time>2026-04-03T09:52:23Z</time></trkpt><trkpt lat="45.830310255159006" lon="9.221469094502465"><ele>388.0</ele><time>2026-04-03T09:52:24Z</time></trkpt><trkpt lat="45.830417609216795" lon="9.221602784960522"><ele>388.0</ele><time>2026-04-03T09:52:25Z</time></trkpt><trkpt lat="45.83053347969335" lon="9.221735218867574"><ele>388.0</ele><time>2026-04-03T09:52:26Z</time></trkpt><trkpt lat="45.83065599101083" lon="9.22185783321753"><ele>388.0</ele><time>2026-04-03T09:52:27Z</time></trkpt><trkpt lat="45.83077801995053" lon="9.221972163704617"><ele>388.0</ele><time>2026-04-03T09:52:28Z</time></trkpt><trkpt lat="45.83090234438981" lon="9.222077600791863"><ele>383.25</ele><time>2026-04-03T09:52:29Z</time></trkpt><trkpt lat="45.83102770674662" lon="9.22217739369692"><ele>378.5</ele><time>2026-04-03T09:52:30Z</time></trkpt><trkpt lat="45.83115660889368" lon="9.222268950036408"><ele>373.75</ele><time>2026-04-03T09:52:31Z</time></trkpt><trkpt lat="45.83128761331022" lon="9.222350213713307"><ele>369.0</ele><time>2026-04-03T09:52:32Z</time></trkpt><trkpt lat="45.8314258596097" lon="9.222424876504336"><ele>369.0</ele><time>2026-04-03T09:52:33Z</time></trkpt><trkpt lat="45.83156471455291" lon="9.222494238853379"><ele>369.0</ele><time>2026-04-03T09:52:34Z</time></trkpt><trkpt lat="45.83170687142271" lon="9.222562151604667"><ele>369.0</ele><time>2026-04-03T09:52:35Z</time></trkpt><trkpt lat="45.83184763830897" lon="9.222630766604231"><ele>369.0</ele><time>2026-04-03T09:52:36Z</time></trkpt><trkpt lat="45.831991340432374" lon="9.222701641888245"><ele>375.75</ele><time>2026-04-03T09:52:37Z</time></trkpt><trkpt lat="45.8321332043339" lon="9.22277594500733"><ele>382.5</ele><time>2026-04-03T09:52:38Z</time></trkpt><trkpt lat="45.832269456975595" lon="9.222850370821975"><ele>389.25</ele><time>2026-04-03T09:52:39Z</time></trkpt><trkpt lat="45.83240598982078" lon="9.222925230494273"><ele>396.0</ele><time>2026-04-03T09:52:40Z</time></trkpt><trkpt lat="45.832543401804685" lon="9.22301246474106"><ele>397.66666666666663</ele><time>2026-04-03T09:52:41Z</time></trkpt><trkpt lat="45.83269387131197" lon="9.223122737622571"><ele>399.3333333333333</ele><time>2026-04-03T09:52:42.063Z</time></trkpt><trkpt lat="45.832832202230186" lon="9.223248819756897"><ele>401.0</ele><time>2026-04-03T09:52:43.054Z</time></trkpt><trkpt lat="45.83294949461707" lon="9.223407868989815"><ele>389.5</ele><time>2026-04-03T09:52:44Z</time></trkpt><trkpt lat="45.83301056538169" lon="9.223503227379393"><ele>378.0</ele><time>2026-04-03T09:52:45Z</time></trkpt><trkpt lat="45.833100215922194" lon="9.22363359973676"><ele>366.5</ele><time>2026-04-03T09:52:46Z</time></trkpt><trkpt lat="45.83317716522699" lon="9.223786977284574"><ele>355.0</ele><time>2026-04-03T09:52:47Z</time></trkpt><trkpt lat="45.83325776834574" lon="9.223943939884084"><ele>348.75</ele><time>2026-04-03T09:52:48Z</time></trkpt><trkpt lat="45.833314027751754" lon="9.224140000976151"><ele>342.5</ele><time>2026-04-03T09:52:49Z</time></trkpt><trkpt lat="45.83336650118007" lon="9.224321742448378"><ele>336.25</ele><time>2026-04-03T09:52:50Z</time></trkpt><trkpt lat="45.83340892224187" lon="9.224511798758423"><ele>330.0</ele><time>2026-04-03T09:52:51Z</time></trkpt><trkpt lat="45.833454634519185" lon="9.224691170070631"><ele>329.0</ele><time>2026-04-03T09:52:52Z</time></trkpt><trkpt lat="45.833501962272244" lon="9.224867627756772"><ele>328.0</ele><time>2026-04-03T09:52:53Z</time></trkpt><trkpt lat="45.833548105604685" lon="9.225046642727285"><ele>327.0</ele><time>2026-04-03T09:52:54Z</time></trkpt><trkpt lat="45.833591733642116" lon="9.22522772241262"><ele>326.0</ele><time>2026-04-03T09:52:55Z</time></trkpt><trkpt lat="45.83363129833547" lon="9.225409890930576"><ele>326.0</ele><time>2026-04-03T09:52:56Z</time></trkpt><trkpt lat="45.833665344118984" lon="9.225587655434044"><ele>326.0</ele><time>2026-04-03T09:52:57Z</time></trkpt><trkpt lat="45.83370599975832" lon="9.225750699148657"><ele>326.0</ele><time>2026-04-03T09:52:58Z</time></trkpt><trkpt lat="45.833753190449684" lon="9.225897262268703"><ele>326.0</ele><time>2026-04-03T09:52:59Z</time></trkpt><trkpt lat="45.83379490555582" lon="9.226021871174881"><ele>327.20000000000005</ele><time>2026-04-03T09:53:00Z</time></trkpt><trkpt lat="45.83383297424714" lon="9.22613434974938"><ele>328.40000000000003</ele><time>2026-04-03T09:53:01Z</time></trkpt><trkpt lat="45.833866367255624" lon="9.226232831541969"><ele>329.6</ele><time>2026-04-03T09:53:02Z</time></trkpt><trkpt lat="45.83389715500621" lon="9.226318195794553"><ele>330.8</ele><time>2026-04-03T09:53:03Z</time></trkpt><trkpt lat="45.83396688510466" lon="9.226493281997978"><ele>332.0</ele><time>2026-04-03T09:53:05Z</time></trkpt><trkpt lat="45.834008342195474" lon="9.22663118116014"><ele>333.33333333333337</ele><time>2026-04-03T09:53:06Z</time></trkpt><trkpt lat="45.83406052539152" lon="9.226794487902664"><ele>334.6666666666667</ele><time>2026-04-03T09:53:07Z</time></trkpt><trkpt lat="45.83413904537041" lon="9.226991931742132"><ele>336.0</ele><time>2026-04-03T09:53:08Z</time></trkpt><trkpt lat="45.83422873256896" lon="9.227219249777951"><ele>333.3333333333333</ele><time>2026-04-03T09:53:09Z</time></trkpt><trkpt lat="45.8343252497794" lon="9.227461125297179"><ele>330.66666666666663</ele><time>2026-04-03T09:53:09.999Z</time></trkpt><trkpt lat="45.83441388568777" lon="9.227731094105868"><ele>328.0</ele><time>2026-04-03T09:53:10.999Z</time></trkpt><trkpt lat="45.83448669608149" lon="9.228021958422158"><ele>328.0</ele><time>2026-04-03T09:53:11.999Z</time></trkpt><trkpt lat="45.83455066838053" lon="9.228343107686726"><ele>328.0</ele><time>2026-04-03T09:53:12.999Z</time></trkpt><trkpt lat="45.834608727558724" lon="9.22868705774123"><ele>328.3333333333333</ele><time>2026-04-03T09:53:13.999Z</time></trkpt><trkpt lat="45.834667692706255" lon="9.228987692521095"><ele>328.6666666666667</ele><time>2026-04-03T09:53:14.999Z</time></trkpt><trkpt lat="45.83469859283078" lon="9.22925638868059"><ele>329.0</ele><time>2026-04-03T09:53:15.999Z</time></trkpt><trkpt lat="45.834751368992016" lon="9.229487955980334"><ele>329.0</ele><time>2026-04-03T09:53:16.999Z</time></trkpt><trkpt lat="45.83479229705538" lon="9.22970802536524"><ele>329.0</ele><time>2026-04-03T09:53:17.999Z</time></trkpt><trkpt lat="45.83483162773353" lon="9.22992385989847"><ele>329.0</ele><time>2026-04-03T09:53:18.999Z</time></trkpt><trkpt lat="45.834853384434666" lon="9.230141908282004"><ele>331.0</ele><time>2026-04-03T09:53:19.999Z</time></trkpt><trkpt lat="45.83489154537829" lon="9.230355787058434"><ele>333.0</ele><time>2026-04-03T09:53:20.999Z</time></trkpt><trkpt lat="45.83492638347152" lon="9.230551042411697"><ele>335.0</ele><time>2026-04-03T09:53:21.999Z</time></trkpt><trkpt lat="45.834972254309086" lon="9.230717482328702"><ele>337.0</ele><time>2026-04-03T09:53:22.999Z</time></trkpt><trkpt lat="45.83500360933635" lon="9.230888451697284"><ele>338.75</ele><time>2026-04-03T09:53:23.999Z</time></trkpt><trkpt lat="45.8350195144783" lon="9.23107031899687"><ele>340.5</ele><time>2026-04-03T09:53:24.999Z</time></trkpt><trkpt lat="45.83505080587636" lon="9.231244513025295"><ele>342.25</ele><time>2026-04-03T09:53:25.999Z</time></trkpt><trkpt lat="45.8350952358708" lon="9.231404176138602"><ele>344.0</ele><time>2026-04-03T09:53:26.999Z</time></trkpt><trkpt lat="45.83512023228918" lon="9.231547270571562"><ele>341.2</ele><time>2026-04-03T09:53:27.999Z</time></trkpt><trkpt lat="45.835144454881885" lon="9.231681726333916"><ele>338.4</ele><time>2026-04-03T09:53:28.999Z</time></trkpt><trkpt lat="45.835168914023974" lon="9.231830162347164"><ele>335.6</ele><time>2026-04-03T09:53:29.999Z</time></trkpt><trkpt lat="45.83519256448873" lon="9.23196746650848"><ele>332.8</ele><time>2026-04-03T09:53:30.999Z</time></trkpt><trkpt lat="45.83521966015403" lon="9.232102362790807"><ele>330.0</ele><time>2026-04-03T09:53:31.999Z</time></trkpt><trkpt lat="45.835247244966055" lon="9.232260368864113"><ele>331.0</ele><time>2026-04-03T09:53:32.999Z</time></trkpt><trkpt lat="45.83526890355034" lon="9.232453798761687"><ele>332.0</ele><time>2026-04-03T09:53:33.999Z</time></trkpt><trkpt lat="45.8352845858572" lon="9.232677285215601"><ele>333.0</ele><time>2026-04-03T09:53:34.999Z</time></trkpt><trkpt lat="45.83531231225404" lon="9.232917576212701"><ele>334.6666666666667</ele><time>2026-04-03T09:53:35.999Z</time></trkpt><trkpt lat="45.835325254806875" lon="9.233187659800844"><ele>336.33333333333337</ele><time>2026-04-03T09:53:36.999Z</time></trkpt><trkpt lat="45.83535462188108" lon="9.233471738695352"><ele>338.0</ele><time>2026-04-03T09:53:37.999Z</time></trkpt><trkpt lat="45.83538820835265" lon="9.233763231848489"><ele>340.6666666666667</ele><time>2026-04-03T09:53:38.999Z</time></trkpt><trkpt lat="45.83542981189944" lon="9.23406600177821"><ele>343.3333333333333</ele><time>2026-04-03T09:53:39.999Z</time></trkpt><trkpt lat="45.83547650746766" lon="9.234340102065007"><ele>346.0</ele><time>2026-04-03T09:53:40.999Z</time></trkpt><trkpt lat="45.83552136884375" lon="9.234579418680632"><ele>346.0</ele><time>2026-04-03T09:53:41.999Z</time></trkpt><trkpt lat="45.835558909725236" lon="9.23481285673688"><ele>346.0</ele><time>2026-04-03T09:53:42.999Z</time></trkpt><trkpt lat="45.83559267335057" lon="9.235062040200587"><ele>346.0</ele><time>2026-04-03T09:53:43.999Z</time></trkpt><trkpt lat="45.83564311781864" lon="9.235317366984528"><ele>346.0</ele><time>2026-04-03T09:53:44.999Z</time></trkpt><trkpt lat="45.83565801508121" lon="9.23558837923653"><ele>346.0</ele><time>2026-04-03T09:53:45.999Z</time></trkpt><trkpt lat="45.835684209129134" lon="9.235850285784615"><ele>346.0</ele><time>2026-04-03T09:53:46.999Z</time></trkpt><trkpt lat="45.8357103196261" lon="9.236110263627312"><ele>346.3333333333333</ele><time>2026-04-03T09:53:47.999Z</time></trkpt><trkpt lat="45.835745747199105" lon="9.236360600809585"><ele>346.6666666666667</ele><time>2026-04-03T09:53:48.999Z</time></trkpt><trkpt lat="45.83579442540209" lon="9.236598590592184"><ele>347.0</ele><time>2026-04-03T09:53:49.999Z</time></trkpt><trkpt lat="45.83588726409194" lon="9.236824659662924"><ele>348.33333333333337</ele><time>2026-04-03T09:53:50.999Z</time></trkpt><trkpt lat="45.835966752540635" lon="9.237044338438848"><ele>349.6666666666667</ele><time>2026-04-03T09:53:51.999Z</time></trkpt><trkpt lat="45.83603279311683" lon="9.23726442758966"><ele>351.0</ele><time>2026-04-03T09:53:52.999Z</time></trkpt><trkpt lat="45.836112104895065" lon="9.237478243290155"><ele>352.0</ele><time>2026-04-03T09:53:53.999Z</time></trkpt><trkpt lat="45.83619127097993" lon="9.237694142341827"><ele>353.0</ele><time>2026-04-03T09:53:54.999Z</time></trkpt><trkpt lat="45.83627151007179" lon="9.23791344417753"><ele>354.0</ele><time>2026-04-03T09:53:55.999Z</time></trkpt><trkpt lat="45.836350051499146" lon="9.238128106109917"><ele>353.0</ele><time>2026-04-03T09:53:56.999Z</time></trkpt><trkpt lat="45.83644405736021" lon="9.2383331292301"><ele>352.0</ele><time>2026-04-03T09:53:57.999Z</time></trkpt><trkpt lat="45.83652147076648" lon="9.238546413036508"><ele>351.0</ele><time>2026-04-03T09:53:58.999Z</time></trkpt><trkpt lat="45.83658692121842" lon="9.238773366571495"><ele>349.6666666666667</ele><time>2026-04-03T09:53:59.999Z</time></trkpt><trkpt lat="45.83666683286422" lon="9.238999002791248"><ele>348.33333333333337</ele><time>2026-04-03T09:54:00.999Z</time></trkpt><trkpt lat="45.836742164909516" lon="9.239225790010918"><ele>347.0</ele><time>2026-04-03T09:54:01.999Z</time></trkpt><trkpt lat="45.83680984369453" lon="9.239455528151382"><ele>347.0</ele><time>2026-04-03T09:54:02.999Z</time></trkpt><trkpt lat="45.83687313724356" lon="9.239699090431353"><ele>347.0</ele><time>2026-04-03T09:54:03.999Z</time></trkpt><trkpt lat="45.83692130529626" lon="9.239902098601528"><ele>347.0</ele><time>2026-04-03T09:54:04.999Z</time></trkpt><trkpt lat="45.83697986037081" lon="9.240158148523719"><ele>347.0</ele><time>2026-04-03T09:54:05.999Z</time></trkpt><trkpt lat="45.83703573782826" lon="9.240419657512932"><ele>347.0</ele><time>2026-04-03T09:54:06.999Z</time></trkpt><trkpt lat="45.83710645883495" lon="9.240664459137228"><ele>347.0</ele><time>2026-04-03T09:54:07.999Z</time></trkpt><trkpt lat="45.83715959135396" lon="9.24091561965713"><ele>345.0</ele><time>2026-04-03T09:54:08.999Z</time></trkpt><trkpt lat="45.83723218976368" lon="9.24116677129892"><ele>343.0</ele><time>2026-04-03T09:54:09.999Z</time></trkpt><trkpt lat="45.83731385366949" lon="9.2413985212846"><ele>341.0</ele><time>2026-04-03T09:54:10.999Z</time></trkpt><trkpt lat="45.8373956601935" lon="9.241604732298079"><ele>341.0</ele><time>2026-04-03T09:54:11.999Z</time></trkpt><trkpt lat="45.837480790199045" lon="9.241798091489676"><ele>341.0</ele><time>2026-04-03T09:54:12.999Z</time></trkpt><trkpt lat="45.837561681835275" lon="9.241946082719018"><ele>341.0</ele><time>2026-04-03T09:54:13.999Z</time></trkpt><trkpt lat="45.83763983936151" lon="9.242102980996695"><ele>341.0</ele><time>2026-04-03T09:54:14.999Z</time></trkpt><trkpt lat="45.83771997009122" lon="9.242247535014886"><ele>341.25</ele><time>2026-04-03T09:54:15.999Z</time></trkpt><trkpt lat="45.83780286984596" lon="9.2423834017784"><ele>341.5</ele><time>2026-04-03T09:54:17Z</time></trkpt><trkpt lat="45.8378887785499" lon="9.242513865889583"><ele>341.75</ele><time>2026-04-03T09:54:18Z</time></trkpt><trkpt lat="45.837977991830854" lon="9.24263225746418"><ele>342.0</ele><time>2026-04-03T09:54:19Z</time></trkpt><trkpt lat="45.83807270101075" lon="9.242736646944827"><ele>342.0</ele><time>2026-04-03T09:54:20Z</time></trkpt><trkpt lat="45.838159685279166" lon="9.242845311879982"><ele>342.0</ele><time>2026-04-03T09:54:21Z</time></trkpt><trkpt lat="45.838244097399944" lon="9.242963058652037"><ele>342.0</ele><time>2026-04-03T09:54:22Z</time></trkpt><trkpt lat="45.838330864680515" lon="9.243078421369104"><ele>342.0</ele><time>2026-04-03T09:54:23Z</time></trkpt><trkpt lat="45.83840829724357" lon="9.243223169691879"><ele>343.0</ele><time>2026-04-03T09:54:24Z</time></trkpt><trkpt lat="45.838476909934435" lon="9.243375562945396"><ele>344.0</ele><time>2026-04-03T09:54:25Z</time></trkpt><trkpt lat="45.8385255559832" lon="9.243548491085148"><ele>345.0</ele><time>2026-04-03T09:54:26Z</time></trkpt><trkpt lat="45.838556210700204" lon="9.243749984784115"><ele>346.0</ele><time>2026-04-03T09:54:27Z</time></trkpt><trkpt lat="45.83858755824856" lon="9.243961549538973"><ele>345.0</ele><time>2026-04-03T09:54:28Z</time></trkpt><trkpt lat="45.838616944993475" lon="9.24418076836183"><ele>344.0</ele><time>2026-04-03T09:54:29Z</time></trkpt><trkpt lat="45.83864944508471" lon="9.244411344127684"><ele>343.0</ele><time>2026-04-03T09:54:30Z</time></trkpt><trkpt lat="45.8386904126887" lon="9.244653422986547"><ele>343.66666666666663</ele><time>2026-04-03T09:54:31Z</time></trkpt><trkpt lat="45.83874340079979" lon="9.244905700304505"><ele>344.3333333333333</ele><time>2026-04-03T09:54:32Z</time></trkpt><trkpt lat="45.83879535663671" lon="9.245161546481498"><ele>345.0</ele><time>2026-04-03T09:54:33Z</time></trkpt><trkpt lat="45.83883790513567" lon="9.245417145318761"><ele>346.0</ele><time>2026-04-03T09:54:34Z</time></trkpt><trkpt lat="45.83888745545131" lon="9.245665374851129"><ele>347.0</ele><time>2026-04-03T09:54:35Z</time></trkpt><trkpt lat="45.83895350055568" lon="9.24590527294608"><ele>348.0</ele><time>2026-04-03T09:54:36Z</time></trkpt><trkpt lat="45.83903057872916" lon="9.24612041603449"><ele>348.0</ele><time>2026-04-03T09:54:37Z</time></trkpt><trkpt lat="45.83910781985004" lon="9.246314323429235"><ele>348.0</ele><time>2026-04-03T09:54:38Z</time></trkpt><trkpt lat="45.83917683914877" lon="9.246485173685159"><ele>348.0</ele><time>2026-04-03T09:54:39Z</time></trkpt><trkpt lat="45.83924177178899" lon="9.246650427033108"><ele>348.0</ele><time>2026-04-03T09:54:40Z</time></trkpt><trkpt lat="45.839308368591" lon="9.246808795309388"><ele>348.25</ele><time>2026-04-03T09:54:41Z</time></trkpt><trkpt lat="45.83936985614931" lon="9.246964713004683"><ele>348.5</ele><time>2026-04-03T09:54:42Z</time></trkpt><trkpt lat="45.83943191441114" lon="9.24710811986128"><ele>348.75</ele><time>2026-04-03T09:54:43Z</time></trkpt><trkpt lat="45.83948969213169" lon="9.247254980698397"><ele>349.0</ele><time>2026-04-03T09:54:44Z</time></trkpt><trkpt lat="45.83954693181207" lon="9.24739338961304"><ele>350.0</ele><time>2026-04-03T09:54:45Z</time></trkpt><trkpt lat="45.83959652915592" lon="9.247517858369482"><ele>351.0</ele><time>2026-04-03T09:54:46Z</time></trkpt><trkpt lat="45.83964777791317" lon="9.247639329225319"><ele>352.0</ele><time>2026-04-03T09:54:47Z</time></trkpt><trkpt lat="45.83969802455114" lon="9.247796535216596"><ele>353.0</ele><time>2026-04-03T09:54:48Z</time></trkpt><trkpt lat="45.839754290566205" lon="9.247980136527033"><ele>353.0</ele><time>2026-04-03T09:54:49Z</time></trkpt><trkpt lat="45.839813188032586" lon="9.248185889273838"><ele>353.0</ele><time>2026-04-03T09:54:50Z</time></trkpt><trkpt lat="45.83988320210927" lon="9.248403519135172"><ele>353.0</ele><time>2026-04-03T09:54:51Z</time></trkpt><trkpt lat="45.83998527903944" lon="9.248622512025735"><ele>353.0</ele><time>2026-04-03T09:54:52Z</time></trkpt><trkpt lat="45.84010674688584" lon="9.2488476651786"><ele>353.0</ele><time>2026-04-03T09:54:53Z</time></trkpt><trkpt lat="45.840216801690524" lon="9.249069781457004"><ele>353.0</ele><time>2026-04-03T09:54:54Z</time></trkpt><trkpt lat="45.840300558752006" lon="9.249264174130301"><ele>352.6666666666667</ele><time>2026-04-03T09:54:55Z</time></trkpt><trkpt lat="45.84037150233253" lon="9.249448137830697"><ele>352.3333333333333</ele><time>2026-04-03T09:54:56Z</time></trkpt><trkpt lat="45.84044182102002" lon="9.249639199139189"><ele>352.0</ele><time>2026-04-03T09:54:57Z</time></trkpt><trkpt lat="45.840525899143415" lon="9.249834997413938"><ele>352.0</ele><time>2026-04-03T09:54:58Z</time></trkpt><trkpt lat="45.84060497693541" lon="9.250019161438525"><ele>352.0</ele><time>2026-04-03T09:54:59Z</time></trkpt><trkpt lat="45.84067552025262" lon="9.250198653170871"><ele>352.0</ele><time>2026-04-03T09:55:00Z</time></trkpt><trkpt lat="45.84074596481884" lon="9.250370193480176"><ele>352.0</ele><time>2026-04-03T09:55:01Z</time></trkpt><trkpt lat="45.84082009404469" lon="9.250536650269643"><ele>351.75</ele><time>2026-04-03T09:55:02Z</time></trkpt><trkpt lat="45.84089473545457" lon="9.250692302678726"><ele>351.5</ele><time>2026-04-03T09:55:03Z</time></trkpt><trkpt lat="45.84096457147388" lon="9.250839148380024"><ele>351.25</ele><time>2026-04-03T09:55:04Z</time></trkpt><trkpt lat="45.841033365409174" lon="9.25098073010123"><ele>351.0</ele><time>2026-04-03T09:55:05Z</time></trkpt><trkpt lat="45.841111346906345" lon="9.251119929020136"><ele>351.0</ele><time>2026-04-03T09:55:06Z</time></trkpt><trkpt lat="45.841198258526056" lon="9.251248073333274"><ele>351.0</ele><time>2026-04-03T09:55:07Z</time></trkpt><trkpt lat="45.84129308719139" lon="9.251371808222933"><ele>351.0</ele><time>2026-04-03T09:55:08Z</time></trkpt><trkpt lat="45.84138561374755" lon="9.251492018523807"><ele>351.0</ele><time>2026-04-03T09:55:09Z</time></trkpt><trkpt lat="45.84147623026236" lon="9.251606308908881"><ele>351.75</ele><time>2026-04-03T09:55:10Z</time></trkpt><trkpt lat="45.841564234044434" lon="9.251716684959602"><ele>352.5</ele><time>2026-04-03T09:55:11Z</time></trkpt><trkpt lat="45.84164995335472" lon="9.251826109593727"><ele>353.25</ele><time>2026-04-03T09:55:12Z</time></trkpt><trkpt lat="45.841732875491466" lon="9.251933101831229"><ele>354.0</ele><time>2026-04-03T09:55:13Z</time></trkpt><trkpt lat="45.84181781016947" lon="9.252037030872723"><ele>354.0</ele><time>2026-04-03T09:55:14Z</time></trkpt><trkpt lat="45.841904880402566" lon="9.252143748842858"><ele>354.0</ele><time>2026-04-03T09:55:15Z</time></trkpt><trkpt lat="45.841992995071266" lon="9.252255464276654"><ele>354.0</ele><time>2026-04-03T09:55:16Z</time></trkpt><trkpt lat="45.84208236956462" lon="9.25236785341486"><ele>354.0</ele><time>2026-04-03T09:55:17Z</time></trkpt><trkpt lat="45.84217115029025" lon="9.252480745757909"><ele>353.75</ele><time>2026-04-03T09:55:18Z</time></trkpt><trkpt lat="45.84225900880727" lon="9.252594538879274"><ele>353.5</ele><time>2026-04-03T09:55:19Z</time></trkpt><trkpt lat="45.842345423243344" lon="9.252711353678336"><ele>353.25</ele><time>2026-04-03T09:55:20Z</time></trkpt><trkpt lat="45.84243323766795" lon="9.252835237409109"><ele>353.0</ele><time>2026-04-03T09:55:21Z</time></trkpt><trkpt lat="45.84251562673101" lon="9.25296551630138"><ele>353.0</ele><time>2026-04-03T09:55:22Z</time></trkpt><trkpt lat="45.84258845583188" lon="9.253101266419858"><ele>353.0</ele><time>2026-04-03T09:55:23Z</time></trkpt><trkpt lat="45.842646264764895" lon="9.253227107247758"><ele>353.0</ele><time>2026-04-03T09:55:24Z</time></trkpt><trkpt lat="45.84270959698068" lon="9.253355123366392"><ele>353.0</ele><time>2026-04-03T09:55:25Z</time></trkpt><trkpt lat="45.84278632228569" lon="9.253494970966962"><ele>354.33333333333337</ele><time>2026-04-03T09:55:26Z</time></trkpt><trkpt lat="45.84289864585262" lon="9.253641021486688"><ele>355.6666666666667</ele><time>2026-04-03T09:55:27Z</time></trkpt><trkpt lat="45.84305759743693" lon="9.253781495598695"><ele>357.0</ele><time>2026-04-03T09:55:28Z</time></trkpt><trkpt lat="45.843240723745346" lon="9.253917793957987"><ele>357.0</ele><time>2026-04-03T09:55:29Z</time></trkpt><trkpt lat="45.843434813008294" lon="9.254054900575671"><ele>357.0</ele><time>2026-04-03T09:55:29.999Z</time></trkpt><trkpt lat="45.84361364992717" lon="9.254216870104885"><ele>357.0</ele><time>2026-04-03T09:55:30.999Z</time></trkpt><trkpt lat="45.843761618842336" lon="9.25437912349824"><ele>356.6666666666667</ele><time>2026-04-03T09:55:31.999Z</time></trkpt><trkpt lat="45.843896156540985" lon="9.25453339746295"><ele>356.33333333333337</ele><time>2026-04-03T09:55:32.999Z</time></trkpt><trkpt lat="45.84402356825713" lon="9.254665310723885"><ele>356.0</ele><time>2026-04-03T09:55:33.999Z</time></trkpt><trkpt lat="45.84413440342197" lon="9.254786645679518"><ele>356.25</ele><time>2026-04-03T09:55:34.999Z</time></trkpt><trkpt lat="45.84423766016034" lon="9.254900992110255"><ele>356.5</ele><time>2026-04-03T09:55:35.999Z</time></trkpt><trkpt lat="45.844348798685225" lon="9.255024596342428"><ele>356.75</ele><time>2026-04-03T09:55:36.999Z</time></trkpt><trkpt lat="45.844474042746704" lon="9.255159714175191"><ele>357.0</ele><time>2026-04-03T09:55:37.999Z</time></trkpt><trkpt lat="45.844596784501825" lon="9.255292060227127"><ele>357.25</ele><time>2026-04-03T09:55:38.999Z</time></trkpt><trkpt lat="45.844711351831734" lon="9.2554163607959"><ele>357.5</ele><time>2026-04-03T09:55:39.999Z</time></trkpt><trkpt lat="45.84482492766361" lon="9.25553819223295"><ele>357.75</ele><time>2026-04-03T09:55:40.999Z</time></trkpt><trkpt lat="45.8449347259608" lon="9.255658079353454"><ele>358.0</ele><time>2026-04-03T09:55:41.999Z</time></trkpt><trkpt lat="45.84503834144268" lon="9.255772592925334"><ele>358.4</ele><time>2026-04-03T09:55:42.999Z</time></trkpt><trkpt lat="45.84514030905159" lon="9.2558810983446"><ele>358.79999999999995</ele><time>2026-04-03T09:55:43.999Z</time></trkpt><trkpt lat="45.845233043479816" lon="9.255985230589069"><ele>359.2</ele><time>2026-04-03T09:55:44.999Z</time></trkpt><trkpt lat="45.84531367257596" lon="9.256078117458081"><ele>359.6</ele><time>2026-04-03T09:55:45.999Z</time></trkpt><trkpt lat="45.84538240865067" lon="9.256149852423775"><ele>360.0</ele><time>2026-04-03T09:55:46.999Z</time></trkpt><trkpt lat="45.84543855303938" lon="9.256211175534249"><ele>360.0</ele><time>2026-04-03T09:55:47.999Z</time></trkpt><trkpt lat="45.84548705578399" lon="9.256270876244386"><ele>360.0</ele><time>2026-04-03T09:55:48.999Z</time></trkpt><trkpt lat="45.84557512705455" lon="9.256387500265152"><ele>360.0</ele><time>2026-04-03T09:55:50.999Z</time></trkpt><trkpt lat="45.84562089741662" lon="9.256475219435096"><ele>360.0</ele><time>2026-04-03T09:55:51.999Z</time></trkpt><trkpt lat="45.8456746110314" lon="9.256567195626609"><ele>360.0</ele><time>2026-04-03T09:55:52.999Z</time></trkpt><trkpt lat="45.845751391979924" lon="9.256623530878848"><ele>360.0</ele><time>2026-04-03T09:55:53.999Z</time></trkpt><trkpt lat="45.84583819879919" lon="9.256667926408774"><ele>360.2</ele><time>2026-04-03T09:55:54.999Z</time></trkpt><trkpt lat="45.84592034983603" lon="9.25673917814558"><ele>360.4</ele><time>2026-04-03T09:55:55.999Z</time></trkpt><trkpt lat="45.845999198564684" lon="9.256834598735848"><ele>360.6</ele><time>2026-04-03T09:55:56.999Z</time></trkpt><trkpt lat="45.846088667774836" lon="9.25694239193631"><ele>360.8</ele><time>2026-04-03T09:55:57.999Z</time></trkpt><trkpt lat="45.846196282242374" lon="9.257054753064347"><ele>361.0</ele><time>2026-04-03T09:55:58.999Z</time></trkpt><trkpt lat="45.84631162287036" lon="9.25717731518727"><ele>362.3333333333333</ele><time>2026-04-03T09:55:59.999Z</time></trkpt><trkpt lat="45.84642896140197" lon="9.257301374520633"><ele>363.6666666666667</ele><time>2026-04-03T09:56:00.999Z</time></trkpt><trkpt lat="45.8465494682473" lon="9.257431526329"><ele>365.0</ele><time>2026-04-03T09:56:01.999Z</time></trkpt><trkpt lat="45.84666918477772" lon="9.257571501771409"><ele>365.0</ele><time>2026-04-03T09:56:02.999Z</time></trkpt><trkpt lat="45.846789634760505" lon="9.257719443941351"><ele>365.0</ele><time>2026-04-03T09:56:03.999Z</time></trkpt><trkpt lat="45.84690496274701" lon="9.257877890090224"><ele>365.0</ele><time>2026-04-03T09:56:04.999Z</time></trkpt><trkpt lat="45.84700781309025" lon="9.258044889757272"><ele>366.33333333333337</ele><time>2026-04-03T09:56:05.999Z</time></trkpt><trkpt lat="45.84710504887407" lon="9.258218112128265"><ele>367.6666666666667</ele><time>2026-04-03T09:56:06.999Z</time></trkpt><trkpt lat="45.847198150389524" lon="9.258402496740667"><ele>369.0</ele><time>2026-04-03T09:56:07.999Z</time></trkpt><trkpt lat="45.847291619294" lon="9.258588263097083"><ele>369.0</ele><time>2026-04-03T09:56:08.999Z</time></trkpt><trkpt lat="45.84738507289831" lon="9.258826601520065"><ele>369.0</ele><time>2026-04-03T09:56:09.999Z</time></trkpt><trkpt lat="45.847549246290384" lon="9.259075995344995"><ele>369.0</ele><time>2026-04-03T09:56:10.999Z</time></trkpt><trkpt lat="45.8476914154285" lon="9.25937795150699"><ele>368.0</ele><time>2026-04-03T09:56:11.999Z</time></trkpt><trkpt lat="45.84783660005918" lon="9.259686904540763"><ele>367.0</ele><time>2026-04-03T09:56:12.999Z</time></trkpt><trkpt lat="45.847969103323784" lon="9.259972786653414"><ele>366.0</ele><time>2026-04-03T09:56:13.999Z</time></trkpt><trkpt lat="45.84808727684661" lon="9.26030258028111"><ele>365.0</ele><time>2026-04-03T09:56:14.999Z</time></trkpt><trkpt lat="45.84824629165875" lon="9.260605258213314"><ele>367.0</ele><time>2026-04-03T09:56:15.999Z</time></trkpt><trkpt lat="45.84837531185929" lon="9.260892024383418"><ele>369.0</ele><time>2026-04-03T09:56:16.999Z</time></trkpt><trkpt lat="45.848494726802976" lon="9.261130521733161"><ele>371.0</ele><time>2026-04-03T09:56:17.999Z</time></trkpt><trkpt lat="45.84860579893274" lon="9.261354778605773"><ele>371.0</ele><time>2026-04-03T09:56:18.999Z</time></trkpt><trkpt lat="45.84872032954996" lon="9.261606747428676"><ele>371.0</ele><time>2026-04-03T09:56:19.999Z</time></trkpt><trkpt lat="45.848845642681184" lon="9.261865740650869"><ele>371.0</ele><time>2026-04-03T09:56:20.999Z</time></trkpt><trkpt lat="45.84898702855636" lon="9.262121376356259"><ele>371.5</ele><time>2026-04-03T09:56:21.999Z</time></trkpt><trkpt lat="45.8491409303094" lon="9.262369101182138"><ele>372.0</ele><time>2026-04-03T09:56:23Z</time></trkpt><trkpt lat="45.849313575761975" lon="9.2626054471168"><ele>372.0</ele><time>2026-04-03T09:56:24Z</time></trkpt><trkpt lat="45.84948440270923" lon="9.262822195713264"><ele>372.0</ele><time>2026-04-03T09:56:25Z</time></trkpt><trkpt lat="45.8496302851276" lon="9.26303619733779"><ele>372.0</ele><time>2026-04-03T09:56:26Z</time></trkpt><trkpt lat="45.84978421635016" lon="9.263235387520302"><ele>372.3333333333333</ele><time>2026-04-03T09:56:27Z</time></trkpt><trkpt lat="45.84993690679943" lon="9.263439030490709"><ele>372.66666666666663</ele><time>2026-04-03T09:56:28Z</time></trkpt><trkpt lat="45.85008262646849" lon="9.26365665095105"><ele>373.0</ele><time>2026-04-03T09:56:29Z</time></trkpt><trkpt lat="45.85023739467154" lon="9.263904303379345"><ele>375.0</ele><time>2026-04-03T09:56:30Z</time></trkpt><trkpt lat="45.85040710201859" lon="9.264180795506874"><ele>377.0</ele><time>2026-04-03T09:56:31Z</time></trkpt><trkpt lat="45.850586399672764" lon="9.26447621034018"><ele>377.0</ele><time>2026-04-03T09:56:32Z</time></trkpt><trkpt lat="45.85077139069585" lon="9.264771401248845"><ele>377.0</ele><time>2026-04-03T09:56:33Z</time></trkpt><trkpt lat="45.85094956130458" lon="9.265063102377958"><ele>377.0</ele><time>2026-04-03T09:56:34Z</time></trkpt><trkpt lat="45.85112294654478" lon="9.265332439412074"><ele>377.0</ele><time>2026-04-03T09:56:35Z</time></trkpt><trkpt lat="45.851288148115515" lon="9.26560204883101"><ele>378.5</ele><time>2026-04-03T09:56:36Z</time></trkpt><trkpt lat="45.85144923889554" lon="9.265874207949672"><ele>380.0</ele><time>2026-04-03T09:56:37Z</time></trkpt><trkpt lat="45.85161895367189" lon="9.266146530733485"><ele>380.0</ele><time>2026-04-03T09:56:38Z</time></trkpt><trkpt lat="45.85177199092455" lon="9.266432360542689"><ele>380.0</ele><time>2026-04-03T09:56:39Z</time></trkpt><trkpt lat="45.851944322696156" lon="9.266695330803827"><ele>380.0</ele><time>2026-04-03T09:56:40Z</time></trkpt><trkpt lat="45.85209477426359" lon="9.266977249602997"><ele>380.0</ele><time>2026-04-03T09:56:41Z</time></trkpt><trkpt lat="45.852239010525174" lon="9.26724439761091"><ele>381.6666666666667</ele><time>2026-04-03T09:56:42Z</time></trkpt><trkpt lat="45.85237209630056" lon="9.26750116020557"><ele>383.33333333333337</ele><time>2026-04-03T09:56:43Z</time></trkpt><trkpt lat="45.852494678431135" lon="9.26775148642102"><ele>385.0</ele><time>2026-04-03T09:56:44Z</time></trkpt><trkpt lat="45.85261298460777" lon="9.267984098506366"><ele>384.6666666666667</ele><time>2026-04-03T09:56:45Z</time></trkpt><trkpt lat="45.85272204185366" lon="9.268189993838707"><ele>384.33333333333337</ele><time>2026-04-03T09:56:46Z</time></trkpt><trkpt lat="45.85282388437835" lon="9.268382621735645"><ele>384.0</ele><time>2026-04-03T09:56:47Z</time></trkpt><trkpt lat="45.85292131981836" lon="9.268573015717408"><ele>384.0</ele><time>2026-04-03T09:56:48Z</time></trkpt><trkpt lat="45.85300562005633" lon="9.268767664385093"><ele>384.0</ele><time>2026-04-03T09:56:49Z</time></trkpt><trkpt lat="45.853086100048266" lon="9.268973852603803"><ele>384.0</ele><time>2026-04-03T09:56:50Z</time></trkpt><trkpt lat="45.85315740544044" lon="9.26918331018467"><ele>384.66666666666663</ele><time>2026-04-03T09:56:51Z</time></trkpt><trkpt lat="45.85318572289574" lon="9.26940584433558"><ele>385.3333333333333</ele><time>2026-04-03T09:56:52Z</time></trkpt><trkpt lat="45.853213890558116" lon="9.26961967760671"><ele>386.0</ele><time>2026-04-03T09:56:53Z</time></trkpt><trkpt lat="45.85324059126431" lon="9.269837017307838"><ele>387.66666666666663</ele><time>2026-04-03T09:56:54Z</time></trkpt><trkpt lat="45.85323459123777" lon="9.270067818627199"><ele>389.33333333333337</ele><time>2026-04-03T09:56:55Z</time></trkpt><trkpt lat="45.85321007130938" lon="9.270303432639631"><ele>391.0</ele><time>2026-04-03T09:56:56Z</time></trkpt><trkpt lat="45.85315895803344" lon="9.270526261426976"><ele>391.25</ele><time>2026-04-03T09:56:57Z</time></trkpt><trkpt lat="45.85313062330049" lon="9.270717938467731"><ele>391.5</ele><time>2026-04-03T09:56:58Z</time></trkpt><trkpt lat="45.853088021255736" lon="9.270871372607187"><ele>391.75</ele><time>2026-04-03T09:56:59Z</time></trkpt><trkpt lat="45.85305919140891" lon="9.27101391904557"><ele>392.0</ele><time>2026-04-03T09:57:00Z</time></trkpt><trkpt lat="45.85304147107699" lon="9.271157234420004"><ele>392.0</ele><time>2026-04-03T09:57:01Z</time></trkpt><trkpt lat="45.85302831138012" lon="9.271302605307607"><ele>392.0</ele><time>2026-04-03T09:57:02Z</time></trkpt><trkpt lat="45.85302546892772" lon="9.271447682753003"><ele>392.0</ele><time>2026-04-03T09:57:03Z</time></trkpt><trkpt lat="45.85303290858534" lon="9.271600421453181"><ele>392.0</ele><time>2026-04-03T09:57:04Z</time></trkpt><trkpt lat="45.85304139878967" lon="9.271734870050786"><ele>392.0</ele><time>2026-04-03T09:57:05Z</time></trkpt><trkpt lat="45.85305543361917" lon="9.271852637209971"><ele>391.66666666666663</ele><time>2026-04-03T09:57:06Z</time></trkpt><trkpt lat="45.8530685517411" lon="9.271955008557443"><ele>391.3333333333333</ele><time>2026-04-03T09:57:07Z</time></trkpt><trkpt lat="45.853081860073296" lon="9.272051978119624"><ele>391.0</ele><time>2026-04-03T09:57:08Z</time></trkpt><trkpt lat="45.85309216074294" lon="9.272153767086666"><ele>390.66666666666663</ele><time>2026-04-03T09:57:09Z</time></trkpt><trkpt lat="45.8531774880052" lon="9.272259098064284"><ele>390.3333333333333</ele><time>2026-04-03T09:57:11Z</time></trkpt><trkpt lat="45.85324053423401" lon="9.272250549897521"><ele>390.0</ele><time>2026-04-03T09:57:12Z</time></trkpt><trkpt lat="45.85331453947455" lon="9.272193937620163"><ele>390.0</ele><time>2026-04-03T09:57:13Z</time></trkpt><trkpt lat="45.853390075154" lon="9.272124052969316"><ele>390.0</ele><time>2026-04-03T09:57:14Z</time></trkpt><trkpt lat="45.85347518880035" lon="9.27206568967557"><ele>390.0</ele><time>2026-04-03T09:57:15Z</time></trkpt><trkpt lat="45.853561215986225" lon="9.272015410743967"><ele>390.0</ele><time>2026-04-03T09:57:16Z</time></trkpt><trkpt lat="45.85363552363471" lon="9.27195360102256"><ele>390.0</ele><time>2026-04-03T09:57:17Z</time></trkpt><trkpt lat="45.85371334742687" lon="9.271897971009611"><ele>389.4</ele><time>2026-04-03T09:57:18Z</time></trkpt><trkpt lat="45.85379728165664" lon="9.271847948182572"><ele>388.8</ele><time>2026-04-03T09:57:19Z</time></trkpt><trkpt lat="45.85388467641036" lon="9.271800235768408"><ele>388.20000000000005</ele><time>2026-04-03T09:57:20Z</time></trkpt><trkpt lat="45.85396693314551" lon="9.271726323410922"><ele>387.6</ele><time>2026-04-03T09:57:21Z</time></trkpt><trkpt lat="45.854049747807075" lon="9.271663921038146"><ele>387.0</ele><time>2026-04-03T09:57:22Z</time></trkpt><trkpt lat="45.854130522276506" lon="9.271590077666989"><ele>387.0</ele><time>2026-04-03T09:57:23Z</time></trkpt><trkpt lat="45.85420586418545" lon="9.271521143776397"><ele>387.0</ele><time>2026-04-03T09:57:24Z</time></trkpt><trkpt lat="45.854282972712866" lon="9.271439808817155"><ele>387.0</ele><time>2026-04-03T09:57:25Z</time></trkpt><trkpt lat="45.85435059671039" lon="9.271357961749048"><ele>387.0</ele><time>2026-04-03T09:57:26Z</time></trkpt><trkpt lat="45.85441069666772" lon="9.271272886111458"><ele>387.0</ele><time>2026-04-03T09:57:27Z</time></trkpt><trkpt lat="45.85446382857889" lon="9.271184083916264"><ele>387.0</ele><time>2026-04-03T09:57:28Z</time></trkpt><trkpt lat="45.854515680862974" lon="9.271082071687957"><ele>387.1666666666667</ele><time>2026-04-03T09:57:29Z</time></trkpt><trkpt lat="45.854562393918926" lon="9.270970623128322"><ele>387.33333333333337</ele><time>2026-04-03T09:57:30Z</time></trkpt><trkpt lat="45.85460963668142" lon="9.27086263010142"><ele>387.5</ele><time>2026-04-03T09:57:31Z</time></trkpt><trkpt lat="45.854651412009076" lon="9.270756936245379"><ele>387.6666666666667</ele><time>2026-04-03T09:57:32Z</time></trkpt><trkpt lat="45.85468503401268" lon="9.270647611896116"><ele>387.83333333333337</ele><time>2026-04-03T09:57:33Z</time></trkpt><trkpt lat="45.85472308077245" lon="9.270536858396301"><ele>388.0</ele><time>2026-04-03T09:57:34Z</time></trkpt><trkpt lat="45.85475936975553" lon="9.270436390797219"><ele>388.0</ele><time>2026-04-03T09:57:35Z</time></trkpt><trkpt lat="45.85480003160307" lon="9.270336558983463"><ele>388.0</ele><time>2026-04-03T09:57:36Z</time></trkpt><trkpt lat="45.85483256206303" lon="9.270252377352858"><ele>388.0</ele><time>2026-04-03T09:57:37Z</time></trkpt><trkpt lat="45.85489115105127" lon="9.270121485659258"><ele>388.0</ele><time>2026-04-03T09:57:38.999Z</time></trkpt><trkpt lat="45.854955079211734" lon="9.269948926894651"><ele>388.0</ele><time>2026-04-03T09:57:40.999Z</time></trkpt><trkpt lat="45.855001970727166" lon="9.269817740565319"><ele>387.75</ele><time>2026-04-03T09:57:41.999Z</time></trkpt><trkpt lat="45.85505593121312" lon="9.269662009009622"><ele>387.5</ele><time>2026-04-03T09:57:42.999Z</time></trkpt><trkpt lat="45.85513651385941" lon="9.269531579558707"><ele>387.25</ele><time>2026-04-03T09:57:43.999Z</time></trkpt><trkpt lat="45.85523624424426" lon="9.26943281482136"><ele>387.0</ele><time>2026-04-03T09:57:44.999Z</time></trkpt><trkpt lat="45.85534673572988" lon="9.269355185331616"><ele>387.0</ele><time>2026-04-03T09:57:45.999Z</time></trkpt><trkpt lat="45.85549575328838" lon="9.269327924137148"><ele>387.0</ele><time>2026-04-03T09:57:46.999Z</time></trkpt><trkpt lat="45.85565351259463" lon="9.269363958733218"><ele>387.0</ele><time>2026-04-03T09:57:47.999Z</time></trkpt><trkpt lat="45.85578740952498" lon="9.269414186491911"><ele>387.0</ele><time>2026-04-03T09:57:48.999Z</time></trkpt><trkpt lat="45.855887749896475" lon="9.26943061127149"><ele>387.6</ele><time>2026-04-03T09:57:49.999Z</time></trkpt><trkpt lat="45.85597530721438" lon="9.269442264434938"><ele>388.20000000000005</ele><time>2026-04-03T09:57:50.999Z</time></trkpt><trkpt lat="45.856065081339715" lon="9.269461034614462"><ele>388.8</ele><time>2026-04-03T09:57:51.999Z</time></trkpt><trkpt lat="45.85616195670204" lon="9.269494190912422"><ele>389.4</ele><time>2026-04-03T09:57:52.999Z</time></trkpt><trkpt lat="45.85627173326" lon="9.269550085223358"><ele>390.0</ele><time>2026-04-03T09:57:53.999Z</time></trkpt><trkpt lat="45.8563783168244" lon="9.269602731554286"><ele>390.0</ele><time>2026-04-03T09:57:54.999Z</time></trkpt><trkpt lat="45.85648245286632" lon="9.269643946888698"><ele>390.0</ele><time>2026-04-03T09:57:55.999Z</time></trkpt><trkpt lat="45.85659268403583" lon="9.269685745648294"><ele>390.0</ele><time>2026-04-03T09:57:56.999Z</time></trkpt><trkpt lat="45.856700763816114" lon="9.269732798727052"><ele>390.0</ele><time>2026-04-03T09:57:57.999Z</time></trkpt><trkpt lat="45.85679998467543" lon="9.269777488432043"><ele>390.0</ele><time>2026-04-03T09:57:58.999Z</time></trkpt><trkpt lat="45.85690296006901" lon="9.269805966950342"><ele>390.6</ele><time>2026-04-03T09:57:59.999Z</time></trkpt><trkpt lat="45.85701404896876" lon="9.26981339786653"><ele>391.2</ele><time>2026-04-03T09:58:00.999Z</time></trkpt><trkpt lat="45.857129267150256" lon="9.269796385199479"><ele>391.79999999999995</ele><time>2026-04-03T09:58:01.999Z</time></trkpt><trkpt lat="45.857237234716344" lon="9.269778739354399"><ele>392.4</ele><time>2026-04-03T09:58:02.999Z</time></trkpt><trkpt lat="45.857329376613635" lon="9.26976497112762"><ele>393.0</ele><time>2026-04-03T09:58:03.999Z</time></trkpt><trkpt lat="45.85741691938587" lon="9.269749506343512"><ele>393.0</ele><time>2026-04-03T09:58:04.999Z</time></trkpt><trkpt lat="45.85751577322911" lon="9.269736971244548"><ele>393.0</ele><time>2026-04-03T09:58:05.999Z</time></trkpt><trkpt lat="45.8576229779054" lon="9.269718888837852"><ele>393.0</ele><time>2026-04-03T09:58:06.999Z</time></trkpt><trkpt lat="45.85773270425284" lon="9.269696777308937"><ele>393.0</ele><time>2026-04-03T09:58:07.999Z</time></trkpt><trkpt lat="45.85784760040613" lon="9.269676057791237"><ele>393.0</ele><time>2026-04-03T09:58:08.999Z</time></trkpt><trkpt lat="45.85796418664483" lon="9.269659018785337"><ele>393.5</ele><time>2026-04-03T09:58:09.999Z</time></trkpt><trkpt lat="45.858079451004286" lon="9.269652582112894"><ele>394.0</ele><time>2026-04-03T09:58:10.999Z</time></trkpt><trkpt lat="45.85819333404257" lon="9.269658644021597"><ele>394.5</ele><time>2026-04-03T09:58:11.999Z</time></trkpt><trkpt lat="45.858304581933936" lon="9.269671731548401"><ele>395.0</ele><time>2026-04-03T09:58:12.999Z</time></trkpt><trkpt lat="45.858416973415565" lon="9.26969733439506"><ele>396.5</ele><time>2026-04-03T09:58:13.999Z</time></trkpt><trkpt lat="45.85852927117473" lon="9.269733721490459"><ele>398.0</ele><time>2026-04-03T09:58:14.999Z</time></trkpt><trkpt lat="45.85874427888727" lon="9.269755467819246"><ele>399.5</ele><time>2026-04-03T09:58:16.999Z</time></trkpt><trkpt lat="45.85885376844698" lon="9.269759643345791"><ele>401.0</ele><time>2026-04-03T09:58:17.999Z</time></trkpt><trkpt lat="45.858961698464235" lon="9.269734362839667"><ele>401.0</ele><time>2026-04-03T09:58:18.999Z</time></trkpt><trkpt lat="45.85906714928842" lon="9.269666100428127"><ele>401.0</ele><time>2026-04-03T09:58:19.999Z</time></trkpt><trkpt lat="45.859176984076505" lon="9.269602481282385"><ele>401.0</ele><time>2026-04-03T09:58:20.999Z</time></trkpt><trkpt lat="45.85928304401359" lon="9.269529502453679"><ele>401.0</ele><time>2026-04-03T09:58:21.999Z</time></trkpt><trkpt lat="45.85938421876884" lon="9.269450526171235"><ele>402.8</ele><time>2026-04-03T09:58:22.999Z</time></trkpt><trkpt lat="45.859485464891996" lon="9.269374227914998"><ele>404.6</ele><time>2026-04-03T09:58:23.999Z</time></trkpt><trkpt lat="45.859588115691245" lon="9.269304688344105"><ele>406.4</ele><time>2026-04-03T09:58:24.999Z</time></trkpt><trkpt lat="45.85968044883758" lon="9.269226278856282"><ele>408.2</ele><time>2026-04-03T09:58:25.999Z</time></trkpt><trkpt lat="45.85975097104882" lon="9.269125321713322"><ele>410.0</ele><time>2026-04-03T09:58:26.999Z</time></trkpt><trkpt lat="45.85980371267759" lon="9.269028765863563"><ele>410.0</ele><time>2026-04-03T09:58:27.999Z</time></trkpt><trkpt lat="45.85984701024768" lon="9.268952074565023"><ele>410.0</ele><time>2026-04-03T09:58:29.001Z</time></trkpt><trkpt lat="45.85992269656937" lon="9.268839596408355"><ele>410.0</ele><time>2026-04-03T09:58:31.001Z</time></trkpt><trkpt lat="45.86002553378455" lon="9.268748850732264"><ele>410.0</ele><time>2026-04-03T09:58:33.001Z</time></trkpt><trkpt lat="45.86012420487257" lon="9.26875686839686"><ele>410.0</ele><time>2026-04-03T09:58:35.001Z</time></trkpt><trkpt lat="45.86020096215182" lon="9.268838307135825"><ele>410.2</ele><time>2026-04-03T09:58:37.001Z</time></trkpt><trkpt lat="45.86024651355721" lon="9.268994343735105"><ele>410.4</ele><time>2026-04-03T09:58:39.001Z</time></trkpt><trkpt lat="45.86028401659812" lon="9.269132808479705"><ele>410.6</ele><time>2026-04-03T09:58:41.001Z</time></trkpt><trkpt lat="45.86030644475457" lon="9.269244488305945"><ele>410.8</ele><time>2026-04-03T09:58:43.001Z</time></trkpt><trkpt lat="45.86036425010624" lon="9.26934455693063"><ele>411.0</ele><time>2026-04-03T09:58:45.001Z</time></trkpt><trkpt lat="45.860467508295734" lon="9.269358507918415"><ele>411.0</ele><time>2026-04-03T09:58:47Z</time></trkpt><trkpt lat="45.8605891976431" lon="9.269359886769307"><ele>411.0</ele><time>2026-04-03T09:58:49Z</time></trkpt><trkpt lat="45.86066498287658" lon="9.269367717696124"><ele>411.0</ele><time>2026-04-03T09:58:50Z</time></trkpt><trkpt lat="45.86074210900384" lon="9.269375103617213"><ele>411.0</ele><time>2026-04-03T09:58:51Z</time></trkpt><trkpt lat="45.86081766862521" lon="9.269393662584475"><ele>411.0</ele><time>2026-04-03T09:58:52Z</time></trkpt><trkpt lat="45.86089014993413" lon="9.269422056159128"><ele>411.0</ele><time>2026-04-03T09:58:53Z</time></trkpt><trkpt lat="45.860963983574116" lon="9.269457460927132"><ele>411.5</ele><time>2026-04-03T09:58:54Z</time></trkpt><trkpt lat="45.86104331187375" lon="9.269484170826692"><ele>412.0</ele><time>2026-04-03T09:58:55Z</time></trkpt><trkpt lat="45.861124962225325" lon="9.269524407142457"><ele>412.5</ele><time>2026-04-03T09:58:56Z</time></trkpt><trkpt lat="45.861202006892874" lon="9.269546398914455"><ele>413.0</ele><time>2026-04-03T09:58:57Z</time></trkpt><trkpt lat="45.86126977693213" lon="9.26955899234599"><ele>413.5</ele><time>2026-04-03T09:58:58Z</time></trkpt><trkpt lat="45.861387439660085" lon="9.269592073001627"><ele>414.0</ele><time>2026-04-03T09:59:00Z</time></trkpt><trkpt lat="45.86149207612511" lon="9.269680070801101"><ele>414.0</ele><time>2026-04-03T09:59:02Z</time></trkpt><trkpt lat="45.861524013164434" lon="9.26976146500467"><ele>414.0</ele><time>2026-04-03T09:59:03Z</time></trkpt><trkpt lat="45.86161269777803" lon="9.26986009642963"><ele>414.0</ele><time>2026-04-03T09:59:05Z</time></trkpt><trkpt lat="45.86167726988641" lon="9.269870363691542"><ele>414.0</ele><time>2026-04-03T09:59:06Z</time></trkpt><trkpt lat="45.86173397315999" lon="9.26979882068354"><ele>414.0</ele><time>2026-04-03T09:59:07Z</time></trkpt><trkpt lat="45.86178373368984" lon="9.269696308089344"><ele>414.0</ele><time>2026-04-03T09:59:09Z</time></trkpt><trkpt lat="45.86186297778333" lon="9.269713612678878"><ele>415.79999999999995</ele><time>2026-04-03T09:59:12Z</time></trkpt><trkpt lat="45.86196222770173" lon="9.269538683647363"><ele>417.59999999999997</ele><time>2026-04-03T09:59:17Z</time></trkpt><trkpt lat="45.86197957696537" lon="9.269435516568686"><ele>419.4</ele><time>2026-04-03T09:59:19Z</time></trkpt><trkpt lat="45.861998366473976" lon="9.269323784777932"><ele>421.2</ele><time>2026-04-03T09:59:21Z</time></trkpt><trkpt lat="45.86202423312215" lon="9.269192225461895"><ele>423.0</ele><time>2026-04-03T09:59:23Z</time></trkpt><trkpt lat="45.8620730607803" lon="9.269056198758951"><ele>423.0</ele><time>2026-04-03T09:59:25Z</time></trkpt><trkpt lat="45.86209710981961" lon="9.268965949542013"><ele>423.0</ele><time>2026-04-03T09:59:27Z</time></trkpt><trkpt lat="45.86210900085583" lon="9.268874439675958"><ele>423.0</ele><time>2026-04-03T09:59:30Z</time></trkpt><trkpt lat="45.86213188212867" lon="9.268764648520449"><ele>423.0</ele><time>2026-04-03T09:59:32Z</time></trkpt><trkpt lat="45.86223619926004" lon="9.268756117702544"><ele>423.0</ele><time>2026-04-03T09:59:33Z</time></trkpt><trkpt lat="45.862303687304006" lon="9.268664941944174"><ele>423.0</ele><time>2026-04-03T09:59:34Z</time></trkpt><trkpt lat="45.862349175668335" lon="9.2685820537823"><ele>422.2</ele><time>2026-04-03T09:59:36Z</time></trkpt><trkpt lat="45.86239239242604" lon="9.268463280630655"><ele>421.4</ele><time>2026-04-03T09:59:38Z</time></trkpt><trkpt lat="45.86243598255789" lon="9.268329597015848"><ele>420.59999999999997</ele><time>2026-04-03T09:59:40Z</time></trkpt><trkpt lat="45.8624639513218" lon="9.26823327096284"><ele>419.79999999999995</ele><time>2026-04-03T09:59:42Z</time></trkpt><trkpt lat="45.862487206412666" lon="9.268141867784026"><ele>419.0</ele><time>2026-04-03T09:59:44Z</time></trkpt><trkpt lat="45.86280644606779" lon="9.268197932755488"><ele>420.66666666666663</ele><time>2026-04-03T09:59:47Z</time></trkpt><trkpt lat="45.86288669340818" lon="9.26815022611255"><ele>422.3333333333333</ele><time>2026-04-03T09:59:49Z</time></trkpt><trkpt lat="45.86295115225803" lon="9.268154588283483"><ele>424.0</ele><time>2026-04-03T09:59:57.999Z</time></trkpt><trkpt lat="45.86292655891596" lon="9.268030038779251"><ele>425.66666666666663</ele><time>2026-04-03T10:00:00.999Z</time></trkpt><trkpt lat="45.86291041782208" lon="9.2679221338816"><ele>427.3333333333333</ele><time>2026-04-03T10:00:03.999Z</time></trkpt><trkpt lat="45.86289353956083" lon="9.267785223718997"><ele>429.0</ele><time>2026-04-03T10:00:06.999Z</time></trkpt><trkpt lat="45.86290318187425" lon="9.267658137582224"><ele>429.57142857142856</ele><time>2026-04-03T10:00:08.999Z</time></trkpt><trkpt lat="45.8629012456502" lon="9.267555959779882"><ele>430.14285714285717</ele><time>2026-04-03T10:00:10.999Z</time></trkpt><trkpt lat="45.86285058254747" lon="9.267450130949221"><ele>430.71428571428567</ele><time>2026-04-03T10:00:13.999Z</time></trkpt><trkpt lat="45.86282091691062" lon="9.267364878661022"><ele>431.2857142857143</ele><time>2026-04-03T10:00:17.999Z</time></trkpt><trkpt lat="45.86281863496589" lon="9.267274316809717"><ele>431.85714285714283</ele><time>2026-04-03T10:00:22.999Z</time></trkpt><trkpt lat="45.86279148849541" lon="9.267373064901927"><ele>432.4285714285714</ele><time>2026-04-03T10:01:05Z</time></trkpt><trkpt lat="45.86271354999664" lon="9.267389103648197"><ele>433.0</ele><time>2026-04-03T10:01:08Z</time></trkpt><trkpt lat="45.86264962673215" lon="9.267411191177631"><ele>431.1428571428571</ele><time>2026-04-03T10:01:11Z</time></trkpt><trkpt lat="45.86260381499574" lon="9.267474020425738"><ele>429.2857142857143</ele><time>2026-04-03T10:01:17Z</time></trkpt><trkpt lat="45.86258877790268" lon="9.267567221583063"><ele>427.42857142857144</ele><time>2026-04-03T10:01:23Z</time></trkpt><trkpt lat="45.862556784705475" lon="9.267690771162705"><ele>425.57142857142856</ele><time>2026-04-03T10:01:25Z</time></trkpt><trkpt lat="45.86253907699784" lon="9.267792847845662"><ele>423.7142857142857</ele><time>2026-04-03T10:01:27Z</time></trkpt><trkpt lat="45.86252514871189" lon="9.267882668179809"><ele>421.85714285714283</ele><time>2026-04-03T10:01:29Z</time></trkpt><trkpt lat="45.86248716225975" lon="9.267967592912493"><ele>420.0</ele><time>2026-04-03T10:01:31Z</time></trkpt><trkpt lat="45.862462253682416" lon="9.268085598020305"><ele>419.8333333333333</ele><time>2026-04-03T10:01:33Z</time></trkpt><trkpt lat="45.86244423925655" lon="9.268227751066345"><ele>419.66666666666663</ele><time>2026-04-03T10:01:35Z</time></trkpt><trkpt lat="45.86239555590007" lon="9.268317578680719"><ele>419.5</ele><time>2026-04-03T10:01:37Z</time></trkpt><trkpt lat="45.86236939883639" lon="9.26841562892454"><ele>419.3333333333333</ele><time>2026-04-03T10:01:40Z</time></trkpt><trkpt lat="45.86232137925985" lon="9.268502124777395"><ele>419.16666666666663</ele><time>2026-04-03T10:01:44Z</time></trkpt><trkpt lat="45.8622748670689" lon="9.268629613864396"><ele>419.0</ele><time>2026-04-03T10:01:49Z</time></trkpt><trkpt lat="45.862213812981935" lon="9.268720478141494"><ele>419.0</ele><time>2026-04-03T10:01:51Z</time></trkpt><trkpt lat="45.862151587067636" lon="9.268779253569186"><ele>419.0</ele><time>2026-04-03T10:01:53Z</time></trkpt><trkpt lat="45.86207749032948" lon="9.268840216094384"><ele>419.0</ele><time>2026-04-03T10:01:56Z</time></trkpt><trkpt lat="45.862015407691096" lon="9.268891294634505"><ele>419.0</ele><time>2026-04-03T10:01:58Z</time></trkpt><trkpt lat="45.862015613393254" lon="9.269101250447898"><ele>419.0</ele><time>2026-04-03T10:01:59.999Z</time></trkpt><trkpt lat="45.86197494603788" lon="9.269267015362077"><ele>419.66666666666663</ele><time>2026-04-03T10:02:01.999Z</time></trkpt><trkpt lat="45.86194855205455" lon="9.269416414438508"><ele>420.3333333333333</ele><time>2026-04-03T10:02:03.999Z</time></trkpt><trkpt lat="45.86192914336341" lon="9.269531827932514"><ele>421.0</ele><time>2026-04-03T10:02:05.999Z</time></trkpt><trkpt lat="45.86191223589218" lon="9.269632367915355"><ele>421.66666666666663</ele><time>2026-04-03T10:02:07.999Z</time></trkpt><trkpt lat="45.86189880150957" lon="9.26973195245419"><ele>422.3333333333333</ele><time>2026-04-03T10:02:20.999Z</time></trkpt><trkpt lat="45.86200308594306" lon="9.269758555379324"><ele>423.0</ele><time>2026-04-03T10:02:22.999Z</time></trkpt><trkpt lat="45.86209392095303" lon="9.269701657298103"><ele>423.0</ele><time>2026-04-03T10:02:24.999Z</time></trkpt><trkpt lat="45.862154690576396" lon="9.269662044862857"><ele>423.0</ele><time>2026-04-03T10:02:25.999Z</time></trkpt><trkpt lat="45.86221262261893" lon="9.269619904528676"><ele>423.0</ele><time>2026-04-03T10:02:26.999Z</time></trkpt><trkpt lat="45.86227383346482" lon="9.269556309341231"><ele>423.0</ele><time>2026-04-03T10:02:27.999Z</time></trkpt><trkpt lat="45.86233822977764" lon="9.269505179207679"><ele>423.0</ele><time>2026-04-03T10:02:28.999Z</time></trkpt><trkpt lat="45.86241141662255" lon="9.269447057254457"><ele>423.0</ele><time>2026-04-03T10:02:29.999Z</time></trkpt><trkpt lat="45.86249710207605" lon="9.269382563042564"><ele>423.0</ele><time>2026-04-03T10:02:30.999Z</time></trkpt><trkpt lat="45.86256811833876" lon="9.269334052004826"><ele>423.0</ele><time>2026-04-03T10:02:31.999Z</time></trkpt><trkpt lat="45.86264806754691" lon="9.269287016630367"><ele>423.0</ele><time>2026-04-03T10:02:32.999Z</time></trkpt><trkpt lat="45.862720176984325" lon="9.269243698474611"><ele>423.0</ele><time>2026-04-03T10:02:33.999Z</time></trkpt><trkpt lat="45.862790148214664" lon="9.269215354743055"><ele>423.0</ele><time>2026-04-03T10:02:34.999Z</time></trkpt><trkpt lat="45.862858870653575" lon="9.269185566087081"><ele>423.0</ele><time>2026-04-03T10:02:35.999Z</time></trkpt><trkpt lat="45.862923634128656" lon="9.26914973724799"><ele>424.3333333333333</ele><time>2026-04-03T10:02:36.999Z</time></trkpt><trkpt lat="45.862998956711856" lon="9.269131060456472"><ele>425.66666666666663</ele><time>2026-04-03T10:02:37.999Z</time></trkpt><trkpt lat="45.86306827887772" lon="9.269107054356626"><ele>427.0</ele><time>2026-04-03T10:02:38.999Z</time></trkpt><trkpt lat="45.863141025024106" lon="9.269091621572086"><ele>428.3333333333333</ele><time>2026-04-03T10:02:39.999Z</time></trkpt><trkpt lat="45.863203842516945" lon="9.269073582371096"><ele>429.66666666666663</ele><time>2026-04-03T10:02:41Z</time></trkpt><trkpt lat="45.86332915520427" lon="9.269034104218644"><ele>431.0</ele><time>2026-04-03T10:02:43Z</time></trkpt><trkpt lat="45.86339644063107" lon="9.269034463028062"><ele>433.0</ele><time>2026-04-03T10:02:44Z</time></trkpt><trkpt lat="45.86346251817186" lon="9.269048132552731"><ele>435.0</ele><time>2026-04-03T10:02:45Z</time></trkpt><trkpt lat="45.86358460354906" lon="9.26909776719438"><ele>437.0</ele><time>2026-04-03T10:02:47Z</time></trkpt><trkpt lat="45.86365056656803" lon="9.269105897622108"><ele>439.0</ele><time>2026-04-03T10:02:48Z</time></trkpt><trkpt lat="45.86376915486635" lon="9.269120894979777"><ele>441.0</ele><time>2026-04-03T10:02:50Z</time></trkpt><trkpt lat="45.86386316990137" lon="9.269124069207727"><ele>441.0</ele><time>2026-04-03T10:02:52Z</time></trkpt><trkpt lat="45.86393222847523" lon="9.26903480759009"><ele>441.0</ele><time>2026-04-03T10:02:54Z</time></trkpt><trkpt lat="45.86394881890909" lon="9.268942204189546"><ele>441.0</ele><time>2026-04-03T10:02:55Z</time></trkpt><trkpt lat="45.86398772961125" lon="9.26875864189195"><ele>441.0</ele><time>2026-04-03T10:02:57Z</time></trkpt><trkpt lat="45.86400496555058" lon="9.26862425042679"><ele>441.0</ele><time>2026-04-03T10:02:58Z</time></trkpt><trkpt lat="45.86401220604448" lon="9.268477828333376"><ele>441.1666666666667</ele><time>2026-04-03T10:02:59Z</time></trkpt><trkpt lat="45.864031420746606" lon="9.268336584291438"><ele>441.33333333333337</ele><time>2026-04-03T10:03:01Z</time></trkpt><trkpt lat="45.864056167094695" lon="9.268229865307235"><ele>441.5</ele><time>2026-04-03T10:03:02Z</time></trkpt><trkpt lat="45.86408039353982" lon="9.268131537857947"><ele>441.6666666666667</ele><time>2026-04-03T10:03:03Z</time></trkpt><trkpt lat="45.86410436528842" lon="9.268038319760457"><ele>441.83333333333337</ele><time>2026-04-03T10:03:04Z</time></trkpt><trkpt lat="45.86413680736592" lon="9.267939948400393"><ele>442.0</ele><time>2026-04-03T10:03:05Z</time></trkpt><trkpt lat="45.86415957064654" lon="9.267793051412523"><ele>442.1666666666667</ele><time>2026-04-03T10:03:07Z</time></trkpt><trkpt lat="45.86414086816915" lon="9.267695587048562"><ele>442.33333333333337</ele><time>2026-04-03T10:03:09Z</time></trkpt><trkpt lat="45.86409437201813" lon="9.267554575910465"><ele>442.5</ele><time>2026-04-03T10:03:11Z</time></trkpt><trkpt lat="45.86404059839688" lon="9.267477861823343"><ele>442.66666666666663</ele><time>2026-04-03T10:03:12Z</time></trkpt><trkpt lat="45.86399714387393" lon="9.267396644910093"><ele>442.8333333333333</ele><time>2026-04-03T10:03:13Z</time></trkpt><trkpt lat="45.863941890435775" lon="9.267269561271565"><ele>443.0</ele><time>2026-04-03T10:03:15Z</time></trkpt><trkpt lat="45.863921592320274" lon="9.267109657328549"><ele>442.99999999999994</ele><time>2026-04-03T10:03:17Z</time></trkpt><trkpt lat="45.86391109493067" lon="9.267020238989423"><ele>443.0</ele><time>2026-04-03T10:03:18Z</time></trkpt><trkpt lat="45.86392061398838" lon="9.26692497196451"><ele>443.0</ele><time>2026-04-03T10:03:19Z</time></trkpt><trkpt lat="45.86391523487176" lon="9.266828149974483"><ele>443.0</ele><time>2026-04-03T10:03:20Z</time></trkpt><trkpt lat="45.86402260398821" lon="9.26675780119501"><ele>442.99999999999994</ele><time>2026-04-03T10:03:21Z</time></trkpt><trkpt lat="45.8640904842018" lon="9.266731945701439"><ele>443.0</ele><time>2026-04-03T10:03:22Z</time></trkpt><trkpt lat="45.86421081644257" lon="9.26679721039908"><ele>442.99999999999994</ele><time>2026-04-03T10:03:24Z</time></trkpt><trkpt lat="45.86426570802197" lon="9.266884698856186"><ele>443.0</ele><time>2026-04-03T10:03:25Z</time></trkpt><trkpt lat="45.864317783238434" lon="9.266985175821553"><ele>443.0</ele><time>2026-04-03T10:03:26Z</time></trkpt><trkpt lat="45.864368639202475" lon="9.267087361079227"><ele>443.0</ele><time>2026-04-03T10:03:27Z</time></trkpt><trkpt lat="45.864405342759795" lon="9.267174218968998"><ele>442.99999999999994</ele><time>2026-04-03T10:03:28Z</time></trkpt><trkpt lat="45.86444234227021" lon="9.267248694921122"><ele>443.0</ele><time>2026-04-03T10:03:29Z</time></trkpt><trkpt lat="45.86449484011577" lon="9.267314246021183"><ele>445.59999999999997</ele><time>2026-04-03T10:03:30Z</time></trkpt><trkpt lat="45.86463202458717" lon="9.267368299250306"><ele>448.19999999999993</ele><time>2026-04-03T10:03:32Z</time></trkpt><trkpt lat="45.86470380116105" lon="9.267387610590633"><ele>450.8</ele><time>2026-04-03T10:03:33Z</time></trkpt><trkpt lat="45.864780318940156" lon="9.267388550482583"><ele>453.4</ele><time>2026-04-03T10:03:34Z</time></trkpt><trkpt lat="45.86485793572521" lon="9.267335228950254"><ele>456.0</ele><time>2026-04-03T10:03:35Z</time></trkpt><trkpt lat="45.86492531598032" lon="9.267233505037675"><ele>456.0</ele><time>2026-04-03T10:03:36Z</time></trkpt><trkpt lat="45.864968002155365" lon="9.26710247590966"><ele>456.0</ele><time>2026-04-03T10:03:37Z</time></trkpt><trkpt lat="45.86497703253937" lon="9.266967727911892"><ele>456.0</ele><time>2026-04-03T10:03:38Z</time></trkpt><trkpt lat="45.864947818589066" lon="9.26683652587438"><ele>456.0</ele><time>2026-04-03T10:03:39Z</time></trkpt><trkpt lat="45.864889405754326" lon="9.266721016398343"><ele>456.0</ele><time>2026-04-03T10:03:40Z</time></trkpt><trkpt lat="45.86482387416106" lon="9.26662430825795"><ele>456.0</ele><time>2026-04-03T10:03:41Z</time></trkpt><trkpt lat="45.864783039180885" lon="9.266540105879148"><ele>456.0</ele><time>2026-04-03T10:03:42Z</time></trkpt><trkpt lat="45.864771096756755" lon="9.266449603665356"><ele>456.0</ele><time>2026-04-03T10:03:43Z</time></trkpt><trkpt lat="45.86482590667109" lon="9.266329490184198"><ele>456.0</ele><time>2026-04-03T10:03:45Z</time></trkpt><trkpt lat="45.86492080300517" lon="9.26637915929212"><ele>456.0</ele><time>2026-04-03T10:03:47Z</time></trkpt><trkpt lat="45.864935895641764" lon="9.2664686289714"><ele>456.0</ele><time>2026-04-03T10:03:48Z</time></trkpt><trkpt lat="45.86490246282451" lon="9.266568184089225"><ele>456.0</ele><time>2026-04-03T10:03:49Z</time></trkpt><trkpt lat="45.8649286713794" lon="9.266669733937693"><ele>456.0</ele><time>2026-04-03T10:03:49.999Z</time></trkpt><trkpt lat="45.86498029406656" lon="9.266775372904561"><ele>456.0</ele><time>2026-04-03T10:03:50.999Z</time></trkpt><trkpt lat="45.865048876956806" lon="9.26685100067469"><ele>456.0</ele><time>2026-04-03T10:03:51.999Z</time></trkpt><trkpt lat="45.86513837376841" lon="9.26687254157115"><ele>456.0</ele><time>2026-04-03T10:03:52.999Z</time></trkpt><trkpt lat="45.86531060145256" lon="9.26674337440454"><ele>457.6</ele><time>2026-04-03T10:03:54.999Z</time></trkpt><trkpt lat="45.86535950045349" lon="9.266621257867039"><ele>459.20000000000005</ele><time>2026-04-03T10:03:55.999Z</time></trkpt><trkpt lat="45.865381525919304" lon="9.266478580617603"><ele>460.79999999999995</ele><time>2026-04-03T10:03:56.999Z</time></trkpt><trkpt lat="45.86537765622086" lon="9.266321386949942"><ele>462.4</ele><time>2026-04-03T10:03:57.999Z</time></trkpt><trkpt lat="45.865382315410656" lon="9.266171219494955"><ele>464.0</ele><time>2026-04-03T10:03:58.999Z</time></trkpt><trkpt lat="45.8654003323022" lon="9.26603962365688"><ele>463.99999999999994</ele><time>2026-04-03T10:03:59.999Z</time></trkpt><trkpt lat="45.865424765527536" lon="9.265948222068431"><ele>464.0</ele><time>2026-04-03T10:04:00.999Z</time></trkpt><trkpt lat="45.865523603398614" lon="9.26583804203672"><ele>464.0</ele><time>2026-04-03T10:04:02.999Z</time></trkpt><trkpt lat="45.86558758124165" lon="9.265845915459156"><ele>464.0</ele><time>2026-04-03T10:04:03.999Z</time></trkpt><trkpt lat="45.86564747024885" lon="9.265891668233689"><ele>463.99999999999994</ele><time>2026-04-03T10:04:04.999Z</time></trkpt><trkpt lat="45.865683754640884" lon="9.266000018261925"><ele>464.0</ele><time>2026-04-03T10:04:05.999Z</time></trkpt><trkpt lat="45.86572582965053" lon="9.26608191668156"><ele>463.99999999999994</ele><time>2026-04-03T10:04:06.999Z</time></trkpt><trkpt lat="45.86578036398797" lon="9.266152795303901"><ele>464.0</ele><time>2026-04-03T10:04:07.999Z</time></trkpt><trkpt lat="45.865812689765924" lon="9.2662450050508"><ele>464.0</ele><time>2026-04-03T10:04:08.999Z</time></trkpt><trkpt lat="45.8658174946459" lon="9.266354577574536"><ele>464.0</ele><time>2026-04-03T10:04:09.999Z</time></trkpt><trkpt lat="45.86584413481205" lon="9.266474893307068"><ele>463.99999999999994</ele><time>2026-04-03T10:04:10.999Z</time></trkpt><trkpt lat="45.86582043005973" lon="9.266622595728212"><ele>464.0</ele><time>2026-04-03T10:04:11.999Z</time></trkpt><trkpt lat="45.86578667680106" lon="9.266775957203498"><ele>465.2</ele><time>2026-04-03T10:04:12.999Z</time></trkpt><trkpt lat="45.865768302477655" lon="9.266907147811347"><ele>466.4</ele><time>2026-04-03T10:04:13.999Z</time></trkpt><trkpt lat="45.86579939802358" lon="9.26700446883136"><ele>467.6</ele><time>2026-04-03T10:04:15.999Z</time></trkpt><trkpt lat="45.86590881333875" lon="9.267002461320821"><ele>468.8</ele><time>2026-04-03T10:04:17.999Z</time></trkpt><trkpt lat="45.86594927386654" lon="9.266883615715576"><ele>470.0</ele><time>2026-04-03T10:04:18.999Z</time></trkpt><trkpt lat="45.86597304813041" lon="9.266773291689361"><ele>471.5</ele><time>2026-04-03T10:04:19.999Z</time></trkpt><trkpt lat="45.86599226552748" lon="9.26665387482845"><ele>473.0</ele><time>2026-04-03T10:04:20.999Z</time></trkpt><trkpt lat="45.86606485877964" lon="9.266524169144343"><ele>474.5</ele><time>2026-04-03T10:04:21.999Z</time></trkpt><trkpt lat="45.866150524701084" lon="9.266381391855917"><ele>476.0</ele><time>2026-04-03T10:04:22.999Z</time></trkpt><trkpt lat="45.8662445215782" lon="9.266264017023973"><ele>476.0</ele><time>2026-04-03T10:04:23.999Z</time></trkpt><trkpt lat="45.86634367518401" lon="9.266204871681992"><ele>476.0</ele><time>2026-04-03T10:04:24.999Z</time></trkpt><trkpt lat="45.86645166011869" lon="9.266166063207836"><ele>476.0</ele><time>2026-04-03T10:04:25.999Z</time></trkpt><trkpt lat="45.86657878164343" lon="9.266132791926594"><ele>476.0</ele><time>2026-04-03T10:04:26.999Z</time></trkpt><trkpt lat="45.86670386703517" lon="9.26609188466517"><ele>479.0</ele><time>2026-04-03T10:04:27.999Z</time></trkpt><trkpt lat="45.86681714789153" lon="9.26606123530666"><ele>482.0</ele><time>2026-04-03T10:04:28.999Z</time></trkpt><trkpt lat="45.866914322289034" lon="9.265991155404704"><ele>485.0</ele><time>2026-04-03T10:04:29.999Z</time></trkpt><trkpt lat="45.867004455834014" lon="9.265883038622352"><ele>488.0</ele><time>2026-04-03T10:04:30.999Z</time></trkpt><trkpt lat="45.8670906064336" lon="9.265763447099628"><ele>488.0</ele><time>2026-04-03T10:04:31.999Z</time></trkpt><trkpt lat="45.86717108756258" lon="9.26565054784347"><ele>487.99999999999994</ele><time>2026-04-03T10:04:32.999Z</time></trkpt><trkpt lat="45.867238473224916" lon="9.26557764960469"><ele>487.99999999999994</ele><time>2026-04-03T10:04:33.999Z</time></trkpt><trkpt lat="45.867334915088875" lon="9.265497201568795"><ele>488.0</ele><time>2026-04-03T10:04:35.999Z</time></trkpt><trkpt lat="45.86740845554349" lon="9.265520476974892"><ele>488.0</ele><time>2026-04-03T10:04:38.999Z</time></trkpt><trkpt lat="45.86749031963118" lon="9.26559671980354"><ele>486.5</ele><time>2026-04-03T10:05:06Z</time></trkpt><trkpt lat="45.86764339617565" lon="9.265555213760814"><ele>485.0</ele><time>2026-04-03T10:05:08Z</time></trkpt><trkpt lat="45.86772868622492" lon="9.265523996019157"><ele>483.5</ele><time>2026-04-03T10:05:09Z</time></trkpt><trkpt lat="45.86782668415762" lon="9.26549120909806"><ele>482.0</ele><time>2026-04-03T10:05:10Z</time></trkpt><trkpt lat="45.867928846474726" lon="9.265453947559955"><ele>482.0</ele><time>2026-04-03T10:05:11Z</time></trkpt><trkpt lat="45.86803136835853" lon="9.265419636915492"><ele>482.00000000000006</ele><time>2026-04-03T10:05:12Z</time></trkpt><trkpt lat="45.86813462189768" lon="9.265383766332565"><ele>482.00000000000006</ele><time>2026-04-03T10:05:13Z</time></trkpt><trkpt lat="45.86823873753911" lon="9.265346592868626"><ele>482.0</ele><time>2026-04-03T10:05:14Z</time></trkpt><trkpt lat="45.868343544424036" lon="9.265311640599197"><ele>482.0</ele><time>2026-04-03T10:05:15Z</time></trkpt><trkpt lat="45.868448399288575" lon="9.265277669601945"><ele>485.40000000000003</ele><time>2026-04-03T10:05:16Z</time></trkpt><trkpt lat="45.868551096872764" lon="9.265237457797989"><ele>488.80000000000007</ele><time>2026-04-03T10:05:17Z</time></trkpt><trkpt lat="45.86865226321325" lon="9.265182197624386"><ele>492.2</ele><time>2026-04-03T10:05:18Z</time></trkpt><trkpt lat="45.86874605274385" lon="9.265099201023668"><ele>495.6</ele><time>2026-04-03T10:05:19Z</time></trkpt><trkpt lat="45.86882846142761" lon="9.264996854743648"><ele>499.0</ele><time>2026-04-03T10:05:20Z</time></trkpt><trkpt lat="45.86889568126533" lon="9.264873952394346"><ele>496.25</ele><time>2026-04-03T10:05:21Z</time></trkpt><trkpt lat="45.86895399361039" lon="9.264738738906651"><ele>493.5</ele><time>2026-04-03T10:05:22Z</time></trkpt><trkpt lat="45.869028321467795" lon="9.264622031076275"><ele>490.75</ele><time>2026-04-03T10:05:23Z</time></trkpt><trkpt lat="45.86909719283305" lon="9.264479476982382"><ele>488.0</ele><time>2026-04-03T10:05:24Z</time></trkpt><trkpt lat="45.869185780298835" lon="9.264354950744625"><ele>488.0</ele><time>2026-04-03T10:05:25Z</time></trkpt><trkpt lat="45.86927293304274" lon="9.264222189767404"><ele>488.0</ele><time>2026-04-03T10:05:26Z</time></trkpt><trkpt lat="45.869350496677384" lon="9.264094287124719"><ele>488.0</ele><time>2026-04-03T10:05:27Z</time></trkpt><trkpt lat="45.86942081805569" lon="9.263964103645185"><ele>488.0</ele><time>2026-04-03T10:05:28Z</time></trkpt><trkpt lat="45.86949577280723" lon="9.263841214327146"><ele>491.75</ele><time>2026-04-03T10:05:29Z</time></trkpt><trkpt lat="45.869497869170665" lon="9.263640167280116"><ele>495.5</ele><time>2026-04-03T10:05:30Z</time></trkpt><trkpt lat="45.869502994980195" lon="9.263461893932154"><ele>499.25</ele><time>2026-04-03T10:05:31Z</time></trkpt><trkpt lat="45.86951678308926" lon="9.263309022373168"><ele>503.0</ele><time>2026-04-03T10:05:32Z</time></trkpt><trkpt lat="45.86954885378563" lon="9.263149507893798"><ele>497.75</ele><time>2026-04-03T10:05:33Z</time></trkpt><trkpt lat="45.86960517683285" lon="9.263005303078138"><ele>492.5</ele><time>2026-04-03T10:05:34Z</time></trkpt><trkpt lat="45.86967891424088" lon="9.262881645901157"><ele>487.25</ele><time>2026-04-03T10:05:35Z</time></trkpt><trkpt lat="45.86977494843502" lon="9.262795841939568"><ele>482.0</ele><time>2026-04-03T10:05:36Z</time></trkpt><trkpt lat="45.869888165885044" lon="9.262742151641211"><ele>482.0</ele><time>2026-04-03T10:05:37Z</time></trkpt><trkpt lat="45.87001024072686" lon="9.262724980732667"><ele>482.0</ele><time>2026-04-03T10:05:38Z</time></trkpt><trkpt lat="45.87012535267685" lon="9.262726978302661"><ele>482.0</ele><time>2026-04-03T10:05:39Z</time></trkpt><trkpt lat="45.87025171957659" lon="9.26275776671075"><ele>482.0</ele><time>2026-04-03T10:05:40Z</time></trkpt><trkpt lat="45.87037985937057" lon="9.26278595496891"><ele>484.0</ele><time>2026-04-03T10:05:41Z</time></trkpt><trkpt lat="45.87051357809349" lon="9.26280665464844"><ele>486.0</ele><time>2026-04-03T10:05:42Z</time></trkpt><trkpt lat="45.87064439572702" lon="9.262823988769942"><ele>488.0</ele><time>2026-04-03T10:05:43Z</time></trkpt><trkpt lat="45.870773075786246" lon="9.262820320256104"><ele>490.0</ele><time>2026-04-03T10:05:44Z</time></trkpt><trkpt lat="45.87091560133753" lon="9.262758809929226"><ele>494.6666666666667</ele><time>2026-04-03T10:05:45Z</time></trkpt><trkpt lat="45.87106792436191" lon="9.262647479840346"><ele>499.33333333333337</ele><time>2026-04-03T10:05:46Z</time></trkpt><trkpt lat="45.87121119404534" lon="9.262518404167338"><ele>504.0</ele><time>2026-04-03T10:05:47Z</time></trkpt><trkpt lat="45.87133971811429" lon="9.262397314390084"><ele>504.0</ele><time>2026-04-03T10:05:48Z</time></trkpt><trkpt lat="45.87149135321623" lon="9.262319895559298"><ele>504.0</ele><time>2026-04-03T10:05:49Z</time></trkpt><trkpt lat="45.87163819683645" lon="9.262183547692057"><ele>504.0</ele><time>2026-04-03T10:05:51Z</time></trkpt><trkpt lat="45.87174272489108" lon="9.262072776680258"><ele>505.5</ele><time>2026-04-03T10:05:52Z</time></trkpt><trkpt lat="45.87184921483182" lon="9.26196324898306"><ele>507.0</ele><time>2026-04-03T10:05:53Z</time></trkpt><trkpt lat="45.87195877856588" lon="9.261855238540086"><ele>508.5</ele><time>2026-04-03T10:05:54Z</time></trkpt><trkpt lat="45.8720637128412" lon="9.26174770856557"><ele>510.0</ele><time>2026-04-03T10:05:55Z</time></trkpt><trkpt lat="45.87216928324898" lon="9.26164710963053"><ele>510.0</ele><time>2026-04-03T10:05:56Z</time></trkpt><trkpt lat="45.87226482665998" lon="9.261557412032598"><ele>510.0</ele><time>2026-04-03T10:05:56.999Z</time></trkpt><trkpt lat="45.87235000514933" lon="9.261467040845814"><ele>510.0</ele><time>2026-04-03T10:05:57.999Z</time></trkpt><trkpt lat="45.872436734634135" lon="9.261383231363519"><ele>510.0</ele><time>2026-04-03T10:05:58.999Z</time></trkpt><trkpt lat="45.872516269261254" lon="9.26132787310224"><ele>510.0</ele><time>2026-04-03T10:05:59.999Z</time></trkpt><trkpt lat="45.87257502583648" lon="9.261278728334558"><ele>508.6666666666667</ele><time>2026-04-03T10:06:00.999Z</time></trkpt><trkpt lat="45.8726380626544" lon="9.26123680104203"><ele>507.33333333333337</ele><time>2026-04-03T10:06:01.999Z</time></trkpt><trkpt lat="45.87273655164614" lon="9.261162567903424"><ele>506.0</ele><time>2026-04-03T10:06:03.999Z</time></trkpt><trkpt lat="45.872824951251175" lon="9.261106373722546"><ele>504.6666666666667</ele><time>2026-04-03T10:06:05.999Z</time></trkpt><trkpt lat="45.87289234542694" lon="9.261066510300328"><ele>503.33333333333337</ele><time>2026-04-03T10:06:07.999Z</time></trkpt><trkpt lat="45.872956856242986" lon="9.261012420987477"><ele>502.0</ele><time>2026-04-03T10:06:09.999Z</time></trkpt><trkpt lat="45.87306572535379" lon="9.260956094904746"><ele>502.0</ele><time>2026-04-03T10:06:11.999Z</time></trkpt><trkpt lat="45.87316035000763" lon="9.260934026062785"><ele>502.0</ele><time>2026-04-03T10:06:12.999Z</time></trkpt><trkpt lat="45.873275668100405" lon="9.260946588260762"><ele>502.0</ele><time>2026-04-03T10:06:13.999Z</time></trkpt><trkpt lat="45.87338690791984" lon="9.261023161882532"><ele>502.0</ele><time>2026-04-03T10:06:14.999Z</time></trkpt><trkpt lat="45.873516093433345" lon="9.261075019761781"><ele>505.0</ele><time>2026-04-03T10:06:15.999Z</time></trkpt><trkpt lat="45.87363765073654" lon="9.261168758927417"><ele>508.0</ele><time>2026-04-03T10:06:16.999Z</time></trkpt><trkpt lat="45.87375897029308" lon="9.261228031400801"><ele>511.0</ele><time>2026-04-03T10:06:17.999Z</time></trkpt><trkpt lat="45.87387865802797" lon="9.261272593813471"><ele>514.0</ele><time>2026-04-03T10:06:18.999Z</time></trkpt><trkpt lat="45.874025553525165" lon="9.26125824590352"><ele>514.0</ele><time>2026-04-03T10:06:19.999Z</time></trkpt><trkpt lat="45.87418878498653" lon="9.261200806288587"><ele>514.0</ele><time>2026-04-03T10:06:20.999Z</time></trkpt><trkpt lat="45.8743446928317" lon="9.261130429547823"><ele>514.0</ele><time>2026-04-03T10:06:21.999Z</time></trkpt><trkpt lat="45.87448301405769" lon="9.261053661369711"><ele>513.5</ele><time>2026-04-03T10:06:22.999Z</time></trkpt><trkpt lat="45.8746125030627" lon="9.260942012771027"><ele>513.0</ele><time>2026-04-03T10:06:23.999Z</time></trkpt><trkpt lat="45.87472865393168" lon="9.260866587288097"><ele>512.5</ele><time>2026-04-03T10:06:24.999Z</time></trkpt><trkpt lat="45.874844630557" lon="9.260817230454755"><ele>512.0</ele><time>2026-04-03T10:06:25.999Z</time></trkpt><trkpt lat="45.87497097698812" lon="9.260824973848397"><ele>512.0</ele><time>2026-04-03T10:06:26.999Z</time></trkpt><trkpt lat="45.87509412475094" lon="9.2609157734898"><ele>512.0</ele><time>2026-04-03T10:06:27.999Z</time></trkpt><trkpt lat="45.87525107138986" lon="9.26101494821407"><ele>512.0</ele><time>2026-04-03T10:06:28.999Z</time></trkpt><trkpt lat="45.875420471388566" lon="9.261100307856317"><ele>516.6666666666666</ele><time>2026-04-03T10:06:29.999Z</time></trkpt><trkpt lat="45.87558361298512" lon="9.261224159760747"><ele>521.3333333333334</ele><time>2026-04-03T10:06:30.999Z</time></trkpt><trkpt lat="45.87574863527788" lon="9.261303472735387"><ele>526.0</ele><time>2026-04-03T10:06:31.999Z</time></trkpt><trkpt lat="45.8758926127255" lon="9.26141971456154"><ele>524.5</ele><time>2026-04-03T10:06:32.999Z</time></trkpt><trkpt lat="45.876035191945995" lon="9.261510056774453"><ele>523.0</ele><time>2026-04-03T10:06:33.999Z</time></trkpt><trkpt lat="45.87616060193574" lon="9.261577640085177"><ele>521.5</ele><time>2026-04-03T10:06:34.999Z</time></trkpt><trkpt lat="45.87628024617044" lon="9.261652138232522"><ele>520.0</ele><time>2026-04-03T10:06:35.999Z</time></trkpt><trkpt lat="45.8764029021769" lon="9.261725142592411"><ele>520.0</ele><time>2026-04-03T10:06:36.999Z</time></trkpt><trkpt lat="45.876525412908826" lon="9.26180104407411"><ele>520.0</ele><time>2026-04-03T10:06:37.999Z</time></trkpt><trkpt lat="45.876649764434426" lon="9.261878533179273"><ele>520.0</ele><time>2026-04-03T10:06:38.999Z</time></trkpt><trkpt lat="45.87678020277949" lon="9.261953788249446"><ele>520.0</ele><time>2026-04-03T10:06:39.999Z</time></trkpt><trkpt lat="45.87691124079287" lon="9.262008576693942"><ele>523.75</ele><time>2026-04-03T10:06:40.999Z</time></trkpt><trkpt lat="45.877040581888814" lon="9.262048857622624"><ele>527.5</ele><time>2026-04-03T10:06:41.999Z</time></trkpt><trkpt lat="45.877163392419135" lon="9.262076222871222"><ele>531.25</ele><time>2026-04-03T10:06:42.999Z</time></trkpt><trkpt lat="45.87727849882622" lon="9.262090748598782"><ele>535.0</ele><time>2026-04-03T10:06:43.999Z</time></trkpt><trkpt lat="45.87738971447231" lon="9.262099404900448"><ele>535.0</ele><time>2026-04-03T10:06:44.999Z</time></trkpt><trkpt lat="45.877494179949096" lon="9.262110752280433"><ele>535.0</ele><time>2026-04-03T10:06:45.999Z</time></trkpt><trkpt lat="45.87758117822579" lon="9.262121844610336"><ele>535.0</ele><time>2026-04-03T10:06:46.999Z</time></trkpt><trkpt lat="45.8776531953303" lon="9.262132394436533"><ele>535.0</ele><time>2026-04-03T10:06:47.999Z</time></trkpt><trkpt lat="45.87773732032223" lon="9.262146307029795"><ele>535.0</ele><time>2026-04-03T10:06:48.999Z</time></trkpt><trkpt lat="45.87784000000626" lon="9.262161113934416"><ele>537.5</ele><time>2026-04-03T10:06:49.999Z</time></trkpt><trkpt lat="45.87795222855459" lon="9.262176022288237"><ele>540.0</ele><time>2026-04-03T10:06:50.999Z</time></trkpt><trkpt lat="45.87807144575342" lon="9.262190856357263"><ele>542.5</ele><time>2026-04-03T10:06:51.999Z</time></trkpt><trkpt lat="45.87820450400237" lon="9.262197531110349"><ele>545.0</ele><time>2026-04-03T10:06:53Z</time></trkpt><trkpt lat="45.87834000816896" lon="9.262214933752007"><ele>548.75</ele><time>2026-04-03T10:06:54Z</time></trkpt><trkpt lat="45.87846711646279" lon="9.26223646233877"><ele>552.5</ele><time>2026-04-03T10:06:55Z</time></trkpt><trkpt lat="45.87858655827521" lon="9.262257752957899"><ele>556.25</ele><time>2026-04-03T10:06:56Z</time></trkpt><trkpt lat="45.878720319924035" lon="9.262291564874554"><ele>560.0</ele><time>2026-04-03T10:06:57Z</time></trkpt><trkpt lat="45.87885739922654" lon="9.26235633308173"><ele>556.0</ele><time>2026-04-03T10:06:58Z</time></trkpt><trkpt lat="45.87898520778078" lon="9.26241695253044"><ele>552.0</ele><time>2026-04-03T10:06:59Z</time></trkpt><trkpt lat="45.87910081626849" lon="9.262466857021703"><ele>548.0</ele><time>2026-04-03T10:07:00Z</time></trkpt><trkpt lat="45.879209804921636" lon="9.262524378356655"><ele>544.0</ele><time>2026-04-03T10:07:01Z</time></trkpt><trkpt lat="45.879327429211806" lon="9.262580744767202"><ele>544.0</ele><time>2026-04-03T10:07:02Z</time></trkpt><trkpt lat="45.879465447830114" lon="9.262620963640835"><ele>544.0</ele><time>2026-04-03T10:07:03Z</time></trkpt><trkpt lat="45.87961298786364" lon="9.262649632605482"><ele>544.0</ele><time>2026-04-03T10:07:04Z</time></trkpt><trkpt lat="45.87975623779438" lon="9.262673977930028"><ele>544.0</ele><time>2026-04-03T10:07:05Z</time></trkpt><trkpt lat="45.87988895642994" lon="9.26269714280707"><ele>544.0</ele><time>2026-04-03T10:07:06Z</time></trkpt><trkpt lat="45.88001664389381" lon="9.262718824956355"><ele>544.0</ele><time>2026-04-03T10:07:07Z</time></trkpt><trkpt lat="45.88013502485646" lon="9.262745054876934"><ele>544.0</ele><time>2026-04-03T10:07:08Z</time></trkpt><trkpt lat="45.880252998296044" lon="9.262766012287823"><ele>544.0</ele><time>2026-04-03T10:07:09Z</time></trkpt><trkpt lat="45.88036736286831" lon="9.262787819705018"><ele>544.75</ele><time>2026-04-03T10:07:10Z</time></trkpt><trkpt lat="45.880478063354964" lon="9.262811913239005"><ele>545.5</ele><time>2026-04-03T10:07:11Z</time></trkpt><trkpt lat="45.88058382039959" lon="9.262834172808555"><ele>546.25</ele><time>2026-04-03T10:07:12Z</time></trkpt><trkpt lat="45.880695464903425" lon="9.262860010253847"><ele>547.0</ele><time>2026-04-03T10:07:13Z</time></trkpt><trkpt lat="45.8808147749791" lon="9.262894341093162"><ele>547.0</ele><time>2026-04-03T10:07:14Z</time></trkpt><trkpt lat="45.880947311638735" lon="9.262932533818459"><ele>547.0</ele><time>2026-04-03T10:07:15Z</time></trkpt><trkpt lat="45.881086120758475" lon="9.262966655092296"><ele>547.0</ele><time>2026-04-03T10:07:16Z</time></trkpt><trkpt lat="45.8812178637429" lon="9.263004226619774"><ele>547.0</ele><time>2026-04-03T10:07:17Z</time></trkpt><trkpt lat="45.88133302377776" lon="9.263035797543992"><ele>547.0</ele><time>2026-04-03T10:07:18Z</time></trkpt><trkpt lat="45.88143834649389" lon="9.263067490802745"><ele>547.0</ele><time>2026-04-03T10:07:19Z</time></trkpt><trkpt lat="45.881543775403685" lon="9.263100754751175"><ele>547.0</ele><time>2026-04-03T10:07:20Z</time></trkpt><trkpt lat="45.88164863009296" lon="9.263130657209887"><ele>547.0</ele><time>2026-04-03T10:07:21Z</time></trkpt><trkpt lat="45.881759480846156" lon="9.263160520018884"><ele>547.0</ele><time>2026-04-03T10:07:22Z</time></trkpt><trkpt lat="45.88187155959612" lon="9.263192916809606"><ele>543.0</ele><time>2026-04-03T10:07:23Z</time></trkpt><trkpt lat="45.88198675753993" lon="9.263223146091308"><ele>539.0</ele><time>2026-04-03T10:07:24Z</time></trkpt><trkpt lat="45.882105208144054" lon="9.263256656296566"><ele>535.0</ele><time>2026-04-03T10:07:25Z</time></trkpt><trkpt lat="45.882222573270504" lon="9.263296464698147"><ele>531.0</ele><time>2026-04-03T10:07:26Z</time></trkpt><trkpt lat="45.88233353310881" lon="9.26332846382834"><ele>531.0</ele><time>2026-04-03T10:07:27Z</time></trkpt><trkpt lat="45.88242176521821" lon="9.263355175676596"><ele>531.0</ele><time>2026-04-03T10:07:28Z</time></trkpt><trkpt lat="45.88249992244674" lon="9.263375732731996"><ele>531.0</ele><time>2026-04-03T10:07:29Z</time></trkpt><trkpt lat="45.8825929469671" lon="9.263400227700874"><ele>531.0</ele><time>2026-04-03T10:07:30Z</time></trkpt><trkpt lat="45.882698396397124" lon="9.263429229607059"><ele>531.0</ele><time>2026-04-03T10:07:31Z</time></trkpt><trkpt lat="45.88281245784761" lon="9.26348612577195"><ele>532.75</ele><time>2026-04-03T10:07:32Z</time></trkpt><trkpt lat="45.88293118531352" lon="9.263521187641546"><ele>534.5</ele><time>2026-04-03T10:07:33Z</time></trkpt><trkpt lat="45.88305841373155" lon="9.26355875999449"><ele>536.25</ele><time>2026-04-03T10:07:34Z</time></trkpt><trkpt lat="45.88319374410665" lon="9.263574572481208"><ele>538.0</ele><time>2026-04-03T10:07:35Z</time></trkpt><trkpt lat="45.883325632196595" lon="9.263615176443926"><ele>539.5</ele><time>2026-04-03T10:07:36Z</time></trkpt><trkpt lat="45.883458184658316" lon="9.26365688375199"><ele>541.0</ele><time>2026-04-03T10:07:37Z</time></trkpt><trkpt lat="45.883593784667454" lon="9.263701380175165"><ele>542.5</ele><time>2026-04-03T10:07:38Z</time></trkpt><trkpt lat="45.88372826575146" lon="9.26373809366978"><ele>544.0</ele><time>2026-04-03T10:07:39Z</time></trkpt><trkpt lat="45.883863099366266" lon="9.263772619461312"><ele>544.0</ele><time>2026-04-03T10:07:40Z</time></trkpt><trkpt lat="45.88399563615013" lon="9.263809606688078"><ele>544.0</ele><time>2026-04-03T10:07:41Z</time></trkpt><trkpt lat="45.88412697494592" lon="9.263843612290607"><ele>544.0</ele><time>2026-04-03T10:07:42Z</time></trkpt><trkpt lat="45.88425309748843" lon="9.263876104348792"><ele>544.0</ele><time>2026-04-03T10:07:43Z</time></trkpt><trkpt lat="45.88438030542349" lon="9.263899379555637"><ele>544.25</ele><time>2026-04-03T10:07:44Z</time></trkpt><trkpt lat="45.8845042558337" lon="9.263914284227573"><ele>544.5</ele><time>2026-04-03T10:07:45Z</time></trkpt><trkpt lat="45.88462560190895" lon="9.263911898328821"><ele>544.75</ele><time>2026-04-03T10:07:46Z</time></trkpt><trkpt lat="45.88473651692035" lon="9.263872278710508"><ele>545.0</ele><time>2026-04-03T10:07:47Z</time></trkpt><trkpt lat="45.88482827556838" lon="9.263799180483938"><ele>545.0</ele><time>2026-04-03T10:07:48Z</time></trkpt><trkpt lat="45.88490339898445" lon="9.263684145172052"><ele>545.0</ele><time>2026-04-03T10:07:49Z</time></trkpt><trkpt lat="45.88496497827341" lon="9.263524683201284"><ele>545.0</ele><time>2026-04-03T10:07:50Z</time></trkpt><trkpt lat="45.885023201849776" lon="9.26334259920776"><ele>545.0</ele><time>2026-04-03T10:07:51Z</time></trkpt><trkpt lat="45.88509171947729" lon="9.263176145510744"><ele>545.5</ele><time>2026-04-03T10:07:52Z</time></trkpt><trkpt lat="45.88516933829412" lon="9.26302724213621"><ele>546.0</ele><time>2026-04-03T10:07:53Z</time></trkpt><trkpt lat="45.88525200817683" lon="9.262882693295376"><ele>546.5</ele><time>2026-04-03T10:07:54Z</time></trkpt><trkpt lat="45.885348671424836" lon="9.262742296416109"><ele>547.0</ele><time>2026-04-03T10:07:55Z</time></trkpt><trkpt lat="45.885469862090964" lon="9.262616947034328"><ele>547.0</ele><time>2026-04-03T10:07:56Z</time></trkpt><trkpt lat="45.88561472756597" lon="9.262510647924383"><ele>547.0</ele><time>2026-04-03T10:07:57Z</time></trkpt><trkpt lat="45.88577248344956" lon="9.262419659044177"><ele>547.0</ele><time>2026-04-03T10:07:58Z</time></trkpt><trkpt lat="45.885932452646365" lon="9.26233407565254"><ele>546.6666666666667</ele><time>2026-04-03T10:07:59Z</time></trkpt><trkpt lat="45.88609175828548" lon="9.26224248158599"><ele>546.3333333333334</ele><time>2026-04-03T10:08:00Z</time></trkpt><trkpt lat="45.886252092205915" lon="9.262150255342306"><ele>546.0</ele><time>2026-04-03T10:08:01Z</time></trkpt><trkpt lat="45.886422745526026" lon="9.262058871527103"><ele>546.0</ele><time>2026-04-03T10:08:02Z</time></trkpt><trkpt lat="45.88660245606999" lon="9.261962798519482"><ele>546.0</ele><time>2026-04-03T10:08:03Z</time></trkpt><trkpt lat="45.886787836819245" lon="9.261859427810869"><ele>546.0</ele><time>2026-04-03T10:08:03.999Z</time></trkpt><trkpt lat="45.88697347036112" lon="9.26175168698035"><ele>548.3333333333334</ele><time>2026-04-03T10:08:04.999Z</time></trkpt><trkpt lat="45.8871510265408" lon="9.261646755714505"><ele>550.6666666666667</ele><time>2026-04-03T10:08:05.999Z</time></trkpt><trkpt lat="45.88731890736295" lon="9.261549759386869"><ele>553.0</ele><time>2026-04-03T10:08:06.999Z</time></trkpt><trkpt lat="45.88746571148907" lon="9.26146957293881"><ele>554.6666666666667</ele><time>2026-04-03T10:08:07.999Z</time></trkpt><trkpt lat="45.88761200666282" lon="9.26138821532896"><ele>556.3333333333334</ele><time>2026-04-03T10:08:08.999Z</time></trkpt><trkpt lat="45.88776366285761" lon="9.261301684377386"><ele>558.0</ele><time>2026-04-03T10:08:09.999Z</time></trkpt><trkpt lat="45.887914530568985" lon="9.26121372985833"><ele>558.0</ele><time>2026-04-03T10:08:10.999Z</time></trkpt><trkpt lat="45.888059109026095" lon="9.261132642975276"><ele>558.0</ele><time>2026-04-03T10:08:11.999Z</time></trkpt><trkpt lat="45.88820305009852" lon="9.261055148718649"><ele>558.0</ele><time>2026-04-03T10:08:12.999Z</time></trkpt><trkpt lat="45.88834858141859" lon="9.260974010600053"><ele>558.3333333333334</ele><time>2026-04-03T10:08:13.999Z</time></trkpt><trkpt lat="45.888494843357975" lon="9.26090025929444"><ele>558.6666666666667</ele><time>2026-04-03T10:08:14.999Z</time></trkpt><trkpt lat="45.8886460519089" lon="9.260866095582097"><ele>559.0</ele><time>2026-04-03T10:08:15.999Z</time></trkpt><trkpt lat="45.88879130372127" lon="9.260795504507707"><ele>559.0</ele><time>2026-04-03T10:08:16.999Z</time></trkpt><trkpt lat="45.88894333067818" lon="9.260749436947078"><ele>559.0</ele><time>2026-04-03T10:08:17.999Z</time></trkpt><trkpt lat="45.88910245722762" lon="9.260701647761081"><ele>559.0</ele><time>2026-04-03T10:08:18.999Z</time></trkpt><trkpt lat="45.88926273748899" lon="9.260658957333519"><ele>561.3333333333334</ele><time>2026-04-03T10:08:19.999Z</time></trkpt><trkpt lat="45.88941335040372" lon="9.26061261261135"><ele>563.6666666666666</ele><time>2026-04-03T10:08:20.999Z</time></trkpt><trkpt lat="45.889558654686134" lon="9.260573097653882"><ele>566.0</ele><time>2026-04-03T10:08:21.999Z</time></trkpt><trkpt lat="45.88971475226115" lon="9.260550875336078"><ele>566.0</ele><time>2026-04-03T10:08:22.999Z</time></trkpt><trkpt lat="45.88988008278979" lon="9.260547072483881"><ele>566.0</ele><time>2026-04-03T10:08:23.999Z</time></trkpt><trkpt lat="45.890052262370126" lon="9.26055847139193"><ele>566.0</ele><time>2026-04-03T10:08:24.999Z</time></trkpt><trkpt lat="45.89021240679136" lon="9.260571966661484"><ele>567.3333333333333</ele><time>2026-04-03T10:08:25.999Z</time></trkpt><trkpt lat="45.89037663086624" lon="9.260572874070547"><ele>568.6666666666666</ele><time>2026-04-03T10:08:26.999Z</time></trkpt><trkpt lat="45.89053617457904" lon="9.260576901262016"><ele>570.0</ele><time>2026-04-03T10:08:27.999Z</time></trkpt><trkpt lat="45.890689099965044" lon="9.260582186122289"><ele>570.0</ele><time>2026-04-03T10:08:28.999Z</time></trkpt><trkpt lat="45.890837000151464" lon="9.260588040603116"><ele>570.0</ele><time>2026-04-03T10:08:29.999Z</time></trkpt><trkpt lat="45.8909884110327" lon="9.260594672740337"><ele>570.0</ele><time>2026-04-03T10:08:30.999Z</time></trkpt><trkpt lat="45.89114580259772" lon="9.260599987406387"><ele>567.6666666666666</ele><time>2026-04-03T10:08:31.999Z</time></trkpt><trkpt lat="45.89130651012711" lon="9.26061658420275"><ele>565.3333333333333</ele><time>2026-04-03T10:08:32.999Z</time></trkpt><trkpt lat="45.89147649565563" lon="9.260656759239424"><ele>563.0</ele><time>2026-04-03T10:08:33.999Z</time></trkpt><trkpt lat="45.89165206698944" lon="9.260726478774181"><ele>567.0</ele><time>2026-04-03T10:08:34.999Z</time></trkpt><trkpt lat="45.891830620041596" lon="9.26080030341786"><ele>571.0</ele><time>2026-04-03T10:08:35.999Z</time></trkpt><trkpt lat="45.892015300106756" lon="9.260874473112166"><ele>575.0</ele><time>2026-04-03T10:08:36.999Z</time></trkpt><trkpt lat="45.892198145316826" lon="9.26094291300043"><ele>575.0</ele><time>2026-04-03T10:08:37.999Z</time></trkpt><trkpt lat="45.89236116583048" lon="9.261007014516442"><ele>575.0</ele><time>2026-04-03T10:08:38.999Z</time></trkpt><trkpt lat="45.89250702313629" lon="9.261071565955104"><ele>575.0</ele><time>2026-04-03T10:08:39.999Z</time></trkpt><trkpt lat="45.89265378269819" lon="9.261133396310205"><ele>577.5</ele><time>2026-04-03T10:08:40.999Z</time></trkpt><trkpt lat="45.8928025659201" lon="9.261193320233469"><ele>580.0</ele><time>2026-04-03T10:08:41.999Z</time></trkpt><trkpt lat="45.892944967473916" lon="9.261250863818416"><ele>582.5</ele><time>2026-04-03T10:08:42.999Z</time></trkpt><trkpt lat="45.89308202333502" lon="9.261306038932826"><ele>585.0</ele><time>2026-04-03T10:08:43.999Z</time></trkpt><trkpt lat="45.89322010884964" lon="9.261365306295401"><ele>585.0</ele><time>2026-04-03T10:08:44.999Z</time></trkpt><trkpt lat="45.89336861852753" lon="9.26141102823408"><ele>585.0</ele><time>2026-04-03T10:08:45.999Z</time></trkpt><trkpt lat="45.89353143355329" lon="9.261437464528521"><ele>585.0</ele><time>2026-04-03T10:08:46.999Z</time></trkpt><trkpt lat="45.89370478044711" lon="9.261453283728295"><ele>582.3333333333334</ele><time>2026-04-03T10:08:47.999Z</time></trkpt><trkpt lat="45.89388701165816" lon="9.26146006940437"><ele>579.6666666666667</ele><time>2026-04-03T10:08:48.999Z</time></trkpt><trkpt lat="45.89406754618591" lon="9.26147181912558"><ele>577.0</ele><time>2026-04-03T10:08:49.999Z</time></trkpt><trkpt lat="45.894240216917" lon="9.261490649351131"><ele>580.6666666666667</ele><time>2026-04-03T10:08:50.999Z</time></trkpt><trkpt lat="45.89440787694193" lon="9.261510578554446"><ele>584.3333333333334</ele><time>2026-04-03T10:08:51.999Z</time></trkpt><trkpt lat="45.89457529758587" lon="9.261523233276629"><ele>588.0</ele><time>2026-04-03T10:08:52.999Z</time></trkpt><trkpt lat="45.89474130410671" lon="9.26155107069801"><ele>588.0</ele><time>2026-04-03T10:08:53.999Z</time></trkpt><trkpt lat="45.894908766463125" lon="9.261610225899487"><ele>588.0</ele><time>2026-04-03T10:08:54.999Z</time></trkpt><trkpt lat="45.89507980242824" lon="9.261683295863879"><ele>588.0</ele><time>2026-04-03T10:08:55.999Z</time></trkpt><trkpt lat="45.895252499653466" lon="9.261755351958536"><ele>593.3333333333334</ele><time>2026-04-03T10:08:56.999Z</time></trkpt><trkpt lat="45.895425657462184" lon="9.261813467363126"><ele>598.6666666666667</ele><time>2026-04-03T10:08:57.999Z</time></trkpt><trkpt lat="45.89558805001797" lon="9.261866500322585"><ele>604.0</ele><time>2026-04-03T10:08:59.001Z</time></trkpt><trkpt lat="45.895741539792496" lon="9.261930316167852"><ele>604.0</ele><time>2026-04-03T10:09:00.001Z</time></trkpt><trkpt lat="45.895889584288376" lon="9.262027609236586"><ele>604.0</ele><time>2026-04-03T10:09:01.001Z</time></trkpt><trkpt lat="45.89600695084889" lon="9.26217991707849"><ele>604.0</ele><time>2026-04-03T10:09:02.001Z</time></trkpt><trkpt lat="45.89613690966623" lon="9.262306992003154"><ele>603.0</ele><time>2026-04-03T10:09:03.001Z</time></trkpt><trkpt lat="45.8962547931423" lon="9.262431264516492"><ele>602.0</ele><time>2026-04-03T10:09:04.001Z</time></trkpt><trkpt lat="45.89639166009971" lon="9.262527283682171"><ele>601.0</ele><time>2026-04-03T10:09:05.001Z</time></trkpt><trkpt lat="45.896543196032255" lon="9.262593604829368"><ele>601.0</ele><time>2026-04-03T10:09:06.001Z</time></trkpt><trkpt lat="45.89670285880666" lon="9.262644689487622"><ele>601.0</ele><time>2026-04-03T10:09:07.001Z</time></trkpt><trkpt lat="45.89685991395553" lon="9.262711007055149"><ele>601.0</ele><time>2026-04-03T10:09:08.001Z</time></trkpt><trkpt lat="45.89701659819854" lon="9.26281741423622"><ele>607.3333333333334</ele><time>2026-04-03T10:09:09.001Z</time></trkpt><trkpt lat="45.8971819936131" lon="9.262923037701457"><ele>613.6666666666666</ele><time>2026-04-03T10:09:10.001Z</time></trkpt><trkpt lat="45.897354814409596" lon="9.26301627966644"><ele>620.0</ele><time>2026-04-03T10:09:11Z</time></trkpt><trkpt lat="45.89752327048838" lon="9.263094030498186"><ele>614.6666666666666</ele><time>2026-04-03T10:09:12Z</time></trkpt><trkpt lat="45.89767474397132" lon="9.263157882736966"><ele>609.3333333333334</ele><time>2026-04-03T10:09:13Z</time></trkpt><trkpt lat="45.897829215159796" lon="9.263211032641125"><ele>604.0</ele><time>2026-04-03T10:09:14Z</time></trkpt><trkpt lat="45.89798961968522" lon="9.263281645619815"><ele>604.0</ele><time>2026-04-03T10:09:15Z</time></trkpt><trkpt lat="45.89814846322629" lon="9.26338952659365"><ele>604.0</ele><time>2026-04-03T10:09:16Z</time></trkpt><trkpt lat="45.898298663347745" lon="9.26352808723198"><ele>604.0</ele><time>2026-04-03T10:09:17Z</time></trkpt><trkpt lat="45.89844239844228" lon="9.263669724624577"><ele>602.3333333333334</ele><time>2026-04-03T10:09:18Z</time></trkpt><trkpt lat="45.898577771514" lon="9.263802815407745"><ele>600.6666666666666</ele><time>2026-04-03T10:09:19Z</time></trkpt><trkpt lat="45.89871102120836" lon="9.263938683620335"><ele>599.0</ele><time>2026-04-03T10:09:20Z</time></trkpt><trkpt lat="45.89885275863088" lon="9.264055327092498"><ele>599.0</ele><time>2026-04-03T10:09:21Z</time></trkpt><trkpt lat="45.89901269413594" lon="9.264141586941333"><ele>599.0</ele><time>2026-04-03T10:09:22Z</time></trkpt><trkpt lat="45.899163930410936" lon="9.264188757914187"><ele>599.0</ele><time>2026-04-03T10:09:23Z</time></trkpt><trkpt lat="45.899333637942796" lon="9.264187141819711"><ele>601.0</ele><time>2026-04-03T10:09:24Z</time></trkpt><trkpt lat="45.899519673207436" lon="9.264183145878244"><ele>603.0</ele><time>2026-04-03T10:09:25Z</time></trkpt><trkpt lat="45.89968615283239" lon="9.264149885883976"><ele>605.0</ele><time>2026-04-03T10:09:26Z</time></trkpt><trkpt lat="45.89983331067334" lon="9.264132614289522"><ele>605.0</ele><time>2026-04-03T10:09:27Z</time></trkpt><trkpt lat="45.899969707610616" lon="9.264126570128601"><ele>605.0</ele><time>2026-04-03T10:09:28Z</time></trkpt><trkpt lat="45.90011172608204" lon="9.264123584981439"><ele>605.0</ele><time>2026-04-03T10:09:29Z</time></trkpt><trkpt lat="45.90026345824448" lon="9.264107591754492"><ele>605.0</ele><time>2026-04-03T10:09:30Z</time></trkpt><trkpt lat="45.900415237574975" lon="9.264090915146937"><ele>605.0</ele><time>2026-04-03T10:09:31Z</time></trkpt><trkpt lat="45.90056056964688" lon="9.264083042184"><ele>605.0</ele><time>2026-04-03T10:09:32Z</time></trkpt><trkpt lat="45.90070553570484" lon="9.264067200036074"><ele>605.0</ele><time>2026-04-03T10:09:33Z</time></trkpt><trkpt lat="45.90083419153686" lon="9.264052556571265"><ele>605.0</ele><time>2026-04-03T10:09:34Z</time></trkpt><trkpt lat="45.90096263494736" lon="9.264058862127529"><ele>607.75</ele><time>2026-04-03T10:09:35Z</time></trkpt><trkpt lat="45.90109473409758" lon="9.264106627418094"><ele>610.5</ele><time>2026-04-03T10:09:36Z</time></trkpt><trkpt lat="45.90122937464406" lon="9.264187975884532"><ele>613.25</ele><time>2026-04-03T10:09:37Z</time></trkpt><trkpt lat="45.90136381247323" lon="9.264289401512828"><ele>616.0</ele><time>2026-04-03T10:09:38Z</time></trkpt><trkpt lat="45.90150000832418" lon="9.264394698434865"><ele>616.0</ele><time>2026-04-03T10:09:39Z</time></trkpt><trkpt lat="45.90163947539278" lon="9.264504706599089"><ele>616.0</ele><time>2026-04-03T10:09:40Z</time></trkpt><trkpt lat="45.90177188268964" lon="9.26463585247552"><ele>616.0</ele><time>2026-04-03T10:09:41Z</time></trkpt><trkpt lat="45.901891382826705" lon="9.264789360642595"><ele>616.25</ele><time>2026-04-03T10:09:42Z</time></trkpt><trkpt lat="45.901994519504214" lon="9.264944993715341"><ele>616.5</ele><time>2026-04-03T10:09:43Z</time></trkpt><trkpt lat="45.90208719532513" lon="9.26509191202532"><ele>616.75</ele><time>2026-04-03T10:09:44Z</time></trkpt><trkpt lat="45.902189751820146" lon="9.265225976036438"><ele>617.0</ele><time>2026-04-03T10:09:45Z</time></trkpt><trkpt lat="45.90230134278915" lon="9.26533622190759"><ele>617.0</ele><time>2026-04-03T10:09:46Z</time></trkpt><trkpt lat="45.90241999882556" lon="9.265420784684668"><ele>617.0</ele><time>2026-04-03T10:09:47Z</time></trkpt><trkpt lat="45.902544491248456" lon="9.265478972143011"><ele>617.0</ele><time>2026-04-03T10:09:48Z</time></trkpt><trkpt lat="45.90267514728469" lon="9.265516382586735"><ele>617.0</ele><time>2026-04-03T10:09:49Z</time></trkpt><trkpt lat="45.90280516882637" lon="9.265537545642795"><ele>616.75</ele><time>2026-04-03T10:09:50Z</time></trkpt><trkpt lat="45.90292240315757" lon="9.265565224805167"><ele>616.5</ele><time>2026-04-03T10:09:51Z</time></trkpt><trkpt lat="45.90303032279884" lon="9.265612116702751"><ele>616.25</ele><time>2026-04-03T10:09:52Z</time></trkpt><trkpt lat="45.903135161379325" lon="9.265678370275193"><ele>616.0</ele><time>2026-04-03T10:09:52.999Z</time></trkpt><trkpt lat="45.90323973092415" lon="9.265753399683573"><ele>616.0</ele><time>2026-04-03T10:09:53.999Z</time></trkpt><trkpt lat="45.90333366492886" lon="9.265810325077679"><ele>616.0</ele><time>2026-04-03T10:09:54.999Z</time></trkpt><trkpt lat="45.903423035071874" lon="9.265845193881091"><ele>616.0</ele><time>2026-04-03T10:09:55.999Z</time></trkpt><trkpt lat="45.903519292520954" lon="9.265883386542942"><ele>616.0</ele><time>2026-04-03T10:09:56.999Z</time></trkpt><trkpt lat="45.903621153999424" lon="9.265946276766432"><ele>616.0</ele><time>2026-04-03T10:09:57.999Z</time></trkpt><trkpt lat="45.90371876147582" lon="9.266032000324198"><ele>616.25</ele><time>2026-04-03T10:09:58.999Z</time></trkpt><trkpt lat="45.90381020529901" lon="9.266152177339634"><ele>616.5</ele><time>2026-04-03T10:09:59.999Z</time></trkpt><trkpt lat="45.90392464202525" lon="9.266244808618355"><ele>616.75</ele><time>2026-04-03T10:10:00.999Z</time></trkpt><trkpt lat="45.90402483768648" lon="9.266361272486135"><ele>617.0</ele><time>2026-04-03T10:10:01.999Z</time></trkpt><trkpt lat="45.90412538981163" lon="9.266466603961975"><ele>616.25</ele><time>2026-04-03T10:10:02.999Z</time></trkpt><trkpt lat="45.90423532715598" lon="9.266551692521569"><ele>615.5</ele><time>2026-04-03T10:10:03.999Z</time></trkpt><trkpt lat="45.90436525942686" lon="9.266602126022919"><ele>614.75</ele><time>2026-04-03T10:10:04.999Z</time></trkpt><trkpt lat="45.904507985958176" lon="9.266607598554927"><ele>614.0</ele><time>2026-04-03T10:10:05.999Z</time></trkpt><trkpt lat="45.904653074342264" lon="9.266561388656154"><ele>613.0</ele><time>2026-04-03T10:10:06.999Z</time></trkpt><trkpt lat="45.904795602926654" lon="9.266469138367487"><ele>612.0</ele><time>2026-04-03T10:10:07.999Z</time></trkpt><trkpt lat="45.904934493610604" lon="9.266362443223167"><ele>611.0</ele><time>2026-04-03T10:10:08.999Z</time></trkpt><trkpt lat="45.90507714000291" lon="9.266257707542854"><ele>612.0</ele><time>2026-04-03T10:10:09.999Z</time></trkpt><trkpt lat="45.90522044221511" lon="9.266161924956767"><ele>613.0</ele><time>2026-04-03T10:10:10.999Z</time></trkpt><trkpt lat="45.90536179969997" lon="9.266063184802102"><ele>614.0</ele><time>2026-04-03T10:10:11.999Z</time></trkpt><trkpt lat="45.90550233608774" lon="9.265957423488237"><ele>614.0</ele><time>2026-04-03T10:10:12.999Z</time></trkpt><trkpt lat="45.905643019812395" lon="9.265858652776005"><ele>614.0</ele><time>2026-04-03T10:10:13.999Z</time></trkpt><trkpt lat="45.90578660061429" lon="9.265761410641474"><ele>614.0</ele><time>2026-04-03T10:10:14.999Z</time></trkpt><trkpt lat="45.90593132043051" lon="9.265648641382061"><ele>615.6666666666666</ele><time>2026-04-03T10:10:15.999Z</time></trkpt><trkpt lat="45.90607039662476" lon="9.26551526218277"><ele>617.3333333333334</ele><time>2026-04-03T10:10:16.999Z</time></trkpt><trkpt lat="45.90620428838811" lon="9.26536987938414"><ele>619.0</ele><time>2026-04-03T10:10:17.999Z</time></trkpt><trkpt lat="45.906338784681395" lon="9.265239486508342"><ele>619.0</ele><time>2026-04-03T10:10:18.999Z</time></trkpt><trkpt lat="45.90647616653828" lon="9.265101290949218"><ele>619.0</ele><time>2026-04-03T10:10:19.999Z</time></trkpt><trkpt lat="45.90661459780958" lon="9.264948588399935"><ele>619.0</ele><time>2026-04-03T10:10:20.999Z</time></trkpt><trkpt lat="45.90674983438529" lon="9.264802970391278"><ele>622.0</ele><time>2026-04-03T10:10:21.999Z</time></trkpt><trkpt lat="45.90688105883555" lon="9.26466908883826"><ele>625.0</ele><time>2026-04-03T10:10:22.999Z</time></trkpt><trkpt lat="45.90700808917122" lon="9.26452953892264"><ele>628.0</ele><time>2026-04-03T10:10:23.999Z</time></trkpt><trkpt lat="45.90713351202142" lon="9.264387999223356"><ele>628.0</ele><time>2026-04-03T10:10:24.999Z</time></trkpt><trkpt lat="45.90726261046735" lon="9.264254853875634"><ele>628.0</ele><time>2026-04-03T10:10:25.999Z</time></trkpt><trkpt lat="45.90739370330237" lon="9.264124434236257"><ele>628.0</ele><time>2026-04-03T10:10:26.999Z</time></trkpt><trkpt lat="45.90752812670853" lon="9.263991417343918"><ele>637.6666666666667</ele><time>2026-04-03T10:10:27.999Z</time></trkpt><trkpt lat="45.90767310822732" lon="9.263863341710822"><ele>647.3333333333334</ele><time>2026-04-03T10:10:28.999Z</time></trkpt><trkpt lat="45.907828071974784" lon="9.263748200792948"><ele>657.0</ele><time>2026-04-03T10:10:29.999Z</time></trkpt><trkpt lat="45.90799630818031" lon="9.263638876403139"><ele>657.0</ele><time>2026-04-03T10:10:30.999Z</time></trkpt><trkpt lat="45.9081730462416" lon="9.263563292579203"><ele>657.0</ele><time>2026-04-03T10:10:31.999Z</time></trkpt><trkpt lat="45.90833075631236" lon="9.263480948572358"><ele>657.0</ele><time>2026-04-03T10:10:32.999Z</time></trkpt><trkpt lat="45.90848076725044" lon="9.263398101695117"><ele>651.0</ele><time>2026-04-03T10:10:33.999Z</time></trkpt><trkpt lat="45.908632090399784" lon="9.263312080600125"><ele>645.0</ele><time>2026-04-03T10:10:34.999Z</time></trkpt><trkpt lat="45.90878477007043" lon="9.263224861712608"><ele>639.0</ele><time>2026-04-03T10:10:35.999Z</time></trkpt><trkpt lat="45.9089386768152" lon="9.263141490080066"><ele>651.0</ele><time>2026-04-03T10:10:36.999Z</time></trkpt><trkpt lat="45.909086160210954" lon="9.263063633532111"><ele>663.0</ele><time>2026-04-03T10:10:37.999Z</time></trkpt><trkpt lat="45.909227989905624" lon="9.262985676875342"><ele>675.0</ele><time>2026-04-03T10:10:38.999Z</time></trkpt><trkpt lat="45.909360472522295" lon="9.26291632066686"><ele>675.0</ele><time>2026-04-03T10:10:39.999Z</time></trkpt><trkpt lat="45.90949450094948" lon="9.262845703819336"><ele>675.0</ele><time>2026-04-03T10:10:40.999Z</time></trkpt><trkpt lat="45.90962816253446" lon="9.262773504451877"><ele>675.0</ele><time>2026-04-03T10:10:41.999Z</time></trkpt><trkpt lat="45.90975621204583" lon="9.262707556092863"><ele>675.0</ele><time>2026-04-03T10:10:42.999Z</time></trkpt><trkpt lat="45.90989153157356" lon="9.262648266704977"><ele>675.0</ele><time>2026-04-03T10:10:43.999Z</time></trkpt><trkpt lat="45.91003680436105" lon="9.262606610777528"><ele>675.0</ele><time>2026-04-03T10:10:44.999Z</time></trkpt><trkpt lat="45.91018677784551" lon="9.26258534363225"><ele>675.0</ele><time>2026-04-03T10:10:45.999Z</time></trkpt><trkpt lat="45.91034325585151" lon="9.26257891817581"><ele>676.3333333333334</ele><time>2026-04-03T10:10:46.999Z</time></trkpt><trkpt lat="45.910504849742054" lon="9.262590364547322"><ele>677.6666666666667</ele><time>2026-04-03T10:10:47.999Z</time></trkpt><trkpt lat="45.91066834029691" lon="9.262617606124984"><ele>679.0</ele><time>2026-04-03T10:10:48.999Z</time></trkpt><trkpt lat="45.91082494077681" lon="9.262639539257256"><ele>678.75</ele><time>2026-04-03T10:10:49.999Z</time></trkpt><trkpt lat="45.91096393646773" lon="9.262647870073094"><ele>678.5</ele><time>2026-04-03T10:10:50.999Z</time></trkpt><trkpt lat="45.91109213775899" lon="9.262665246472102"><ele>678.25</ele><time>2026-04-03T10:10:51.999Z</time></trkpt><trkpt lat="45.91122062255183" lon="9.262672799835933"><ele>678.0</ele><time>2026-04-03T10:10:52.999Z</time></trkpt><trkpt lat="45.91135373083848" lon="9.262652977464363"><ele>678.0</ele><time>2026-04-03T10:10:53.999Z</time></trkpt><trkpt lat="45.91147955431881" lon="9.26260206547832"><ele>678.0</ele><time>2026-04-03T10:10:54.998Z</time></trkpt><trkpt lat="45.91159192927389" lon="9.26251981820178"><ele>678.0</ele><time>2026-04-03T10:10:55.998Z</time></trkpt><trkpt lat="45.91170479617871" lon="9.262415282625009"><ele>678.0</ele><time>2026-04-03T10:10:56.998Z</time></trkpt><trkpt lat="45.9118193779205" lon="9.26227823550936"><ele>679.6666666666666</ele><time>2026-04-03T10:10:57.998Z</time></trkpt><trkpt lat="45.91192059877062" lon="9.262094720572517"><ele>681.3333333333333</ele><time>2026-04-03T10:10:58.998Z</time></trkpt><trkpt lat="45.91200569059396" lon="9.26186678942494"><ele>683.0</ele><time>2026-04-03T10:10:59.998Z</time></trkpt><trkpt lat="45.91207670353396" lon="9.261638108534514"><ele>687.25</ele><time>2026-04-03T10:11:00.998Z</time></trkpt><trkpt lat="45.91214290431505" lon="9.26144797827816"><ele>691.5</ele><time>2026-04-03T10:11:01.998Z</time></trkpt><trkpt lat="45.91221278986311" lon="9.261270318672873"><ele>695.75</ele><time>2026-04-03T10:11:02.998Z</time></trkpt><trkpt lat="45.912297748842114" lon="9.261091563372585"><ele>700.0</ele><time>2026-04-03T10:11:03.998Z</time></trkpt><trkpt lat="45.91240400404468" lon="9.260926089544883"><ele>700.0</ele><time>2026-04-03T10:11:05Z</time></trkpt><trkpt lat="45.91252284623085" lon="9.260779724102418"><ele>700.0</ele><time>2026-04-03T10:11:06Z</time></trkpt><trkpt lat="45.91264889628398" lon="9.260644067463897"><ele>700.0</ele><time>2026-04-03T10:11:07Z</time></trkpt><trkpt lat="45.91277266736807" lon="9.260513478160423"><ele>699.0</ele><time>2026-04-03T10:11:08Z</time></trkpt><trkpt lat="45.91288941550606" lon="9.260384241769897"><ele>698.0</ele><time>2026-04-03T10:11:09Z</time></trkpt><trkpt lat="45.91300522776606" lon="9.260258237652023"><ele>697.0</ele><time>2026-04-03T10:11:10Z</time></trkpt><trkpt lat="45.913124097690385" lon="9.260132341201025"><ele>696.0</ele><time>2026-04-03T10:11:11Z</time></trkpt><trkpt lat="45.91324361817227" lon="9.260014274691478"><ele>696.0</ele><time>2026-04-03T10:11:12Z</time></trkpt><trkpt lat="45.91337661237005" lon="9.259918575208074"><ele>696.0</ele><time>2026-04-03T10:11:13Z</time></trkpt><trkpt lat="45.91353876337085" lon="9.259859756714004"><ele>696.0</ele><time>2026-04-03T10:11:14Z</time></trkpt><trkpt lat="45.91370289334691" lon="9.25985491287841"><ele>698.6666666666666</ele><time>2026-04-03T10:11:15Z</time></trkpt><trkpt lat="45.91386296268448" lon="9.2599023669672"><ele>701.3333333333333</ele><time>2026-04-03T10:11:16Z</time></trkpt><trkpt lat="45.91402855753385" lon="9.259998181296124"><ele>704.0</ele><time>2026-04-03T10:11:17Z</time></trkpt><trkpt lat="45.9141922494551" lon="9.260101717438426"><ele>709.0</ele><time>2026-04-03T10:11:18Z</time></trkpt><trkpt lat="45.91436103564948" lon="9.26018735223116"><ele>714.0</ele><time>2026-04-03T10:11:19Z</time></trkpt><trkpt lat="45.91455656977905" lon="9.26023035038218"><ele>719.0</ele><time>2026-04-03T10:11:20Z</time></trkpt><trkpt lat="45.914779327046716" lon="9.260284013993061"><ele>719.0</ele><time>2026-04-03T10:11:21Z</time></trkpt><trkpt lat="45.91501052956796" lon="9.26030814650383"><ele>719.0</ele><time>2026-04-03T10:11:22Z</time></trkpt><trkpt lat="45.91520657063167" lon="9.260329139812566"><ele>719.0</ele><time>2026-04-03T10:11:23Z</time></trkpt><trkpt lat="45.91537067315955" lon="9.260360982437183"><ele>723.0</ele><time>2026-04-03T10:11:24Z</time></trkpt><trkpt lat="45.91555084549632" lon="9.260370361630487"><ele>727.0</ele><time>2026-04-03T10:11:25Z</time></trkpt><trkpt lat="45.915720726275254" lon="9.260397867909683"><ele>731.0</ele><time>2026-04-03T10:11:26Z</time></trkpt><trkpt lat="45.91586007979865" lon="9.260427541071502"><ele>730.6666666666666</ele><time>2026-04-03T10:11:27Z</time></trkpt><trkpt lat="45.91601027840887" lon="9.260459728083719"><ele>730.3333333333334</ele><time>2026-04-03T10:11:28Z</time></trkpt><trkpt lat="45.91616954927517" lon="9.26051747303493"><ele>730.0</ele><time>2026-04-03T10:11:29Z</time></trkpt><trkpt lat="45.916333881054136" lon="9.260622164032423"><ele>730.0</ele><time>2026-04-03T10:11:30Z</time></trkpt><trkpt lat="45.9164743442183" lon="9.260735929110915"><ele>730.0</ele><time>2026-04-03T10:11:31Z</time></trkpt><trkpt lat="45.91660208587667" lon="9.26082123888535"><ele>730.0</ele><time>2026-04-03T10:11:32Z</time></trkpt><trkpt lat="45.91673506232666" lon="9.260904076314585"><ele>730.0</ele><time>2026-04-03T10:11:33Z</time></trkpt><trkpt lat="45.91686702477005" lon="9.260994971661683"><ele>734.0</ele><time>2026-04-03T10:11:34Z</time></trkpt><trkpt lat="45.916997644336334" lon="9.261079224088945"><ele>738.0</ele><time>2026-04-03T10:11:35Z</time></trkpt><trkpt lat="45.917137691737416" lon="9.261153311276038"><ele>742.0</ele><time>2026-04-03T10:11:36Z</time></trkpt><trkpt lat="45.91729825568974" lon="9.261204666398989"><ele>742.0</ele><time>2026-04-03T10:11:37Z</time></trkpt><trkpt lat="45.917473086410126" lon="9.261240701616472"><ele>742.0</ele><time>2026-04-03T10:11:38Z</time></trkpt><trkpt lat="45.91764009436622" lon="9.261272669259146"><ele>742.0</ele><time>2026-04-03T10:11:39Z</time></trkpt><trkpt lat="45.917800364011306" lon="9.261303578641225"><ele>744.0</ele><time>2026-04-03T10:11:40Z</time></trkpt><trkpt lat="45.91795609146414" lon="9.261334141356437"><ele>746.0</ele><time>2026-04-03T10:11:41Z</time></trkpt><trkpt lat="45.91810753484799" lon="9.26136695020039"><ele>748.0</ele><time>2026-04-03T10:11:42Z</time></trkpt><trkpt lat="45.91825934654539" lon="9.261396039819937"><ele>748.3333333333334</ele><time>2026-04-03T10:11:43Z</time></trkpt><trkpt lat="45.91841509628897" lon="9.26143100054445"><ele>748.6666666666666</ele><time>2026-04-03T10:11:44Z</time></trkpt><trkpt lat="45.91857425471188" lon="9.261459748688202"><ele>749.0</ele><time>2026-04-03T10:11:45Z</time></trkpt><trkpt lat="45.91872042367153" lon="9.261491813035121"><ele>747.0</ele><time>2026-04-03T10:11:46Z</time></trkpt><trkpt lat="45.91886640686801" lon="9.261523246745929"><ele>745.0</ele><time>2026-04-03T10:11:47Z</time></trkpt><trkpt lat="45.918985862935" lon="9.261547371775587"><ele>743.0</ele><time>2026-04-03T10:11:48Z</time></trkpt><trkpt lat="45.919098061421934" lon="9.261571797069807"><ele>741.0</ele><time>2026-04-03T10:11:49Z</time></trkpt><trkpt lat="45.91919374145312" lon="9.261597207042634"><ele>741.5999999999999</ele><time>2026-04-03T10:11:50Z</time></trkpt><trkpt lat="45.9192840450411" lon="9.261614401897834"><ele>742.2</ele><time>2026-04-03T10:11:51Z</time></trkpt><trkpt lat="45.91938004180712" lon="9.261628686835543"><ele>742.8</ele><time>2026-04-03T10:11:52Z</time></trkpt><trkpt lat="45.91948275242915" lon="9.26165279964452"><ele>743.4000000000001</ele><time>2026-04-03T10:11:53Z</time></trkpt><trkpt lat="45.919589512594776" lon="9.261666521280649"><ele>744.0</ele><time>2026-04-03T10:11:54Z</time></trkpt><trkpt lat="45.91970289954005" lon="9.261664620966775"><ele>744.0</ele><time>2026-04-03T10:11:55Z</time></trkpt><trkpt lat="45.919798829331036" lon="9.261654950548838"><ele>744.0</ele><time>2026-04-03T10:11:56Z</time></trkpt><trkpt lat="45.91988930324714" lon="9.261643880207444"><ele>744.0</ele><time>2026-04-03T10:11:57Z</time></trkpt><trkpt lat="45.91998107852295" lon="9.261634740217032"><ele>744.0</ele><time>2026-04-03T10:11:58Z</time></trkpt><trkpt lat="45.92006682337395" lon="9.261619737352483"><ele>744.0</ele><time>2026-04-03T10:11:59Z</time></trkpt><trkpt lat="45.92015103669977" lon="9.261605696956403"><ele>745.2857142857143</ele><time>2026-04-03T10:12:00Z</time></trkpt><trkpt lat="45.92022309784129" lon="9.261594369639107"><ele>746.5714285714286</ele><time>2026-04-03T10:12:01Z</time></trkpt><trkpt lat="45.920289669593146" lon="9.261585652130826"><ele>747.8571428571429</ele><time>2026-04-03T10:12:02Z</time></trkpt><trkpt lat="45.92036056999111" lon="9.261597686191301"><ele>749.1428571428571</ele><time>2026-04-03T10:12:03Z</time></trkpt><trkpt lat="45.92042559390152" lon="9.261636341659003"><ele>750.4285714285714</ele><time>2026-04-03T10:12:04Z</time></trkpt><trkpt lat="45.920496957805916" lon="9.261694968509994"><ele>751.7142857142858</ele><time>2026-04-03T10:12:05Z</time></trkpt><trkpt lat="45.92057285135094" lon="9.26174913396265"><ele>753.0</ele><time>2026-04-03T10:12:06Z</time></trkpt><trkpt lat="45.92065200196565" lon="9.261808605195865"><ele>753.0</ele><time>2026-04-03T10:12:07Z</time></trkpt><trkpt lat="45.920741002479346" lon="9.261868269831906"><ele>753.0</ele><time>2026-04-03T10:12:07.999Z</time></trkpt><trkpt lat="45.92082924245819" lon="9.261937273382161"><ele>753.0</ele><time>2026-04-03T10:12:08.999Z</time></trkpt><trkpt lat="45.92091894928805" lon="9.261997928745538"><ele>753.0</ele><time>2026-04-03T10:12:09.999Z</time></trkpt><trkpt lat="45.92100865411026" lon="9.262054908913237"><ele>753.0</ele><time>2026-04-03T10:12:10.999Z</time></trkpt><trkpt lat="45.92109485569289" lon="9.262109772408513"><ele>752.8</ele><time>2026-04-03T10:12:11.999Z</time></trkpt><trkpt lat="45.92117992292491" lon="9.262160150449093"><ele>752.5999999999999</ele><time>2026-04-03T10:12:12.999Z</time></trkpt><trkpt lat="45.92126568468049" lon="9.262200776238311"><ele>752.4000000000001</ele><time>2026-04-03T10:12:13.999Z</time></trkpt><trkpt lat="45.92135945140805" lon="9.26223196570642"><ele>752.2</ele><time>2026-04-03T10:12:14.999Z</time></trkpt><trkpt lat="45.921459414726485" lon="9.262261619184667"><ele>752.0</ele><time>2026-04-03T10:12:15.999Z</time></trkpt><trkpt lat="45.92156142273566" lon="9.262293272123937"><ele>752.0</ele><time>2026-04-03T10:12:16.999Z</time></trkpt><trkpt lat="45.92167499697941" lon="9.26233755677077"><ele>752.0</ele><time>2026-04-03T10:12:17.999Z</time></trkpt><trkpt lat="45.921798476256825" lon="9.262386527512382"><ele>752.0</ele><time>2026-04-03T10:12:18.999Z</time></trkpt><trkpt lat="45.921929340695044" lon="9.262444014394047"><ele>752.0</ele><time>2026-04-03T10:12:19.999Z</time></trkpt><trkpt lat="45.9220629205878" lon="9.262513173932673"><ele>753.0</ele><time>2026-04-03T10:12:20.999Z</time></trkpt><trkpt lat="45.92219043431078" lon="9.262593547170802"><ele>754.0</ele><time>2026-04-03T10:12:21.999Z</time></trkpt><trkpt lat="45.92230925144455" lon="9.262681534930504"><ele>755.0</ele><time>2026-04-03T10:12:22.999Z</time></trkpt><trkpt lat="45.922404573675365" lon="9.26279887591649"><ele>756.0</ele><time>2026-04-03T10:12:23.999Z</time></trkpt><trkpt lat="45.92258208832563" lon="9.263040296513909"><ele>758.5</ele><time>2026-04-03T10:12:25.999Z</time></trkpt><trkpt lat="45.92265468127855" lon="9.263175411766275"><ele>761.0</ele><time>2026-04-03T10:12:26.999Z</time></trkpt><trkpt lat="45.92271968449428" lon="9.2633181936335"><ele>763.5</ele><time>2026-04-03T10:12:27.999Z</time></trkpt><trkpt lat="45.92277750782668" lon="9.263452519564222"><ele>766.0</ele><time>2026-04-03T10:12:28.999Z</time></trkpt><trkpt lat="45.92281704747423" lon="9.263588234074659"><ele>766.0</ele><time>2026-04-03T10:12:29.999Z</time></trkpt><trkpt lat="45.92283968940506" lon="9.263714997765124"><ele>766.0</ele><time>2026-04-03T10:12:30.999Z</time></trkpt><trkpt lat="45.9228562756254" lon="9.263839203924745"><ele>766.0</ele><time>2026-04-03T10:12:31.999Z</time></trkpt><trkpt lat="45.922873401372584" lon="9.263963010215933"><ele>766.0</ele><time>2026-04-03T10:12:32.999Z</time></trkpt><trkpt lat="45.92289402296458" lon="9.264109776847075"><ele>766.0</ele><time>2026-04-03T10:12:33.999Z</time></trkpt><trkpt lat="45.92291410218675" lon="9.264244437727779"><ele>766.0</ele><time>2026-04-03T10:12:34.999Z</time></trkpt><trkpt lat="45.92293081139326" lon="9.264356993659904"><ele>766.0</ele><time>2026-04-03T10:12:35.999Z</time></trkpt><trkpt lat="45.922959778895546" lon="9.26446767707172"><ele>766.0</ele><time>2026-04-03T10:12:36.999Z</time></trkpt><trkpt lat="45.92297514184399" lon="9.26459473737958"><ele>766.0</ele><time>2026-04-03T10:12:37.999Z</time></trkpt><trkpt lat="45.922991278136735" lon="9.264732852571726"><ele>766.0</ele><time>2026-04-03T10:12:38.999Z</time></trkpt><trkpt lat="45.92300019069737" lon="9.264864996816145"><ele>766.0</ele><time>2026-04-03T10:12:39.999Z</time></trkpt><trkpt lat="45.92299953192165" lon="9.264997303648725"><ele>766.0</ele><time>2026-04-03T10:12:40.999Z</time></trkpt><trkpt lat="45.92300996618647" lon="9.265133262024012"><ele>766.0</ele><time>2026-04-03T10:12:41.999Z</time></trkpt><trkpt lat="45.923020002770436" lon="9.26526403880212"><ele>766.0</ele><time>2026-04-03T10:12:42.999Z</time></trkpt><trkpt lat="45.92303006365367" lon="9.265395132015545"><ele>766.0</ele><time>2026-04-03T10:12:43.999Z</time></trkpt><trkpt lat="45.92304218915245" lon="9.26555312720816"><ele>766.0</ele><time>2026-04-03T10:12:44.999Z</time></trkpt><trkpt lat="45.92305410446448" lon="9.265708383640469"><ele>766.0</ele><time>2026-04-03T10:12:45.999Z</time></trkpt><trkpt lat="45.92306381076199" lon="9.26583485669942"><ele>766.0</ele><time>2026-04-03T10:12:46.999Z</time></trkpt><trkpt lat="45.923074071402844" lon="9.265975948533777"><ele>766.0</ele><time>2026-04-03T10:12:47.999Z</time></trkpt><trkpt lat="45.923084366788" lon="9.266123883503463"><ele>766.0</ele><time>2026-04-03T10:12:48.999Z</time></trkpt><trkpt lat="45.92309921941977" lon="9.266260451143594"><ele>766.0</ele><time>2026-04-03T10:12:49.999Z</time></trkpt><trkpt lat="45.9231349001746" lon="9.266379747348532"><ele>766.0</ele><time>2026-04-03T10:12:50.999Z</time></trkpt><trkpt lat="45.92315388763916" lon="9.266501398912435"><ele>766.0</ele><time>2026-04-03T10:12:51.999Z</time></trkpt><trkpt lat="45.9231858947008" lon="9.266621085674704"><ele>766.0</ele><time>2026-04-03T10:12:52.999Z</time></trkpt><trkpt lat="45.92323785925908" lon="9.266739545356845"><ele>766.0</ele><time>2026-04-03T10:12:53.999Z</time></trkpt><trkpt lat="45.92329449985344" lon="9.266842008647664"><ele>766.0</ele><time>2026-04-03T10:12:54.999Z</time></trkpt><trkpt lat="45.923417562879315" lon="9.266990125077092"><ele>766.0</ele><time>2026-04-03T10:12:56.999Z</time></trkpt><trkpt lat="45.92349566267391" lon="9.267022233121113"><ele>766.0</ele><time>2026-04-03T10:12:57.999Z</time></trkpt><trkpt lat="45.92360227610901" lon="9.267108090859697"><ele>766.0</ele><time>2026-04-03T10:12:59.999Z</time></trkpt><trkpt lat="45.92364846873612" lon="9.267215889533121"><ele>766.0</ele><time>2026-04-03T10:13:01.999Z</time></trkpt><trkpt lat="45.92363728769165" lon="9.26730671618531"><ele>766.0</ele><time>2026-04-03T10:13:03.999Z</time></trkpt><trkpt lat="45.92351490192744" lon="9.267304810602711"><ele>766.0</ele><time>2026-04-03T10:13:07.999Z</time></trkpt><trkpt lat="45.92345470742332" lon="9.267277249508153"><ele>766.0</ele><time>2026-04-03T10:13:08.999Z</time></trkpt><trkpt lat="45.923376407156866" lon="9.26725412943722"><ele>766.0</ele><time>2026-04-03T10:13:09.998Z</time></trkpt><trkpt lat="45.92328969378488" lon="9.267209749227884"><ele>766.0</ele><time>2026-04-03T10:13:11Z</time></trkpt><trkpt lat="45.923205024517046" lon="9.267136943941871"><ele>766.0</ele><time>2026-04-03T10:13:12Z</time></trkpt><trkpt lat="45.92313810137848" lon="9.267085416955494"><ele>766.0</ele><time>2026-04-03T10:13:13Z</time></trkpt><trkpt lat="45.92305494881386" lon="9.267122095627016"><ele>764.1666666666667</ele><time>2026-04-03T10:13:15Z</time></trkpt><trkpt lat="45.9230001877522" lon="9.267225172212475"><ele>762.3333333333334</ele><time>2026-04-03T10:13:17Z</time></trkpt><trkpt lat="45.92306514890864" lon="9.267355712638544"><ele>760.5</ele><time>2026-04-03T10:13:19Z</time></trkpt><trkpt lat="45.92312253258533" lon="9.267407800960553"><ele>758.6666666666666</ele><time>2026-04-03T10:13:20Z</time></trkpt><trkpt lat="45.92320619105284" lon="9.267433282581544"><ele>756.8333333333333</ele><time>2026-04-03T10:13:21Z</time></trkpt><trkpt lat="45.923287605352776" lon="9.267440401757169"><ele>755.0</ele><time>2026-04-03T10:13:22Z</time></trkpt><trkpt lat="45.92339591189954" lon="9.267497694448807"><ele>755.1428571428571</ele><time>2026-04-03T10:13:24Z</time></trkpt><trkpt lat="45.92345173111237" lon="9.267550475822041"><ele>755.2857142857143</ele><time>2026-04-03T10:16:16Z</time></trkpt><trkpt lat="45.92351522223406" lon="9.267564346876508"><ele>755.4285714285714</ele><time>2026-04-03T10:16:24.999Z</time></trkpt><trkpt lat="45.92354750324039" lon="9.267644242863438"><ele>755.5714285714286</ele><time>2026-04-03T10:16:31.999Z</time></trkpt><trkpt lat="45.92352149071646" lon="9.267733073722876"><ele>755.7142857142858</ele><time>2026-04-03T10:16:39.999Z</time></trkpt><trkpt lat="45.92347711844954" lon="9.267804042039932"><ele>755.8571428571429</ele><time>2026-04-03T10:16:48.999Z</time></trkpt><trkpt lat="45.92344796278006" lon="9.267894809898978"><ele>756.0</ele><time>2026-04-03T10:16:58.999Z</time></trkpt><trkpt lat="45.92341925247423" lon="9.267982775706702"><ele>754.8</ele><time>2026-04-03T10:18:17Z</time></trkpt><trkpt lat="45.92340720362525" lon="9.268150878237263"><ele>753.5999999999999</ele><time>2026-04-03T10:18:38.999Z</time></trkpt><trkpt lat="45.9233542110786" lon="9.26822181009498"><ele>752.4</ele><time>2026-04-03T10:18:40.999Z</time></trkpt><trkpt lat="45.923287753312124" lon="9.268309060631026"><ele>751.2</ele><time>2026-04-03T10:18:43.999Z</time></trkpt><trkpt lat="45.9232166572583" lon="9.268369247739352"><ele>750.0</ele><time>2026-04-03T10:18:45.999Z</time></trkpt><trkpt lat="45.923509730805506" lon="9.2695347728474"><ele>750.0</ele><time>2026-04-03T10:18:47.999Z</time></trkpt><trkpt lat="45.923436299895556" lon="9.26819016906766"><ele>752.0</ele><time>2026-04-03T10:19:05.458Z</time></trkpt><trkpt lat="45.923469641913336" lon="9.26778779782126"><ele>754.0</ele><time>2026-04-03T10:19:12.778Z</time></trkpt><trkpt lat="45.92347573010835" lon="9.267928895055602"><ele>756.0</ele><time>2026-04-03T10:19:52.998Z</time></trkpt><trkpt lat="45.92346724392514" lon="9.267828793189699"><ele>756.0</ele><time>2026-04-03T11:00:03Z</time></trkpt><trkpt lat="45.923492542110985" lon="9.2677411102853"><ele>756.0</ele><time>2026-04-03T11:00:10Z</time></trkpt><trkpt lat="45.92353897567466" lon="9.267671026366965"><ele>756.0</ele><time>2026-04-03T11:00:16Z</time></trkpt><trkpt lat="45.92347164065428" lon="9.267616757055238"><ele>756.0</ele><time>2026-04-03T11:00:24.999Z</time></trkpt><trkpt lat="45.92341400608156" lon="9.267570987269716"><ele>756.0</ele><time>2026-04-03T11:00:34.999Z</time></trkpt><trkpt lat="45.9234867757512" lon="9.267594002333052"><ele>756.0</ele><time>2026-04-03T11:03:21.998Z</time></trkpt><trkpt lat="45.92361247369489" lon="9.267576446285323"><ele>756.0</ele><time>2026-04-03T11:03:25.998Z</time></trkpt><trkpt lat="45.923660643025265" lon="9.267492103044336"><ele>756.0</ele><time>2026-04-03T11:03:27.998Z</time></trkpt><trkpt lat="45.92368610099094" lon="9.267404728744433"><ele>756.0</ele><time>2026-04-03T11:03:29.998Z</time></trkpt><trkpt lat="45.92369733668857" lon="9.26730420062034"><ele>756.0</ele><time>2026-04-03T11:03:32.998Z</time></trkpt><trkpt lat="45.923729539075126" lon="9.267165511232172"><ele>756.0</ele><time>2026-04-03T11:03:35.998Z</time></trkpt><trkpt lat="45.923782489953204" lon="9.26700723501479"><ele>756.0</ele><time>2026-04-03T11:03:37.998Z</time></trkpt><trkpt lat="45.92384441612829" lon="9.266965603553448"><ele>757.6666666666666</ele><time>2026-04-03T11:03:38.998Z</time></trkpt><trkpt lat="45.92390938065393" lon="9.266958868587993"><ele>759.3333333333334</ele><time>2026-04-03T11:03:39.998Z</time></trkpt><trkpt lat="45.92398384773814" lon="9.267000506541782"><ele>761.0</ele><time>2026-04-03T11:03:40.998Z</time></trkpt><trkpt lat="45.92405953053537" lon="9.267055462094454"><ele>762.6666666666667</ele><time>2026-04-03T11:03:41.998Z</time></trkpt><trkpt lat="45.92413710355464" lon="9.267108940229502"><ele>764.3333333333334</ele><time>2026-04-03T11:03:42.998Z</time></trkpt><trkpt lat="45.924227078818035" lon="9.267160504022907"><ele>766.0</ele><time>2026-04-03T11:03:43.998Z</time></trkpt><trkpt lat="45.924318990477595" lon="9.267225893516164"><ele>765.5999999999999</ele><time>2026-04-03T11:03:44.998Z</time></trkpt><trkpt lat="45.92439993628962" lon="9.267273867583407"><ele>765.2</ele><time>2026-04-03T11:03:45.998Z</time></trkpt><trkpt lat="45.92446646031128" lon="9.267309721238933"><ele>764.8</ele><time>2026-04-03T11:03:46.998Z</time></trkpt><trkpt lat="45.92454677652034" lon="9.26731724132205"><ele>764.4000000000001</ele><time>2026-04-03T11:03:47.998Z</time></trkpt><trkpt lat="45.92465500255113" lon="9.267288772777126"><ele>764.0</ele><time>2026-04-03T11:03:48.997Z</time></trkpt><trkpt lat="45.92477683060315" lon="9.267266497048658"><ele>760.5</ele><time>2026-04-03T11:03:49.997Z</time></trkpt><trkpt lat="45.9249119393029" lon="9.267263055122449"><ele>757.0</ele><time>2026-04-03T11:03:50.997Z</time></trkpt><trkpt lat="45.92506144717128" lon="9.267268710840225"><ele>753.5</ele><time>2026-04-03T11:03:51.997Z</time></trkpt><trkpt lat="45.92519713563669" lon="9.267281505541233"><ele>750.0</ele><time>2026-04-03T11:03:52.997Z</time></trkpt><trkpt lat="45.925309458475866" lon="9.267303437119267"><ele>750.0</ele><time>2026-04-03T11:03:53.997Z</time></trkpt><trkpt lat="45.92540326355196" lon="9.267310926174181"><ele>750.0</ele><time>2026-04-03T11:03:54.997Z</time></trkpt><trkpt lat="45.92550741126611" lon="9.267280888220661"><ele>750.0</ele><time>2026-04-03T11:03:55.997Z</time></trkpt><trkpt lat="45.92561543881953" lon="9.267214882402914"><ele>750.0</ele><time>2026-04-03T11:03:56.997Z</time></trkpt><trkpt lat="45.92572553595464" lon="9.267140254438484"><ele>750.0</ele><time>2026-04-03T11:03:57.997Z</time></trkpt><trkpt lat="45.9258301504308" lon="9.267079036728585"><ele>755.8</ele><time>2026-04-03T11:03:58.997Z</time></trkpt><trkpt lat="45.92593324168227" lon="9.26703714736733"><ele>761.6</ele><time>2026-04-03T11:03:59.997Z</time></trkpt><trkpt lat="45.926041509159596" lon="9.267011205771556"><ele>767.4000000000001</ele><time>2026-04-03T11:04:01Z</time></trkpt><trkpt lat="45.92613744104144" lon="9.266988338985158"><ele>773.2</ele><time>2026-04-03T11:04:02Z</time></trkpt><trkpt lat="45.92622495952345" lon="9.26697402368041"><ele>779.0</ele><time>2026-04-03T11:04:03Z</time></trkpt><trkpt lat="45.92631080865167" lon="9.266968421361526"><ele>779.0000000000001</ele><time>2026-04-03T11:04:04Z</time></trkpt><trkpt lat="45.92639693687286" lon="9.266942240009724"><ele>779.0</ele><time>2026-04-03T11:04:05Z</time></trkpt><trkpt lat="45.926479488410116" lon="9.266892442879406"><ele>779.0</ele><time>2026-04-03T11:04:06Z</time></trkpt><trkpt lat="45.92655601530914" lon="9.266810625543693"><ele>779.0</ele><time>2026-04-03T11:04:07Z</time></trkpt><trkpt lat="45.92661546414475" lon="9.266711271961112"><ele>779.0000000000001</ele><time>2026-04-03T11:04:08Z</time></trkpt><trkpt lat="45.92667111486597" lon="9.266632081250531"><ele>779.0</ele><time>2026-04-03T11:04:09Z</time></trkpt><trkpt lat="45.926737391267785" lon="9.266563506419011"><ele>777.8333333333334</ele><time>2026-04-03T11:04:10Z</time></trkpt><trkpt lat="45.92680613978714" lon="9.266519596289296"><ele>776.6666666666667</ele><time>2026-04-03T11:04:11Z</time></trkpt><trkpt lat="45.926865902476735" lon="9.266475768257111"><ele>775.5</ele><time>2026-04-03T11:04:12Z</time></trkpt><trkpt lat="45.926947085520915" lon="9.266355149616215"><ele>774.3333333333333</ele><time>2026-04-03T11:04:14Z</time></trkpt><trkpt lat="45.926962961076796" lon="9.266249101192551"><ele>773.1666666666666</ele><time>2026-04-03T11:04:15Z</time></trkpt><trkpt lat="45.92698606874049" lon="9.266119344633779"><ele>772.0</ele><time>2026-04-03T11:04:16Z</time></trkpt><trkpt lat="45.92699739101948" lon="9.265984975603"><ele>772.0</ele><time>2026-04-03T11:04:17Z</time></trkpt><trkpt lat="45.927007974507305" lon="9.265845932236832"><ele>772.0</ele><time>2026-04-03T11:04:18Z</time></trkpt><trkpt lat="45.92701878061023" lon="9.265702863782186"><ele>772.0</ele><time>2026-04-03T11:04:19Z</time></trkpt><trkpt lat="45.92702965022142" lon="9.265556362552916"><ele>772.0</ele><time>2026-04-03T11:04:20Z</time></trkpt><trkpt lat="45.927041138611514" lon="9.265406896766153"><ele>772.0</ele><time>2026-04-03T11:04:21Z</time></trkpt><trkpt lat="45.92705341802847" lon="9.265254342879167"><ele>774.4000000000001</ele><time>2026-04-03T11:04:22Z</time></trkpt><trkpt lat="45.9270658601015" lon="9.26509976802124"><ele>776.8000000000001</ele><time>2026-04-03T11:04:23Z</time></trkpt><trkpt lat="45.927077931851656" lon="9.264949793852002"><ele>779.2</ele><time>2026-04-03T11:04:24Z</time></trkpt><trkpt lat="45.9270884593374" lon="9.2648190050858"><ele>781.6</ele><time>2026-04-03T11:04:25Z</time></trkpt><trkpt lat="45.92709695688321" lon="9.264705942505582"><ele>784.0</ele><time>2026-04-03T11:04:26Z</time></trkpt><trkpt lat="45.92709658992798" lon="9.264591740724974"><ele>787.8000000000001</ele><time>2026-04-03T11:04:27Z</time></trkpt><trkpt lat="45.92713910188491" lon="9.264487154545115"><ele>791.6</ele><time>2026-04-03T11:04:28Z</time></trkpt><trkpt lat="45.92721161932871" lon="9.264395405466193"><ele>795.4</ele><time>2026-04-03T11:04:29Z</time></trkpt><trkpt lat="45.92731744428369" lon="9.264338443009251"><ele>799.2</ele><time>2026-04-03T11:04:30Z</time></trkpt><trkpt lat="45.927435847059144" lon="9.264275596877974"><ele>803.0</ele><time>2026-04-03T11:04:31Z</time></trkpt><trkpt lat="45.927560763985966" lon="9.264166027764977"><ele>803.0</ele><time>2026-04-03T11:04:31.999Z</time></trkpt><trkpt lat="45.92767824520306" lon="9.26406140399116"><ele>803.0</ele><time>2026-04-03T11:04:32.999Z</time></trkpt><trkpt lat="45.9278010737321" lon="9.263953752061468"><ele>803.0</ele><time>2026-04-03T11:04:33.999Z</time></trkpt><trkpt lat="45.92791884800348" lon="9.263845687597064"><ele>803.0</ele><time>2026-04-03T11:04:34.999Z</time></trkpt><trkpt lat="45.92802279781439" lon="9.263750547425563"><ele>802.5</ele><time>2026-04-03T11:04:35.999Z</time></trkpt><trkpt lat="45.92813009872406" lon="9.2636563971769"><ele>802.0</ele><time>2026-04-03T11:04:36.999Z</time></trkpt><trkpt lat="45.92823187020341" lon="9.263550714885225"><ele>801.5</ele><time>2026-04-03T11:04:37.999Z</time></trkpt><trkpt lat="45.92832075723074" lon="9.263412769560901"><ele>801.0</ele><time>2026-04-03T11:04:38.999Z</time></trkpt><trkpt lat="45.92839927472603" lon="9.263264737920917"><ele>801.0</ele><time>2026-04-03T11:04:39.999Z</time></trkpt><trkpt lat="45.92848326204714" lon="9.263148619743763"><ele>801.0</ele><time>2026-04-03T11:04:40.999Z</time></trkpt><trkpt lat="45.928569246211325" lon="9.263018578674222"><ele>801.0</ele><time>2026-04-03T11:04:41.999Z</time></trkpt><trkpt lat="45.92863658117428" lon="9.262848975866147"><ele>801.0</ele><time>2026-04-03T11:04:42.999Z</time></trkpt><trkpt lat="45.92869868294895" lon="9.262670749822473"><ele>802.75</ele><time>2026-04-03T11:04:43.999Z</time></trkpt><trkpt lat="45.92874315665876" lon="9.262509183768389"><ele>804.5</ele><time>2026-04-03T11:04:44.999Z</time></trkpt><trkpt lat="45.928765286274874" lon="9.262327097610813"><ele>806.25</ele><time>2026-04-03T11:04:45.999Z</time></trkpt><trkpt lat="45.92878534204126" lon="9.262115437396961"><ele>808.0</ele><time>2026-04-03T11:04:46.999Z</time></trkpt><trkpt lat="45.928763351614045" lon="9.261900661013009"><ele>810.0</ele><time>2026-04-03T11:04:47.999Z</time></trkpt><trkpt lat="45.92877602993811" lon="9.261690981315477"><ele>812.0</ele><time>2026-04-03T11:04:48.999Z</time></trkpt><trkpt lat="45.92879275007858" lon="9.261505374782626"><ele>814.0</ele><time>2026-04-03T11:04:49.999Z</time></trkpt><trkpt lat="45.9288095458057" lon="9.26133857483832"><ele>816.0</ele><time>2026-04-03T11:04:50.999Z</time></trkpt><trkpt lat="45.92882163152925" lon="9.261196431108274"><ele>819.75</ele><time>2026-04-03T11:04:51.999Z</time></trkpt><trkpt lat="45.928860895023874" lon="9.261045973576438"><ele>823.5</ele><time>2026-04-03T11:04:52.999Z</time></trkpt><trkpt lat="45.92893046964683" lon="9.26090022811556"><ele>827.25</ele><time>2026-04-03T11:04:53.999Z</time></trkpt><trkpt lat="45.92903458022147" lon="9.260773486331695"><ele>831.0</ele><time>2026-04-03T11:04:54.999Z</time></trkpt><trkpt lat="45.92914308883272" lon="9.260640617686098"><ele>830.6666666666667</ele><time>2026-04-03T11:04:55.999Z</time></trkpt><trkpt lat="45.929241246442984" lon="9.26047175570302"><ele>830.3333333333334</ele><time>2026-04-03T11:04:56.999Z</time></trkpt><trkpt lat="45.92933491917919" lon="9.260283028125047"><ele>830.0</ele><time>2026-04-03T11:04:57.999Z</time></trkpt><trkpt lat="45.92943518077918" lon="9.260069303194523"><ele>830.0</ele><time>2026-04-03T11:04:58.999Z</time></trkpt><trkpt lat="45.92953310344419" lon="9.25987864407174"><ele>830.0</ele><time>2026-04-03T11:04:59.999Z</time></trkpt><trkpt lat="45.92963412870125" lon="9.259674761048144"><ele>830.0</ele><time>2026-04-03T11:05:00.999Z</time></trkpt><trkpt lat="45.929721461134775" lon="9.25947010742449"><ele>833.25</ele><time>2026-04-03T11:05:01.999Z</time></trkpt><trkpt lat="45.929816255853524" lon="9.259283109447837"><ele>836.5</ele><time>2026-04-03T11:05:02.999Z</time></trkpt><trkpt lat="45.92989770789586" lon="9.259115569331112"><ele>839.75</ele><time>2026-04-03T11:05:03.999Z</time></trkpt><trkpt lat="45.92997466282636" lon="9.258949940744676"><ele>843.0</ele><time>2026-04-03T11:05:04.999Z</time></trkpt><trkpt lat="45.93003460999823" lon="9.25881800605376"><ele>842.2</ele><time>2026-04-03T11:05:05.999Z</time></trkpt><trkpt lat="45.93008528391093" lon="9.258700814740346"><ele>841.4</ele><time>2026-04-03T11:05:06.999Z</time></trkpt><trkpt lat="45.9301248248098" lon="9.258549622334224"><ele>840.6</ele><time>2026-04-03T11:05:07.999Z</time></trkpt><trkpt lat="45.9301356688536" lon="9.258363585298094"><ele>839.8000000000001</ele><time>2026-04-03T11:05:08.999Z</time></trkpt><trkpt lat="45.9301154573783" lon="9.258215605595831"><ele>839.0</ele><time>2026-04-03T11:05:09.999Z</time></trkpt><trkpt lat="45.9300765090817" lon="9.258069903462157"><ele>839.0000000000001</ele><time>2026-04-03T11:05:11.999Z</time></trkpt><trkpt lat="45.93006011681081" lon="9.257979091753935"><ele>839.0</ele><time>2026-04-03T11:05:19.998Z</time></trkpt><trkpt lat="45.93003049512941" lon="9.257862846209681"><ele>839.0</ele><time>2026-04-03T11:05:21.998Z</time></trkpt><trkpt lat="45.93000740207238" lon="9.257772221247043"><ele>839.0</ele><time>2026-04-03T11:05:22.998Z</time></trkpt><trkpt lat="45.92998077743843" lon="9.257667737169454"><ele>839.0000000000001</ele><time>2026-04-03T11:05:23.998Z</time></trkpt><trkpt lat="45.929953040620894" lon="9.257558888570063"><ele>839.0</ele><time>2026-04-03T11:05:24.998Z</time></trkpt><trkpt lat="45.92991160153757" lon="9.257458381050252"><ele>840.1666666666667</ele><time>2026-04-03T11:05:25.998Z</time></trkpt><trkpt lat="45.92989764532002" lon="9.257339332528957"><ele>841.3333333333334</ele><time>2026-04-03T11:05:26.998Z</time></trkpt><trkpt lat="45.92985419548265" lon="9.257231754780559"><ele>842.5</ele><time>2026-04-03T11:05:27.998Z</time></trkpt><trkpt lat="45.92983318894894" lon="9.25712033060379"><ele>843.6666666666667</ele><time>2026-04-03T11:05:28.998Z</time></trkpt><trkpt lat="45.92981584634947" lon="9.257031639066776"><ele>844.8333333333334</ele><time>2026-04-03T11:05:29.998Z</time></trkpt><trkpt lat="45.92978200439929" lon="9.256882099199826"><ele>846.0</ele><time>2026-04-03T11:05:31.998Z</time></trkpt><trkpt lat="45.92969206779207" lon="9.25675189809116"><ele>846.0</ele><time>2026-04-03T11:05:33.998Z</time></trkpt><trkpt lat="45.92960954238584" lon="9.256840351560239"><ele>846.0</ele><time>2026-04-03T11:05:34.998Z</time></trkpt><trkpt lat="45.92963767160678" lon="9.256998709669555"><ele>846.0</ele><time>2026-04-03T11:05:35.998Z</time></trkpt><trkpt lat="45.929658680730135" lon="9.257115241547783"><ele>846.0</ele><time>2026-04-03T11:05:36.998Z</time></trkpt><trkpt lat="45.92966387816851" lon="9.257249653409852"><ele>846.0</ele><time>2026-04-03T11:05:37.998Z</time></trkpt><trkpt lat="45.9296409505983" lon="9.25738689206484"><ele>848.5</ele><time>2026-04-03T11:05:38.998Z</time></trkpt><trkpt lat="45.92957577024721" lon="9.25751379338729"><ele>851.0</ele><time>2026-04-03T11:05:39.998Z</time></trkpt><trkpt lat="45.92953220110497" lon="9.257674851538194"><ele>853.5</ele><time>2026-04-03T11:05:40.998Z</time></trkpt><trkpt lat="45.929473971350056" lon="9.257827027795795"><ele>856.0</ele><time>2026-04-03T11:05:41.998Z</time></trkpt><trkpt lat="45.92941981113358" lon="9.257970902003903"><ele>855.9999999999999</ele><time>2026-04-03T11:05:42.998Z</time></trkpt><trkpt lat="45.92936229603616" lon="9.258091460395875"><ele>856.0</ele><time>2026-04-03T11:05:43.998Z</time></trkpt><trkpt lat="45.92934607025095" lon="9.25823506370444"><ele>856.0</ele><time>2026-04-03T11:05:44.998Z</time></trkpt><trkpt lat="45.929332083532636" lon="9.258365980238613"><ele>856.0</ele><time>2026-04-03T11:05:45.998Z</time></trkpt><trkpt lat="45.929327692829695" lon="9.25847341500423"><ele>855.9999999999999</ele><time>2026-04-03T11:05:46.998Z</time></trkpt><trkpt lat="45.929307891910994" lon="9.258563182565284"><ele>856.0</ele><time>2026-04-03T11:05:47.998Z</time></trkpt><trkpt lat="45.92923641187048" lon="9.258617684375054"><ele>859.4</ele><time>2026-04-03T11:05:49.998Z</time></trkpt><trkpt lat="45.929202415656206" lon="9.258479465390952"><ele>862.8</ele><time>2026-04-03T11:05:52.997Z</time></trkpt><trkpt lat="45.929189108959704" lon="9.258347038332154"><ele>866.1999999999999</ele><time>2026-04-03T11:05:53.997Z</time></trkpt><trkpt lat="45.9291864955875" lon="9.258209741113347"><ele>869.5999999999999</ele><time>2026-04-03T11:05:54.997Z</time></trkpt><trkpt lat="45.92918495636048" lon="9.258059895213583"><ele>873.0</ele><time>2026-04-03T11:05:55.997Z</time></trkpt><trkpt lat="45.92918103403791" lon="9.257909955560782"><ele>874.2</ele><time>2026-04-03T11:05:56.997Z</time></trkpt><trkpt lat="45.92917204957056" lon="9.25775113475244"><ele>875.4</ele><time>2026-04-03T11:05:57.997Z</time></trkpt><trkpt lat="45.92916207853515" lon="9.257587193497514"><ele>876.6000000000001</ele><time>2026-04-03T11:05:58.997Z</time></trkpt><trkpt lat="45.92914993715961" lon="9.257426318806468"><ele>877.8000000000001</ele><time>2026-04-03T11:05:59.997Z</time></trkpt><trkpt lat="45.929149214913075" lon="9.25728317631091"><ele>879.0</ele><time>2026-04-03T11:06:00.997Z</time></trkpt><trkpt lat="45.92914479013426" lon="9.257160419537897"><ele>879.0</ele><time>2026-04-03T11:06:01.997Z</time></trkpt><trkpt lat="45.92913325734601" lon="9.257060820779303"><ele>879.0000000000001</ele><time>2026-04-03T11:06:02.997Z</time></trkpt><trkpt lat="45.929100942895246" lon="9.256904839996963"><ele>879.0000000000001</ele><time>2026-04-03T11:06:04.997Z</time></trkpt><trkpt lat="45.92901708801979" lon="9.256834376891444"><ele>879.0</ele><time>2026-04-03T11:06:05.997Z</time></trkpt><trkpt lat="45.928925123922845" lon="9.256894167435737"><ele>879.0</ele><time>2026-04-03T11:06:07Z</time></trkpt><trkpt lat="45.92894598272878" lon="9.25711011826239"><ele>879.0</ele><time>2026-04-03T11:06:08Z</time></trkpt><trkpt lat="45.92891377767072" lon="9.257202760558428"><ele>879.0000000000001</ele><time>2026-04-03T11:06:09Z</time></trkpt><trkpt lat="45.92887695563251" lon="9.257306704460223"><ele>879.0000000000001</ele><time>2026-04-03T11:06:10Z</time></trkpt><trkpt lat="45.928819543599964" lon="9.257436022276769"><ele>879.0</ele><time>2026-04-03T11:06:11Z</time></trkpt><trkpt lat="45.928754251961315" lon="9.257573109866428"><ele>879.0</ele><time>2026-04-03T11:06:12Z</time></trkpt><trkpt lat="45.9286859494646" lon="9.257720736457376"><ele>879.0</ele><time>2026-04-03T11:06:13Z</time></trkpt><trkpt lat="45.928619797264254" lon="9.257867298353256"><ele>879.0</ele><time>2026-04-03T11:06:14Z</time></trkpt><trkpt lat="45.928554872203776" lon="9.258012369848625"><ele>879.0</ele><time>2026-04-03T11:06:15Z</time></trkpt><trkpt lat="45.928484809186195" lon="9.258168921839996"><ele>879.0</ele><time>2026-04-03T11:06:16Z</time></trkpt><trkpt lat="45.92842360532037" lon="9.258305678345284"><ele>883.4000000000001</ele><time>2026-04-03T11:06:17Z</time></trkpt><trkpt lat="45.92836710256364" lon="9.258433798971508"><ele>887.8000000000001</ele><time>2026-04-03T11:06:18Z</time></trkpt><trkpt lat="45.92830931697546" lon="9.258570142965404"><ele>892.1999999999999</ele><time>2026-04-03T11:06:19Z</time></trkpt><trkpt lat="45.928271781395345" lon="9.258670522511142"><ele>896.5999999999999</ele><time>2026-04-03T11:06:20Z</time></trkpt><trkpt lat="45.92823815048532" lon="9.258779429587182"><ele>901.0</ele><time>2026-04-03T11:06:21Z</time></trkpt><trkpt lat="45.928210006110795" lon="9.258885151676246"><ele>900.9999999999999</ele><time>2026-04-03T11:06:22Z</time></trkpt><trkpt lat="45.92816137519515" lon="9.258985049946808"><ele>901.0</ele><time>2026-04-03T11:06:24Z</time></trkpt><trkpt lat="45.928088479148954" lon="9.258921766654844"><ele>901.0</ele><time>2026-04-03T11:06:27Z</time></trkpt><trkpt lat="45.92811294379314" lon="9.258829264285367"><ele>901.0</ele><time>2026-04-03T11:06:28Z</time></trkpt><trkpt lat="45.92813120907187" lon="9.258695546487308"><ele>900.9999999999999</ele><time>2026-04-03T11:06:29Z</time></trkpt><trkpt lat="45.92816273921116" lon="9.258540012911856"><ele>901.0</ele><time>2026-04-03T11:06:30Z</time></trkpt><trkpt lat="45.9281779982493" lon="9.258365519162616"><ele>901.0</ele><time>2026-04-03T11:06:31Z</time></trkpt><trkpt lat="45.92818759754316" lon="9.25819344791421"><ele>901.0</ele><time>2026-04-03T11:06:32Z</time></trkpt><trkpt lat="45.92818491952167" lon="9.258008472673719"><ele>901.0</ele><time>2026-04-03T11:06:33Z</time></trkpt><trkpt lat="45.92817912233617" lon="9.257795017025757"><ele>901.0</ele><time>2026-04-03T11:06:33.999Z</time></trkpt><trkpt lat="45.928178060921056" lon="9.25756723715452"><ele>903.0</ele><time>2026-04-03T11:06:34.999Z</time></trkpt><trkpt lat="45.928172542964305" lon="9.257328606122272"><ele>905.0</ele><time>2026-04-03T11:06:35.999Z</time></trkpt><trkpt lat="45.92816749321901" lon="9.257085958583573"><ele>907.0</ele><time>2026-04-03T11:06:36.999Z</time></trkpt><trkpt lat="45.92817114640867" lon="9.256841425790196"><ele>909.0</ele><time>2026-04-03T11:06:37.999Z</time></trkpt><trkpt lat="45.92816559201511" lon="9.256585847693765"><ele>911.0</ele><time>2026-04-03T11:06:38.999Z</time></trkpt><trkpt lat="45.92815756257358" lon="9.256351077131727"><ele>913.0</ele><time>2026-04-03T11:06:39.999Z</time></trkpt><trkpt lat="45.92816340429465" lon="9.25614776698012"><ele>917.0</ele><time>2026-04-03T11:06:40.999Z</time></trkpt><trkpt lat="45.92815984006399" lon="9.255925770314388"><ele>921.0</ele><time>2026-04-03T11:06:41.999Z</time></trkpt><trkpt lat="45.928220495008105" lon="9.255707100085228"><ele>925.0</ele><time>2026-04-03T11:06:42.999Z</time></trkpt><trkpt lat="45.92829380222713" lon="9.255494446004437"><ele>930.6666666666666</ele><time>2026-04-03T11:06:43.999Z</time></trkpt><trkpt lat="45.92836668054167" lon="9.255278732264127"><ele>936.3333333333333</ele><time>2026-04-03T11:06:44.999Z</time></trkpt><trkpt lat="45.92845668631507" lon="9.25508375415686"><ele>942.0</ele><time>2026-04-03T11:06:45.999Z</time></trkpt><trkpt lat="45.92851143424256" lon="9.254902824774295"><ele>933.5</ele><time>2026-04-03T11:06:46.999Z</time></trkpt><trkpt lat="45.92855945624426" lon="9.254735816474874"><ele>925.0</ele><time>2026-04-03T11:06:47.999Z</time></trkpt><trkpt lat="45.92859518944522" lon="9.254571141391807"><ele>916.5</ele><time>2026-04-03T11:06:48.999Z</time></trkpt><trkpt lat="45.92861316127303" lon="9.254406014159448"><ele>908.0</ele><time>2026-04-03T11:06:49.999Z</time></trkpt><trkpt lat="45.92860114893384" lon="9.254216860848912"><ele>908.0</ele><time>2026-04-03T11:06:50.999Z</time></trkpt><trkpt lat="45.92858170916618" lon="9.254002990143977"><ele>908.0</ele><time>2026-04-03T11:06:51.999Z</time></trkpt><trkpt lat="45.928558365826134" lon="9.253792003325783"><ele>908.0</ele><time>2026-04-03T11:06:52.999Z</time></trkpt><trkpt lat="45.928521444893676" lon="9.253569036708187"><ele>910.3333333333334</ele><time>2026-04-03T11:06:53.999Z</time></trkpt><trkpt lat="45.928482558341635" lon="9.253346434039475"><ele>912.6666666666667</ele><time>2026-04-03T11:06:54.999Z</time></trkpt><trkpt lat="45.92844636152887" lon="9.253119259863064"><ele>915.0</ele><time>2026-04-03T11:06:55.999Z</time></trkpt><trkpt lat="45.92841114169609" lon="9.252890543015292"><ele>927.6666666666667</ele><time>2026-04-03T11:06:56.999Z</time></trkpt><trkpt lat="45.92838420292567" lon="9.252662714333704"><ele>940.3333333333334</ele><time>2026-04-03T11:06:57.999Z</time></trkpt><trkpt lat="45.92838049879397" lon="9.252432042285344"><ele>953.0</ele><time>2026-04-03T11:06:58.999Z</time></trkpt><trkpt lat="45.92839133357499" lon="9.252229612792652"><ele>953.75</ele><time>2026-04-03T11:06:59.999Z</time></trkpt><trkpt lat="45.928388885592156" lon="9.2520592453803"><ele>954.5</ele><time>2026-04-03T11:07:00.999Z</time></trkpt><trkpt lat="45.92839203863652" lon="9.251895748009497"><ele>955.25</ele><time>2026-04-03T11:07:01.999Z</time></trkpt><trkpt lat="45.92838643489645" lon="9.251732692116638"><ele>956.0</ele><time>2026-04-03T11:07:02.999Z</time></trkpt><trkpt lat="45.92833166078728" lon="9.25154212377664"><ele>956.25</ele><time>2026-04-03T11:07:03.999Z</time></trkpt><trkpt lat="45.928239849656094" lon="9.251367849533954"><ele>956.5</ele><time>2026-04-03T11:07:04.999Z</time></trkpt><trkpt lat="45.92817909085803" lon="9.251174061742466"><ele>956.75</ele><time>2026-04-03T11:07:05.999Z</time></trkpt><trkpt lat="45.928123861733035" lon="9.250982065154503"><ele>957.0</ele><time>2026-04-03T11:07:06.999Z</time></trkpt><trkpt lat="45.92807518974812" lon="9.25078560130575"><ele>959.0</ele><time>2026-04-03T11:07:07.999Z</time></trkpt><trkpt lat="45.928042300235916" lon="9.250582682921358"><ele>961.0</ele><time>2026-04-03T11:07:08.999Z</time></trkpt><trkpt lat="45.928015780883655" lon="9.25037866850777"><ele>963.0</ele><time>2026-04-03T11:07:09.999Z</time></trkpt><trkpt lat="45.927983065994084" lon="9.250176890038029"><ele>965.0</ele><time>2026-04-03T11:07:10.999Z</time></trkpt><trkpt lat="45.927946512255375" lon="9.249972273268455"><ele>966.5</ele><time>2026-04-03T11:07:11.999Z</time></trkpt><trkpt lat="45.927913841038226" lon="9.249782443064962"><ele>968.0</ele><time>2026-04-03T11:07:12.999Z</time></trkpt><trkpt lat="45.92788567279556" lon="9.249608046318752"><ele>969.5</ele><time>2026-04-03T11:07:13.999Z</time></trkpt><trkpt lat="45.92785723594" lon="9.249446462511742"><ele>971.0</ele><time>2026-04-03T11:07:14.999Z</time></trkpt><trkpt lat="45.9278304754151" lon="9.249288495620291"><ele>971.0</ele><time>2026-04-03T11:07:15.998Z</time></trkpt><trkpt lat="45.927801893532205" lon="9.249126495326031"><ele>970.9999999999999</ele><time>2026-04-03T11:07:16.998Z</time></trkpt><trkpt lat="45.92777662468691" lon="9.248982550367646"><ele>970.9999999999999</ele><time>2026-04-03T11:07:17.998Z</time></trkpt><trkpt lat="45.927762107877975" lon="9.248846363285425"><ele>971.0</ele><time>2026-04-03T11:07:18.998Z</time></trkpt><trkpt lat="45.92775717968161" lon="9.24873024888105"><ele>971.0</ele><time>2026-04-03T11:07:19.998Z</time></trkpt><trkpt lat="45.92775701360839" lon="9.248630506728079"><ele>970.8</ele><time>2026-04-03T11:07:20.998Z</time></trkpt><trkpt lat="45.92777509549971" lon="9.248472727118697"><ele>970.5999999999999</ele><time>2026-04-03T11:07:22.998Z</time></trkpt><trkpt lat="45.92780575340641" lon="9.248285683673032"><ele>970.4</ele><time>2026-04-03T11:07:24.998Z</time></trkpt><trkpt lat="45.927827584368146" lon="9.248164140336858"><ele>970.2</ele><time>2026-04-03T11:07:25.998Z</time></trkpt><trkpt lat="45.927856736917974" lon="9.248032042007567"><ele>970.0</ele><time>2026-04-03T11:07:26.998Z</time></trkpt><trkpt lat="45.92788810351126" lon="9.247892886414203"><ele>969.9999999999999</ele><time>2026-04-03T11:07:27.998Z</time></trkpt><trkpt lat="45.9279227450516" lon="9.24774905332789"><ele>970.0</ele><time>2026-04-03T11:07:28.998Z</time></trkpt><trkpt lat="45.92795391333344" lon="9.247611803328116"><ele>970.0</ele><time>2026-04-03T11:07:29.998Z</time></trkpt><trkpt lat="45.92797911789995" lon="9.247506585061846"><ele>970.0</ele><time>2026-04-03T11:07:30.998Z</time></trkpt><trkpt lat="45.92800510351427" lon="9.247413473660824"><ele>969.9999999999999</ele><time>2026-04-03T11:07:31.998Z</time></trkpt><trkpt lat="45.92802773236633" lon="9.24732795232623"><ele>970.0</ele><time>2026-04-03T11:07:32.998Z</time></trkpt><trkpt lat="45.92806117374756" lon="9.247215564130942"><ele>969.75</ele><time>2026-04-03T11:07:33.998Z</time></trkpt><trkpt lat="45.928110601744756" lon="9.24707767338339"><ele>969.5</ele><time>2026-04-03T11:07:34.998Z</time></trkpt><trkpt lat="45.928169029462794" lon="9.246902632428167"><ele>969.25</ele><time>2026-04-03T11:07:35.998Z</time></trkpt><trkpt lat="45.92823255725432" lon="9.246712503937923"><ele>969.0</ele><time>2026-04-03T11:07:36.998Z</time></trkpt><trkpt lat="45.928284361217344" lon="9.246503408516919"><ele>969.25</ele><time>2026-04-03T11:07:37.998Z</time></trkpt><trkpt lat="45.928326849815434" lon="9.246320722776598"><ele>969.5</ele><time>2026-04-03T11:07:38.998Z</time></trkpt><trkpt lat="45.92836495274929" lon="9.246172644743693"><ele>969.75</ele><time>2026-04-03T11:07:39.998Z</time></trkpt><trkpt lat="45.92840572318348" lon="9.2460333499644"><ele>970.0</ele><time>2026-04-03T11:07:40.998Z</time></trkpt><trkpt lat="45.92844133011909" lon="9.24589201045723"><ele>969.9999999999999</ele><time>2026-04-03T11:07:41.998Z</time></trkpt><trkpt lat="45.92846805582108" lon="9.245772409611854"><ele>970.0</ele><time>2026-04-03T11:07:42.998Z</time></trkpt><trkpt lat="45.928493254017845" lon="9.245670951154983"><ele>970.0</ele><time>2026-04-03T11:07:43.998Z</time></trkpt><trkpt lat="45.928514872106255" lon="9.2455715264873"><ele>970.0</ele><time>2026-04-03T11:07:44.998Z</time></trkpt><trkpt lat="45.92853317835622" lon="9.245484653017424"><ele>969.9999999999999</ele><time>2026-04-03T11:07:45.998Z</time></trkpt><trkpt lat="45.928556480719614" lon="9.245376997363145"><ele>970.0</ele><time>2026-04-03T11:07:46.998Z</time></trkpt><trkpt lat="45.928583303066844" lon="9.245241177885442"><ele>970.0</ele><time>2026-04-03T11:07:47.998Z</time></trkpt><trkpt lat="45.92861815059083" lon="9.245087372744392"><ele>970.0</ele><time>2026-04-03T11:07:48.998Z</time></trkpt><trkpt lat="45.928651040017606" lon="9.244908569171471"><ele>970.0</ele><time>2026-04-03T11:07:49.998Z</time></trkpt><trkpt lat="45.92868756600292" lon="9.244728988569484"><ele>970.0</ele><time>2026-04-03T11:07:50.998Z</time></trkpt><trkpt lat="45.928719863945005" lon="9.24454383303045"><ele>971.5</ele><time>2026-04-03T11:07:51.998Z</time></trkpt><trkpt lat="45.928748699532186" lon="9.24437262656939"><ele>973.0</ele><time>2026-04-03T11:07:52.998Z</time></trkpt><trkpt lat="45.928776714773754" lon="9.244204607035124"><ele>974.5</ele><time>2026-04-03T11:07:53.998Z</time></trkpt><trkpt lat="45.928800813864726" lon="9.244034737620355"><ele>976.0</ele><time>2026-04-03T11:07:54.998Z</time></trkpt><trkpt lat="45.928823525663006" lon="9.243871475435128"><ele>976.1999999999999</ele><time>2026-04-03T11:07:55.997Z</time></trkpt><trkpt lat="45.92884411346563" lon="9.243737191726774"><ele>976.3999999999999</ele><time>2026-04-03T11:07:56.997Z</time></trkpt><trkpt lat="45.92886538996635" lon="9.243626054781949"><ele>976.6</ele><time>2026-04-03T11:07:57.997Z</time></trkpt><trkpt lat="45.92889279870668" lon="9.243526963484634"><ele>976.8</ele><time>2026-04-03T11:07:58.997Z</time></trkpt><trkpt lat="45.92896472440889" lon="9.243395930737671"><ele>977.0</ele><time>2026-04-03T11:08:00.997Z</time></trkpt><trkpt lat="45.9290358004951" lon="9.243291245898538"><ele>977.0000000000001</ele><time>2026-04-03T11:08:02.997Z</time></trkpt><trkpt lat="45.9290996964642" lon="9.243167714760686"><ele>977.0</ele><time>2026-04-03T11:08:04.997Z</time></trkpt><trkpt lat="45.929078147884724" lon="9.243060722762221"><ele>977.0</ele><time>2026-04-03T11:08:05.997Z</time></trkpt><trkpt lat="45.9290694946033" lon="9.242949592629243"><ele>977.0</ele><time>2026-04-03T11:08:06.997Z</time></trkpt><trkpt lat="45.92903753998084" lon="9.24283676686263"><ele>977.0000000000001</ele><time>2026-04-03T11:08:07.997Z</time></trkpt><trkpt lat="45.92902473713999" lon="9.242701267430043"><ele>977.0</ele><time>2026-04-03T11:08:08.997Z</time></trkpt><trkpt lat="45.92900894605491" lon="9.242556120812653"><ele>977.6</ele><time>2026-04-03T11:08:09.997Z</time></trkpt><trkpt lat="45.928992926507014" lon="9.242400942638831"><ele>978.2</ele><time>2026-04-03T11:08:10.997Z</time></trkpt><trkpt lat="45.9289830981147" lon="9.242245737300674"><ele>978.8</ele><time>2026-04-03T11:08:12Z</time></trkpt><trkpt lat="45.9289729759666" lon="9.242088599527353"><ele>979.4</ele><time>2026-04-03T11:08:13Z</time></trkpt><trkpt lat="45.92896447915341" lon="9.241928584268274"><ele>980.0</ele><time>2026-04-03T11:08:14Z</time></trkpt><trkpt lat="45.92895703416436" lon="9.241769921978996"><ele>980.4</ele><time>2026-04-03T11:08:15Z</time></trkpt><trkpt lat="45.9289702681017" lon="9.241614668233638"><ele>980.8</ele><time>2026-04-03T11:08:16Z</time></trkpt><trkpt lat="45.92896434782555" lon="9.241459889788947"><ele>981.2</ele><time>2026-04-03T11:08:17Z</time></trkpt><trkpt lat="45.92897685933441" lon="9.241304123578502"><ele>981.6</ele><time>2026-04-03T11:08:18Z</time></trkpt><trkpt lat="45.928978128130936" lon="9.241142986233706"><ele>982.0</ele><time>2026-04-03T11:08:19Z</time></trkpt><trkpt lat="45.928959488312906" lon="9.24097562598327"><ele>982.1666666666666</ele><time>2026-04-03T11:08:20Z</time></trkpt><trkpt lat="45.92894834931095" lon="9.240814698527052"><ele>982.3333333333333</ele><time>2026-04-03T11:08:21Z</time></trkpt><trkpt lat="45.92892030612959" lon="9.240695837897903"><ele>982.5</ele><time>2026-04-03T11:08:22Z</time></trkpt><trkpt lat="45.928874181003" lon="9.240594092794954"><ele>982.6666666666667</ele><time>2026-04-03T11:08:23Z</time></trkpt><trkpt lat="45.92884433010821" lon="9.240485946805455"><ele>982.8333333333334</ele><time>2026-04-03T11:08:24Z</time></trkpt><trkpt lat="45.928828347085144" lon="9.240375992378477"><ele>983.0</ele><time>2026-04-03T11:08:25Z</time></trkpt><trkpt lat="45.928861826253254" lon="9.240231610790493"><ele>986.25</ele><time>2026-04-03T11:08:26Z</time></trkpt><trkpt lat="45.92891649605934" lon="9.240076146874953"><ele>989.5</ele><time>2026-04-03T11:08:27Z</time></trkpt><trkpt lat="45.92898101382032" lon="9.239914740431232"><ele>992.75</ele><time>2026-04-03T11:08:28Z</time></trkpt><trkpt lat="45.92905663395627" lon="9.239752975976312"><ele>996.0</ele><time>2026-04-03T11:08:29Z</time></trkpt><trkpt lat="45.92914453720817" lon="9.239583984332564"><ele>996.3333333333333</ele><time>2026-04-03T11:08:30Z</time></trkpt><trkpt lat="45.929240764270055" lon="9.2394187618232"><ele>996.6666666666666</ele><time>2026-04-03T11:08:31Z</time></trkpt><trkpt lat="45.92935661901093" lon="9.239274463128242"><ele>997.0</ele><time>2026-04-03T11:08:32Z</time></trkpt><trkpt lat="45.929495268314675" lon="9.239150415662923"><ele>997.0</ele><time>2026-04-03T11:08:33Z</time></trkpt><trkpt lat="45.92964401728252" lon="9.239023685002355"><ele>997.0</ele><time>2026-04-03T11:08:34Z</time></trkpt><trkpt lat="45.92979345519037" lon="9.23888581763845"><ele>997.0</ele><time>2026-04-03T11:08:35Z</time></trkpt><trkpt lat="45.9299388977591" lon="9.23874900387129"><ele>996.0</ele><time>2026-04-03T11:08:36Z</time></trkpt><trkpt lat="45.93006699389524" lon="9.238612306210769"><ele>995.0</ele><time>2026-04-03T11:08:36.999Z</time></trkpt><trkpt lat="45.93018030015909" lon="9.23846725287232"><ele>994.0</ele><time>2026-04-03T11:08:37.999Z</time></trkpt><trkpt lat="45.930282028276984" lon="9.238337314542404"><ele>993.0</ele><time>2026-04-03T11:08:38.999Z</time></trkpt><trkpt lat="45.93036331025419" lon="9.238190272968811"><ele>995.75</ele><time>2026-04-03T11:08:39.999Z</time></trkpt><trkpt lat="45.93042008218581" lon="9.23802402180726"><ele>998.5</ele><time>2026-04-03T11:08:40.999Z</time></trkpt><trkpt lat="45.930459955143014" lon="9.2378415010072"><ele>1001.25</ele><time>2026-04-03T11:08:41.999Z</time></trkpt><trkpt lat="45.930481167878646" lon="9.237643435325424"><ele>1004.0</ele><time>2026-04-03T11:08:42.999Z</time></trkpt><trkpt lat="45.93048992808777" lon="9.23747098324993"><ele>1003.75</ele><time>2026-04-03T11:08:43.999Z</time></trkpt><trkpt lat="45.930509154339326" lon="9.23728962931308"><ele>1003.5</ele><time>2026-04-03T11:08:44.999Z</time></trkpt><trkpt lat="45.93055030137209" lon="9.23709766139892"><ele>1003.25</ele><time>2026-04-03T11:08:45.999Z</time></trkpt><trkpt lat="45.93058918947654" lon="9.236890567752956"><ele>1003.0</ele><time>2026-04-03T11:08:46.999Z</time></trkpt><trkpt lat="45.93060760316842" lon="9.236685427491505"><ele>1003.0</ele><time>2026-04-03T11:08:47.999Z</time></trkpt><trkpt lat="45.93059638764449" lon="9.236483098827103"><ele>1003.0</ele><time>2026-04-03T11:08:48.999Z</time></trkpt><trkpt lat="45.9305754314708" lon="9.236302188473626"><ele>1003.0</ele><time>2026-04-03T11:08:49.999Z</time></trkpt><trkpt lat="45.930534857080815" lon="9.2361472883719"><ele>1003.0</ele><time>2026-04-03T11:08:50.999Z</time></trkpt><trkpt lat="45.930484828015835" lon="9.235976350769043"><ele>1001.25</ele><time>2026-04-03T11:08:51.999Z</time></trkpt><trkpt lat="45.9303950769617" lon="9.235827969221994"><ele>999.5</ele><time>2026-04-03T11:08:52.999Z</time></trkpt><trkpt lat="45.930304324058" lon="9.235720673151048"><ele>997.75</ele><time>2026-04-03T11:08:53.999Z</time></trkpt><trkpt lat="45.930250337415885" lon="9.23556357209667"><ele>996.0</ele><time>2026-04-03T11:08:54.999Z</time></trkpt><trkpt lat="45.93022947903356" lon="9.235365883425107"><ele>992.75</ele><time>2026-04-03T11:08:55.999Z</time></trkpt><trkpt lat="45.93021039391318" lon="9.235165744481812"><ele>989.5</ele><time>2026-04-03T11:08:56.999Z</time></trkpt><trkpt lat="45.9301887676739" lon="9.234964599684028"><ele>986.25</ele><time>2026-04-03T11:08:57.999Z</time></trkpt><trkpt lat="45.93017182046839" lon="9.234770645698651"><ele>983.0</ele><time>2026-04-03T11:08:58.999Z</time></trkpt><trkpt lat="45.93017668684192" lon="9.234585621920536"><ele>982.25</ele><time>2026-04-03T11:08:59.999Z</time></trkpt><trkpt lat="45.93017908068298" lon="9.234401128799588"><ele>981.5</ele><time>2026-04-03T11:09:00.999Z</time></trkpt><trkpt lat="45.93015048440601" lon="9.234212921923142"><ele>980.75</ele><time>2026-04-03T11:09:01.999Z</time></trkpt><trkpt lat="45.93012680544078" lon="9.234045816579476"><ele>980.0</ele><time>2026-04-03T11:09:02.999Z</time></trkpt><trkpt lat="45.93007183198178" lon="9.233889436855122"><ele>988.5</ele><time>2026-04-03T11:09:03.999Z</time></trkpt><trkpt lat="45.929981528977656" lon="9.233736493814547"><ele>997.0</ele><time>2026-04-03T11:09:04.999Z</time></trkpt><trkpt lat="45.92988245446516" lon="9.233603532696096"><ele>1005.5</ele><time>2026-04-03T11:09:05.999Z</time></trkpt><trkpt lat="45.92977524256589" lon="9.233475927331273"><ele>1014.0</ele><time>2026-04-03T11:09:06.999Z</time></trkpt><trkpt lat="45.929682738655146" lon="9.233313099726315"><ele>1014.0</ele><time>2026-04-03T11:09:07.999Z</time></trkpt><trkpt lat="45.92961318964275" lon="9.23314323510191"><ele>1014.0</ele><time>2026-04-03T11:09:08.999Z</time></trkpt><trkpt lat="45.929541212951385" lon="9.232985499342426"><ele>1014.0</ele><time>2026-04-03T11:09:09.999Z</time></trkpt><trkpt lat="45.929452814035535" lon="9.232812272646584"><ele>1014.0</ele><time>2026-04-03T11:09:10.999Z</time></trkpt><trkpt lat="45.92935820663881" lon="9.23267008693859"><ele>1015.8000000000001</ele><time>2026-04-03T11:09:11.999Z</time></trkpt><trkpt lat="45.929288407732784" lon="9.232534179293697"><ele>1017.6000000000001</ele><time>2026-04-03T11:09:12.999Z</time></trkpt><trkpt lat="45.92923304988491" lon="9.232424027433979"><ele>1019.4</ele><time>2026-04-03T11:09:13.999Z</time></trkpt><trkpt lat="45.9291728477653" lon="9.232331353019603"><ele>1021.2</ele><time>2026-04-03T11:09:14.999Z</time></trkpt><trkpt lat="45.929141353715565" lon="9.232248218937947"><ele>1023.0</ele><time>2026-04-03T11:09:15.999Z</time></trkpt><trkpt lat="45.92907290467578" lon="9.232178297850831"><ele>1023.0</ele><time>2026-04-03T11:09:16.999Z</time></trkpt><trkpt lat="45.928978568702355" lon="9.232149052621526"><ele>1023.0</ele><time>2026-04-03T11:09:17.999Z</time></trkpt><trkpt lat="45.92887131139571" lon="9.232135495604975"><ele>1023.0</ele><time>2026-04-03T11:09:18.998Z</time></trkpt><trkpt lat="45.92873776732516" lon="9.232086587348276"><ele>1023.0</ele><time>2026-04-03T11:09:19.998Z</time></trkpt><trkpt lat="45.928605540118454" lon="9.23198416816567"><ele>1023.0</ele><time>2026-04-03T11:09:20.998Z</time></trkpt><trkpt lat="45.928477411585426" lon="9.231886140265846"><ele>1023.0</ele><time>2026-04-03T11:09:21.998Z</time></trkpt><trkpt lat="45.92832084112728" lon="9.23181750643754"><ele>1023.0</ele><time>2026-04-03T11:09:22.998Z</time></trkpt><trkpt lat="45.92818834219492" lon="9.231764168244172"><ele>1023.0</ele><time>2026-04-03T11:09:23.998Z</time></trkpt><trkpt lat="45.928060041315824" lon="9.231687144170584"><ele>1023.0</ele><time>2026-04-03T11:09:24.998Z</time></trkpt><trkpt lat="45.92791289607022" lon="9.231588998165028"><ele>1023.0</ele><time>2026-04-03T11:09:25.998Z</time></trkpt><trkpt lat="45.927793806803194" lon="9.231431341599064"><ele>1023.0</ele><time>2026-04-03T11:09:26.998Z</time></trkpt><trkpt lat="45.92766925625488" lon="9.231284964602787"><ele>1033.3333333333333</ele><time>2026-04-03T11:09:27.998Z</time></trkpt><trkpt lat="45.92755055088961" lon="9.231164995231708"><ele>1043.6666666666665</ele><time>2026-04-03T11:09:28.998Z</time></trkpt><trkpt lat="45.92740437019159" lon="9.231047147983011"><ele>1054.0</ele><time>2026-04-03T11:09:29.998Z</time></trkpt><trkpt lat="45.92724594693565" lon="9.230931915153837"><ele>1054.0</ele><time>2026-04-03T11:09:30.998Z</time></trkpt><trkpt lat="45.92710384771179" lon="9.230822197549088"><ele>1054.0</ele><time>2026-04-03T11:09:31.998Z</time></trkpt><trkpt lat="45.92695157807709" lon="9.230691156619947"><ele>1054.0</ele><time>2026-04-03T11:09:32.998Z</time></trkpt><trkpt lat="45.9268167630028" lon="9.230553054071338"><ele>1056.6666666666665</ele><time>2026-04-03T11:09:33.998Z</time></trkpt><trkpt lat="45.926690419291766" lon="9.23037813075978"><ele>1059.3333333333333</ele><time>2026-04-03T11:09:34.998Z</time></trkpt><trkpt lat="45.92655990359241" lon="9.23020268903782"><ele>1062.0</ele><time>2026-04-03T11:09:35.998Z</time></trkpt><trkpt lat="45.926425669553346" lon="9.230056674253193"><ele>1062.0</ele><time>2026-04-03T11:09:36.998Z</time></trkpt><trkpt lat="45.92631447406748" lon="9.22992414989276"><ele>1062.0</ele><time>2026-04-03T11:09:37.998Z</time></trkpt><trkpt lat="45.92621646538372" lon="9.229761283731738"><ele>1062.0</ele><time>2026-04-03T11:09:38.998Z</time></trkpt><trkpt lat="45.92614090070132" lon="9.229623842118832"><ele>1062.0</ele><time>2026-04-03T11:09:39.998Z</time></trkpt><trkpt lat="45.926112784351744" lon="9.229484326596241"><ele>1064.25</ele><time>2026-04-03T11:09:40.998Z</time></trkpt><trkpt lat="45.92606711848945" lon="9.229408514647192"><ele>1066.5</ele><time>2026-04-03T11:09:41.998Z</time></trkpt><trkpt lat="45.92598810559284" lon="9.229274255743276"><ele>1068.75</ele><time>2026-04-03T11:09:43.998Z</time></trkpt><trkpt lat="45.925862600876876" lon="9.229304063981104"><ele>1071.0</ele><time>2026-04-03T11:09:44.998Z</time></trkpt><trkpt lat="45.92573629580178" lon="9.229365017448226"><ele>1071.0</ele><time>2026-04-03T11:09:45.998Z</time></trkpt><trkpt lat="45.925618405685725" lon="9.229409912263112"><ele>1071.0</ele><time>2026-04-03T11:09:46.998Z</time></trkpt><trkpt lat="45.92548889149604" lon="9.22945516112528"><ele>1071.0</ele><time>2026-04-03T11:09:47.998Z</time></trkpt><trkpt lat="45.92537393324041" lon="9.229492385221421"><ele>1071.0</ele><time>2026-04-03T11:09:48.998Z</time></trkpt><trkpt lat="45.925275434205325" lon="9.229524693096955"><ele>1071.0</ele><time>2026-04-03T11:09:49.998Z</time></trkpt><trkpt lat="45.92517712415592" lon="9.2295811969984"><ele>1071.0</ele><time>2026-04-03T11:09:50.998Z</time></trkpt><trkpt lat="45.92505900300405" lon="9.229598811205427"><ele>1071.0</ele><time>2026-04-03T11:09:51.998Z</time></trkpt><trkpt lat="45.9249454909708" lon="9.229614630825512"><ele>1071.0</ele><time>2026-04-03T11:09:52.998Z</time></trkpt><trkpt lat="45.9248405192461" lon="9.229615319363452"><ele>1071.0</ele><time>2026-04-03T11:09:53.998Z</time></trkpt><trkpt lat="45.92475231818729" lon="9.229600307671548"><ele>1074.0</ele><time>2026-04-03T11:09:54.998Z</time></trkpt><trkpt lat="45.92466203643832" lon="9.229565057594177"><ele>1077.0</ele><time>2026-04-03T11:09:55.998Z</time></trkpt><trkpt lat="45.92458876634337" lon="9.229487318616023"><ele>1080.0</ele><time>2026-04-03T11:09:56.998Z</time></trkpt><trkpt lat="45.92451221476445" lon="9.229381846470826"><ele>1083.0</ele><time>2026-04-03T11:09:57.998Z</time></trkpt><trkpt lat="45.9244261530455" lon="9.22926767901226"><ele>1086.0</ele><time>2026-04-03T11:09:58.998Z</time></trkpt><trkpt lat="45.924336905433655" lon="9.229167077391336"><ele>1086.0</ele><time>2026-04-03T11:09:59.997Z</time></trkpt><trkpt lat="45.92426445985776" lon="9.229053097594006"><ele>1086.0</ele><time>2026-04-03T11:10:00.997Z</time></trkpt><trkpt lat="45.92420588722769" lon="9.228936653694825"><ele>1086.0</ele><time>2026-04-03T11:10:01.997Z</time></trkpt><trkpt lat="45.92414337929894" lon="9.228864978487412"><ele>1086.0</ele><time>2026-04-03T11:10:02.997Z</time></trkpt><trkpt lat="45.92407092754779" lon="9.22880392658955"><ele>1086.0</ele><time>2026-04-03T11:10:03.997Z</time></trkpt><trkpt lat="45.923993301683176" lon="9.228766631569604"><ele>1085.6</ele><time>2026-04-03T11:10:04.997Z</time></trkpt><trkpt lat="45.92390895618431" lon="9.22875396999707"><ele>1085.1999999999998</ele><time>2026-04-03T11:10:05.997Z</time></trkpt><trkpt lat="45.923815716180684" lon="9.228767535831993"><ele>1084.8000000000002</ele><time>2026-04-03T11:10:06.997Z</time></trkpt><trkpt lat="45.92371251480708" lon="9.228814506665666"><ele>1084.4</ele><time>2026-04-03T11:10:07.997Z</time></trkpt><trkpt lat="45.923616368219086" lon="9.22888683277418"><ele>1084.0</ele><time>2026-04-03T11:10:08.997Z</time></trkpt><trkpt lat="45.923534919604336" lon="9.228996758283962"><ele>1086.0</ele><time>2026-04-03T11:10:09.997Z</time></trkpt><trkpt lat="45.923478257718195" lon="9.229114433719774"><ele>1088.0</ele><time>2026-04-03T11:10:10.997Z</time></trkpt><trkpt lat="45.923433547429326" lon="9.229208649614664"><ele>1090.0</ele><time>2026-04-03T11:10:11.997Z</time></trkpt><trkpt lat="45.923390130425574" lon="9.229299508562683"><ele>1092.0</ele><time>2026-04-03T11:10:12.997Z</time></trkpt><trkpt lat="45.92334914327305" lon="9.22937533651766"><ele>1094.0</ele><time>2026-04-03T11:10:13.997Z</time></trkpt><trkpt lat="45.92330092469557" lon="9.2294538288966"><ele>1096.0</ele><time>2026-04-03T11:10:14.997Z</time></trkpt><trkpt lat="45.92325401626277" lon="9.229523150449431"><ele>1097.0</ele><time>2026-04-03T11:10:15.997Z</time></trkpt><trkpt lat="45.92316260616393" lon="9.22963680107165"><ele>1098.0</ele><time>2026-04-03T11:10:18Z</time></trkpt><trkpt lat="45.92306531335037" lon="9.229715487185905"><ele>1099.0</ele><time>2026-04-03T11:10:20Z</time></trkpt><trkpt lat="45.922978422327645" lon="9.229757415645205"><ele>1100.0</ele><time>2026-04-03T11:10:22Z</time></trkpt><trkpt lat="45.92290114015323" lon="9.22977729714876"><ele>1101.0</ele><time>2026-04-03T11:10:25Z</time></trkpt><trkpt lat="45.922821475436706" lon="9.229776715782751"><ele>1101.0</ele><time>2026-04-03T11:11:13.999Z</time></trkpt><trkpt lat="45.922717031684876" lon="9.229744525768337"><ele>1101.0</ele><time>2026-04-03T11:11:15.999Z</time></trkpt><trkpt lat="45.9226448199843" lon="9.229721531805836"><ele>1101.0</ele><time>2026-04-03T11:11:16.999Z</time></trkpt><trkpt lat="45.922564621875146" lon="9.229707390656968"><ele>1101.0</ele><time>2026-04-03T11:11:17.999Z</time></trkpt><trkpt lat="45.922449877999426" lon="9.229695404336766"><ele>1101.0</ele><time>2026-04-03T11:11:19.999Z</time></trkpt><trkpt lat="45.92238272891363" lon="9.229690054412334"><ele>1101.0</ele><time>2026-04-03T11:11:20.999Z</time></trkpt><trkpt lat="45.92230583989532" lon="9.229688155133795"><ele>1102.0</ele><time>2026-04-03T11:11:21.999Z</time></trkpt><trkpt lat="45.92222939132786" lon="9.229691427644184"><ele>1103.0</ele><time>2026-04-03T11:11:22.999Z</time></trkpt><trkpt lat="45.92215359207243" lon="9.229702498089168"><ele>1104.0</ele><time>2026-04-03T11:11:23.999Z</time></trkpt><trkpt lat="45.92207275872249" lon="9.22973338142"><ele>1105.0</ele><time>2026-04-03T11:11:24.998Z</time></trkpt><trkpt lat="45.922006236604254" lon="9.229778337125781"><ele>1106.0</ele><time>2026-04-03T11:11:25.998Z</time></trkpt><trkpt lat="45.92196477821268" lon="9.229885075245871"><ele>1107.0</ele><time>2026-04-03T11:11:26.998Z</time></trkpt><trkpt lat="45.92189123347743" lon="9.229948638297138"><ele>1108.4</ele><time>2026-04-03T11:11:28.998Z</time></trkpt><trkpt lat="45.9218018490025" lon="9.229985729068241"><ele>1109.8000000000002</ele><time>2026-04-03T11:11:31.998Z</time></trkpt><trkpt lat="45.92173615992996" lon="9.230023076845784"><ele>1111.2</ele><time>2026-04-03T11:11:33.998Z</time></trkpt><trkpt lat="45.921703572539194" lon="9.229755812675714"><ele>1112.6000000000001</ele><time>2026-04-03T11:11:38.998Z</time></trkpt><trkpt lat="45.92170921805249" lon="9.229626810208664"><ele>1114.0</ele><time>2026-04-03T11:11:41.998Z</time></trkpt><trkpt lat="45.921666741102705" lon="9.229547418605119"><ele>1115.8333333333333</ele><time>2026-04-03T11:11:59.998Z</time></trkpt><trkpt lat="45.9216616825857" lon="9.229438848071995"><ele>1117.6666666666665</ele><time>2026-04-03T11:12:07.997Z</time></trkpt><trkpt lat="45.92167205693509" lon="9.229574105155494"><ele>1119.5</ele><time>2026-04-03T11:12:24Z</time></trkpt><trkpt lat="45.921669631142855" lon="9.229681665823307"><ele>1121.3333333333333</ele><time>2026-04-03T11:12:26Z</time></trkpt><trkpt lat="45.92166208491552" lon="9.229795771943117"><ele>1123.1666666666667</ele><time>2026-04-03T11:12:28Z</time></trkpt><trkpt lat="45.921674659910366" lon="9.229891051395228"><ele>1125.0</ele><time>2026-04-03T11:12:30Z</time></trkpt><trkpt lat="45.921720420636156" lon="9.229993889248588"><ele>1123.1666666666667</ele><time>2026-04-03T11:12:33Z</time></trkpt><trkpt lat="45.9218092533308" lon="9.230002762890079"><ele>1121.3333333333333</ele><time>2026-04-03T11:12:36Z</time></trkpt><trkpt lat="45.92189091469092" lon="9.229938494058674"><ele>1119.5</ele><time>2026-04-03T11:12:38Z</time></trkpt><trkpt lat="45.92196182860195" lon="9.229938746613746"><ele>1117.6666666666665</ele><time>2026-04-03T11:12:39Z</time></trkpt><trkpt lat="45.922044626061826" lon="9.22982988032531"><ele>1115.8333333333333</ele><time>2026-04-03T11:12:41Z</time></trkpt><trkpt lat="45.92211583357778" lon="9.229801937878534"><ele>1114.0</ele><time>2026-04-03T11:12:42Z</time></trkpt><trkpt lat="45.92219184129286" lon="9.229775840753847"><ele>1112.8333333333333</ele><time>2026-04-03T11:12:43Z</time></trkpt><trkpt lat="45.92226447164319" lon="9.229748690681292"><ele>1111.6666666666665</ele><time>2026-04-03T11:12:44Z</time></trkpt><trkpt lat="45.92234914273589" lon="9.229753137070118"><ele>1110.5</ele><time>2026-04-03T11:12:45Z</time></trkpt><trkpt lat="45.92243856618618" lon="9.229769340954126"><ele>1109.3333333333333</ele><time>2026-04-03T11:12:46Z</time></trkpt><trkpt lat="45.9225253661291" lon="9.229779529062649"><ele>1108.1666666666667</ele><time>2026-04-03T11:12:47Z</time></trkpt><trkpt lat="45.922599287651714" lon="9.229785463560924"><ele>1107.0</ele><time>2026-04-03T11:12:48Z</time></trkpt><trkpt lat="45.92271907788093" lon="9.229800672237795"><ele>1108.4</ele><time>2026-04-03T11:12:50Z</time></trkpt><trkpt lat="45.92279444897102" lon="9.229811653415677"><ele>1109.8000000000002</ele><time>2026-04-03T11:12:51.999Z</time></trkpt><trkpt lat="45.922865556679234" lon="9.229842869386264"><ele>1111.2</ele><time>2026-04-03T11:12:59.999Z</time></trkpt><trkpt lat="45.922871773228515" lon="9.229985283153097"><ele>1112.6000000000001</ele><time>2026-04-03T11:13:01.999Z</time></trkpt><trkpt lat="45.92294984634702" lon="9.230128922622022"><ele>1114.0</ele><time>2026-04-03T11:13:03.999Z</time></trkpt><trkpt lat="45.92301513310178" lon="9.230180336484676"><ele>1114.0</ele><time>2026-04-03T11:13:04.999Z</time></trkpt><trkpt lat="45.92309465645338" lon="9.230219359568906"><ele>1114.0</ele><time>2026-04-03T11:13:05.999Z</time></trkpt><trkpt lat="45.92316123595576" lon="9.230259166210372"><ele>1114.0</ele><time>2026-04-03T11:13:06.999Z</time></trkpt><trkpt lat="45.92321918664603" lon="9.230295050771286"><ele>1114.0</ele><time>2026-04-03T11:13:07.999Z</time></trkpt><trkpt lat="45.92333583179366" lon="9.230378306550861"><ele>1114.0</ele><time>2026-04-03T11:13:09.999Z</time></trkpt><trkpt lat="45.92340876228478" lon="9.23043593266124"><ele>1114.0</ele><time>2026-04-03T11:13:10.999Z</time></trkpt><trkpt lat="45.923484556485164" lon="9.230485302544087"><ele>1114.0</ele><time>2026-04-03T11:13:11.999Z</time></trkpt><trkpt lat="45.923542070130615" lon="9.230534951551617"><ele>1114.0</ele><time>2026-04-03T11:13:12.999Z</time></trkpt><trkpt lat="45.92360423006722" lon="9.230593861156676"><ele>1114.0</ele><time>2026-04-03T11:13:14.999Z</time></trkpt><trkpt lat="45.92352096130241" lon="9.23064817383541"><ele>1114.0</ele><time>2026-04-03T11:13:19.999Z</time></trkpt><trkpt lat="45.92344518526805" lon="9.230618990245402"><ele>1114.0</ele><time>2026-04-03T11:13:21.999Z</time></trkpt><trkpt lat="45.92337511597314" lon="9.230620488079648"><ele>1114.0</ele><time>2026-04-03T11:13:23.999Z</time></trkpt><trkpt lat="45.92331135853888" lon="9.230672817773096"><ele>1115.8333333333333</ele><time>2026-04-03T11:13:26.999Z</time></trkpt><trkpt lat="45.92324153338459" lon="9.230700258260544"><ele>1117.6666666666665</ele><time>2026-04-03T11:13:30.999Z</time></trkpt><trkpt lat="45.923306480624596" lon="9.230696901793353"><ele>1119.5</ele><time>2026-04-03T11:13:33.998Z</time></trkpt><trkpt lat="45.923380706923076" lon="9.23072955299235"><ele>1121.3333333333333</ele><time>2026-04-03T11:13:34.998Z</time></trkpt><trkpt lat="45.923482828423154" lon="9.230705178277997"><ele>1123.1666666666667</ele><time>2026-04-03T11:13:36.998Z</time></trkpt><trkpt lat="45.92356113432483" lon="9.230721838626462"><ele>1125.0</ele><time>2026-04-03T11:13:38.998Z</time></trkpt><trkpt lat="45.92365221220238" lon="9.230642953019842"><ele>1123.1666666666667</ele><time>2026-04-03T11:13:40.998Z</time></trkpt><trkpt lat="45.92357949219324" lon="9.230564514048108"><ele>1121.3333333333333</ele><time>2026-04-03T11:13:47.998Z</time></trkpt><trkpt lat="45.923521925336765" lon="9.230622893362803"><ele>1119.5</ele><time>2026-04-03T11:13:48.998Z</time></trkpt><trkpt lat="45.923414700698984" lon="9.230601038643302"><ele>1117.6666666666665</ele><time>2026-04-03T11:13:50.998Z</time></trkpt><trkpt lat="45.92331183245226" lon="9.230603132731522"><ele>1115.8333333333333</ele><time>2026-04-03T11:13:52.998Z</time></trkpt><trkpt lat="45.923247906228504" lon="9.23060313272654"><ele>1114.0</ele><time>2026-04-03T11:13:53.998Z</time></trkpt><trkpt lat="45.92313088646427" lon="9.230263883789343"><ele>1114.0</ele><time>2026-04-03T11:13:55.998Z</time></trkpt><trkpt lat="45.92302021028181" lon="9.230199799526574"><ele>1114.0</ele><time>2026-04-03T11:13:57.998Z</time></trkpt><trkpt lat="45.92299696994917" lon="9.230114575894731"><ele>1114.0</ele><time>2026-04-03T11:13:58.998Z</time></trkpt><trkpt lat="45.922904235222155" lon="9.230093935586325"><ele>1114.0</ele><time>2026-04-03T11:14:00.998Z</time></trkpt><trkpt lat="45.92290007556517" lon="9.229949994493772"><ele>1114.0</ele><time>2026-04-03T11:14:02.998Z</time></trkpt><trkpt lat="45.922913222006514" lon="9.229855486243745"><ele>1114.0</ele><time>2026-04-03T11:14:04.998Z</time></trkpt><trkpt lat="45.923017116767696" lon="9.229828705268874"><ele>1111.8333333333333</ele><time>2026-04-03T11:14:05.998Z</time></trkpt><trkpt lat="45.92311145533193" lon="9.22976124351905"><ele>1109.6666666666665</ele><time>2026-04-03T11:14:07.998Z</time></trkpt><trkpt lat="45.92316911383906" lon="9.229707539198218"><ele>1107.5</ele><time>2026-04-03T11:14:08.998Z</time></trkpt><trkpt lat="45.92322939381592" lon="9.22964923495194"><ele>1105.3333333333333</ele><time>2026-04-03T11:14:09.998Z</time></trkpt><trkpt lat="45.92328005865257" lon="9.22958867962263"><ele>1103.1666666666667</ele><time>2026-04-03T11:14:10.998Z</time></trkpt><trkpt lat="45.92335855169647" lon="9.22945653893852"><ele>1101.0</ele><time>2026-04-03T11:14:12.998Z</time></trkpt><trkpt lat="45.92343041809807" lon="9.229331120302003"><ele>1100.0</ele><time>2026-04-03T11:14:14.997Z</time></trkpt><trkpt lat="45.923504487120915" lon="9.229201593921664"><ele>1099.0</ele><time>2026-04-03T11:14:16.997Z</time></trkpt><trkpt lat="45.92357120238918" lon="9.229064780496389"><ele>1098.0</ele><time>2026-04-03T11:14:18.997Z</time></trkpt><trkpt lat="45.92365421613267" lon="9.228950002994521"><ele>1097.0</ele><time>2026-04-03T11:14:20.997Z</time></trkpt><trkpt lat="45.92372406561081" lon="9.228909283798567"><ele>1096.0</ele><time>2026-04-03T11:14:21.997Z</time></trkpt><trkpt lat="45.923791075761514" lon="9.22885081049502"><ele>1096.0</ele><time>2026-04-03T11:14:22.997Z</time></trkpt><trkpt lat="45.923862152628026" lon="9.228827987904598"><ele>1096.0</ele><time>2026-04-03T11:14:23.997Z</time></trkpt><trkpt lat="45.923938149111855" lon="9.228827600079295"><ele>1096.0</ele><time>2026-04-03T11:14:24.997Z</time></trkpt><trkpt lat="45.924016550024724" lon="9.228850996883741"><ele>1096.0</ele><time>2026-04-03T11:14:25.997Z</time></trkpt><trkpt lat="45.924088093447494" lon="9.228922515015652"><ele>1096.0</ele><time>2026-04-03T11:14:26.997Z</time></trkpt><trkpt lat="45.924167878752534" lon="9.228996602981741"><ele>1096.0</ele><time>2026-04-03T11:14:28Z</time></trkpt><trkpt lat="45.9242462952101" lon="9.229097350564103"><ele>1094.0</ele><time>2026-04-03T11:14:29Z</time></trkpt><trkpt lat="45.9243235170087" lon="9.22920384096852"><ele>1092.0</ele><time>2026-04-03T11:14:30Z</time></trkpt><trkpt lat="45.92440751310339" lon="9.229314935760268"><ele>1090.0</ele><time>2026-04-03T11:14:31Z</time></trkpt><trkpt lat="45.92448080298292" lon="9.229410931499388"><ele>1088.0</ele><time>2026-04-03T11:14:32Z</time></trkpt><trkpt lat="45.92455126171092" lon="9.22950363474258"><ele>1086.0</ele><time>2026-04-03T11:14:33Z</time></trkpt><trkpt lat="45.924615742733295" lon="9.229584959246498"><ele>1086.0</ele><time>2026-04-03T11:14:34Z</time></trkpt><trkpt lat="45.9246887913583" lon="9.229658861351004"><ele>1086.0</ele><time>2026-04-03T11:14:35Z</time></trkpt><trkpt lat="45.92478148384727" lon="9.229679032418213"><ele>1086.0</ele><time>2026-04-03T11:14:36Z</time></trkpt><trkpt lat="45.92486735150628" lon="9.229711062851464"><ele>1086.0</ele><time>2026-04-03T11:14:37Z</time></trkpt><trkpt lat="45.924950584340934" lon="9.229686725024328"><ele>1086.0</ele><time>2026-04-03T11:14:38Z</time></trkpt><trkpt lat="45.92502536643118" lon="9.22967777111215"><ele>1086.0</ele><time>2026-04-03T11:14:39Z</time></trkpt><trkpt lat="45.9251050393476" lon="9.22966050751792"><ele>1083.0</ele><time>2026-04-03T11:14:40Z</time></trkpt><trkpt lat="45.92518072929748" lon="9.229633347234843"><ele>1080.0</ele><time>2026-04-03T11:14:41Z</time></trkpt><trkpt lat="45.92526935605463" lon="9.22960077863825"><ele>1077.0</ele><time>2026-04-03T11:14:42Z</time></trkpt><trkpt lat="45.925372661776365" lon="9.229566137642871"><ele>1074.0</ele><time>2026-04-03T11:14:43Z</time></trkpt><trkpt lat="45.92547698783087" lon="9.229554429882645"><ele>1071.0</ele><time>2026-04-03T11:14:44Z</time></trkpt><trkpt lat="45.92556979501691" lon="9.22952105281026"><ele>1071.0</ele><time>2026-04-03T11:14:45Z</time></trkpt><trkpt lat="45.92565689613098" lon="9.229488040189372"><ele>1071.0</ele><time>2026-04-03T11:14:46Z</time></trkpt><trkpt lat="45.92574720356657" lon="9.229452806299927"><ele>1071.0</ele><time>2026-04-03T11:14:47Z</time></trkpt><trkpt lat="45.92583145918517" lon="9.229405991051475"><ele>1071.0</ele><time>2026-04-03T11:14:48Z</time></trkpt><trkpt lat="45.92590339048059" lon="9.229376977306783"><ele>1071.0</ele><time>2026-04-03T11:14:49Z</time></trkpt><trkpt lat="45.9259709528214" lon="9.229376501022982"><ele>1071.0</ele><time>2026-04-03T11:14:50Z</time></trkpt><trkpt lat="45.92603584902796" lon="9.229374745252692"><ele>1069.2</ele><time>2026-04-03T11:14:51Z</time></trkpt><trkpt lat="45.92608022490556" lon="9.229469836939238"><ele>1067.3999999999999</ele><time>2026-04-03T11:14:52Z</time></trkpt><trkpt lat="45.92611615159538" lon="9.229578238844976"><ele>1065.6</ele><time>2026-04-03T11:14:53Z</time></trkpt><trkpt lat="45.92614608214357" lon="9.22970593974205"><ele>1063.8</ele><time>2026-04-03T11:14:54Z</time></trkpt><trkpt lat="45.92620602478881" lon="9.22983392303658"><ele>1062.0</ele><time>2026-04-03T11:14:55Z</time></trkpt><trkpt lat="45.926284083684926" lon="9.229963895382806"><ele>1062.0</ele><time>2026-04-03T11:14:56Z</time></trkpt><trkpt lat="45.92638206296063" lon="9.23008831052747"><ele>1062.0</ele><time>2026-04-03T11:14:57Z</time></trkpt><trkpt lat="45.92648847912428" lon="9.230213238407037"><ele>1062.0</ele><time>2026-04-03T11:14:58Z</time></trkpt><trkpt lat="45.92658897514409" lon="9.230329946331805"><ele>1062.0</ele><time>2026-04-03T11:14:59Z</time></trkpt><trkpt lat="45.926668468047545" lon="9.230462049178831"><ele>1060.0</ele><time>2026-04-03T11:14:59.999Z</time></trkpt><trkpt lat="45.92675671345913" lon="9.230594117277777"><ele>1058.0</ele><time>2026-04-03T11:15:00.999Z</time></trkpt><trkpt lat="45.926855595439584" lon="9.230684084956755"><ele>1056.0</ele><time>2026-04-03T11:15:01.999Z</time></trkpt><trkpt lat="45.926950935597624" lon="9.230802533581821"><ele>1054.0</ele><time>2026-04-03T11:15:02.999Z</time></trkpt><trkpt lat="45.92707031263473" lon="9.230877223140638"><ele>1054.0</ele><time>2026-04-03T11:15:03.999Z</time></trkpt><trkpt lat="45.92718519808242" lon="9.230979183684026"><ele>1054.0</ele><time>2026-04-03T11:15:04.999Z</time></trkpt><trkpt lat="45.927299630799645" lon="9.231060045652047"><ele>1054.0</ele><time>2026-04-03T11:15:05.999Z</time></trkpt><trkpt lat="45.92741028905377" lon="9.231135348364935"><ele>1054.0</ele><time>2026-04-03T11:15:06.999Z</time></trkpt><trkpt lat="45.92751597853956" lon="9.231214382974184"><ele>1052.0</ele><time>2026-04-03T11:15:07.999Z</time></trkpt><trkpt lat="45.92761314322712" lon="9.231311173469852"><ele>1050.0</ele><time>2026-04-03T11:15:08.999Z</time></trkpt><trkpt lat="45.92770437474084" lon="9.231422643394419"><ele>1048.0</ele><time>2026-04-03T11:15:09.999Z</time></trkpt><trkpt lat="45.927793946065954" lon="9.231540449501297"><ele>1046.0</ele><time>2026-04-03T11:15:10.999Z</time></trkpt><trkpt lat="45.927883120495515" lon="9.231641416242486"><ele>1046.0</ele><time>2026-04-03T11:15:11.999Z</time></trkpt><trkpt lat="45.92798375193815" lon="9.231713190153197"><ele>1046.0</ele><time>2026-04-03T11:15:12.999Z</time></trkpt><trkpt lat="45.928079721994294" lon="9.23178084458687"><ele>1046.0</ele><time>2026-04-03T11:15:13.999Z</time></trkpt><trkpt lat="45.92818832618547" lon="9.231840324742233"><ele>1046.0</ele><time>2026-04-03T11:15:14.999Z</time></trkpt><trkpt lat="45.92830164392761" lon="9.231882475787824"><ele>1041.3999999999999</ele><time>2026-04-03T11:15:15.999Z</time></trkpt><trkpt lat="45.92841168770824" lon="9.231945834883184"><ele>1036.8</ele><time>2026-04-03T11:15:16.999Z</time></trkpt><trkpt lat="45.928499010905036" lon="9.23201543933752"><ele>1032.1999999999998</ele><time>2026-04-03T11:15:17.999Z</time></trkpt><trkpt lat="45.92858080684435" lon="9.232086532467319"><ele>1027.6</ele><time>2026-04-03T11:15:18.999Z</time></trkpt><trkpt lat="45.92866548756181" lon="9.232156735688015"><ele>1023.0</ele><time>2026-04-03T11:15:19.999Z</time></trkpt><trkpt lat="45.92876751287584" lon="9.232189795198218"><ele>1023.0</ele><time>2026-04-03T11:15:20.999Z</time></trkpt><trkpt lat="45.92886980181849" lon="9.232196173141997"><ele>1023.0</ele><time>2026-04-03T11:15:21.999Z</time></trkpt><trkpt lat="45.92895484530344" lon="9.232200293648129"><ele>1023.0</ele><time>2026-04-03T11:15:22.999Z</time></trkpt><trkpt lat="45.92902711433018" lon="9.232232238406267"><ele>1023.0</ele><time>2026-04-03T11:15:23.999Z</time></trkpt><trkpt lat="45.92908845650165" lon="9.232347355601595"><ele>1023.0</ele><time>2026-04-03T11:15:24.999Z</time></trkpt><trkpt lat="45.92916017791452" lon="9.23247493190724"><ele>1018.0</ele><time>2026-04-03T11:15:25.999Z</time></trkpt><trkpt lat="45.92923075503126" lon="9.232633164130196"><ele>1013.0</ele><time>2026-04-03T11:15:26.999Z</time></trkpt><trkpt lat="45.929332880621864" lon="9.232780793465789"><ele>1008.0</ele><time>2026-04-03T11:15:27.999Z</time></trkpt><trkpt lat="45.92940626102299" lon="9.232918141942271"><ele>1003.0</ele><time>2026-04-03T11:15:28.999Z</time></trkpt><trkpt lat="45.92949171375939" lon="9.23304355895828"><ele>1003.0</ele><time>2026-04-03T11:15:29.999Z</time></trkpt><trkpt lat="45.929567967918196" lon="9.233179832331894"><ele>1014.0</ele><time>2026-04-03T11:15:30.999Z</time></trkpt></trkseg></trk></gpx>